[[{"header":{"parameterUnit":"m.s-1","parameterCategory":1,"la1":31.0,"la2":29.5877,"lo1":-88.7671,"lo2":-86.6584,"dy":0.0162,"dx":0.0185,"nx":115,"ny":88,"refTime":"2026-03-24T00:00:00:Z","depth":0,"parameterNumber":2,"parameterNumberName":"U-component_of_WINDS"},"data":[0.0,0.0,0.0,0.0,0.0,0.0,0.0,0.0,0.0,0.0,0.0,0.0,0.0,0.0,0.0,0.0,0.0,0.0,0.0,0.0,0.0,0.0,0.0,0.0,0.0,0.0,0.0,0.0,0.0,0.0,0.0,0.0,0.0,0.0,0.0,0.0,0.0,0.0,0.0,0.0,0.0,0.0,0.0,0.0,0.0,0.0,0.0,0.0,0.0,0.0,0.0,0.0,0.0,0.0,0.0,0.0,0.0,0.0,0.0,0.0,0.0,0.0,0.0,0.0,0.0,0.0,0.0,0.0,0.0,0.0,0.0,0.0,0.0,0.0,0.0,0.0,0.0,0.0,0.0,0.0,0.0,0.0,0.0,0.0,0.0,0.0,0.0,0.0,0.0,0.0,0.0,0.0,0.0,0.0,0.0,0.0,0.0,0.0,0.0,0.0,0.0,0.0,0.0,0.0,0.0,0.0,0.0,0.0,0.0,0.0,0.0,0.0,0.0,0.0,0.0,0.0,0.0,0.0,0.0,0.0,0.0,0.0,0.0,0.0,0.0,0.0,0.0,0.0,0.0,0.0,0.0,0.0,0.0,0.0,0.0,0.0,0.0,0.0,0.0,0.0,0.0,0.0,0.0,0.0,0.0,0.0,0.0,0.0,0.0,0.0,0.0,0.0,0.0,0.0,0.0,0.0,0.0,0.0,0.0,0.0,0.0,0.0,0.0,0.0,0.0,0.0,0.0,0.0,0.0,0.0,0.0,0.0,0.0,0.0,0.0,0.0,0.0,0.0,0.0,0.0,0.0,0.0,0.0,0.0,0.0,0.0,0.0,0.0,0.0,0.0,0.0,0.0,0.0,0.0,0.0,0.0,0.0,0.0,0.0,0.0,0.0,0.0,0.0,0.0,0.0,0.0,0.0,0.0,0.0,0.0,0.0,0.0,0.0,0.0,0.0,0.0,0.0,0.0,0.0,0.0,0.0,0.0,0.0,0.0,0.0,0.0,0.0,0.0,0.0,0.0,0.0,0.0,0.0,0.0,0.0,0.0,0.0,0.0,0.0,0.0,0.0,0.0,0.0,0.0,0.0,0.0,0.0,0.0,0.0,0.0,0.0,0.0,0.0,0.0,0.0,0.0,0.0,0.0,0.0,0.0,0.0,0.0,0.0,0.0,0.0,0.0,0.0,0.0,0.0,0.0,0.0,0.0,0.0,0.0,0.0,0.0,0.0,0.0,0.0,0.0,0.0,0.0,0.0,0.0,0.0,0.0,0.0,0.0,0.0,0.0,0.0,0.0,0.0,0.0,0.0,0.0,0.0,0.0,0.0,0.0,0.0,0.0,0.0,0.0,0.0,0.0,0.0,0.0,0.0,0.0,0.0,0.0,0.0,0.0,0.0,0.0,0.0,0.0,0.0,0.0,0.0,0.0,0.0,0.0,0.0,0.0,0.0,0.0,0.0,0.0,0.0,0.0,0.0,0.0,0.0,0.0,0.0,0.0,0.0,0.0,0.0,0.0,0.0,0.0,0.0,0.0,0.0,0.0,0.0,0.0,0.0,0.0,0.0,0.0,0.0,0.0,0.0,0.0,0.0,0.0,0.0,0.0,0.0,0.0,0.0,0.0,0.0,0.0,0.0,0.0,0.0,0.0,0.0,0.0,0.0,0.0,0.0,0.0,0.0,0.0,0.0,0.0,0.0,0.0,0.0,0.0,0.0,0.0,0.0,0.0,0.0,0.0,0.0,0.0,0.0,0.0,0.0,0.0,0.0,0.0,0.0,0.0,0.0,0.0,0.0,0.0,0.0,0.0,0.0,0.0,0.0,0.0,0.0,0.0,0.0,0.0,0.0,0.0,0.0,0.0,0.0,0.0,0.0,0.0,0.0,0.0,0.0,0.0,0.0,0.0,0.0,0.0,0.0,0.0,0.0,0.0,0.0,0.0,0.0,0.0,0.0,0.0,0.0,0.0,0.0,0.0,0.0,0.0,0.0,0.0,0.0,0.0,0.0,0.0,0.0,0.0,0.0,0.0,0.0,0.0,0.0,0.0,0.0,0.0,0.0,0.0,0.0,0.0,0.0,0.0,0.0,0.0,0.0,0.0,0.0,0.0,0.0,0.0,0.0,0.0,0.0,0.0,0.0,0.0,0.0,0.0,0.0,0.0,0.0,0.0,0.0,0.0,0.0,0.0,0.0,0.0,0.0,0.0,0.0,0.0,0.0,0.0,0.0,0.0,0.0,0.0,0.0,0.0,0.0,0.0,0.0,0.0,0.0,0.0,0.0,0.0,0.0,0.0,0.0,0.0,0.0,0.0,0.0,0.0,0.0,0.0,0.0,0.0,0.0,0.0,0.0,0.0,0.0,0.0,0.0,0.0,0.0,0.0,0.0,0.0,0.0,0.0,0.0,0.0,0.0,0.0,0.0,0.0,0.0,0.0,0.0,0.0,0.0,0.0,0.0,0.0,0.0,0.0,0.0,0.0,0.0,0.0,0.0,0.0,0.0,0.0,0.0,0.0,0.0,0.0,0.0,0.0,0.0,0.0,0.0,0.0,0.0,0.0,0.0,0.0,0.0,0.0,0.0,0.0,0.0,0.0,0.0,0.0,0.0,0.0,0.0,0.0,0.0,0.0,0.0,0.0,0.0,0.0,0.0,0.0,0.0,0.0,0.0,0.0,0.0,0.0,0.0,0.0,0.0,0.0,0.0,0.0,0.0,0.0,0.0,0.0,0.0,0.0,0.0,0.0,0.0,0.0,0.0,0.0,0.0,0.0,0.0,0.0,0.0,0.0,0.0,0.0,0.0,0.0,0.0,0.0,0.0,0.0,0.0,0.0,0.0,0.0,0.0,0.0,0.0,0.0,0.0,0.0,0.0,0.0,0.0,0.0,0.0,0.0,0.0,0.0,0.0,0.0,0.0,0.0,0.0,0.0,0.0,0.0,0.0,0.0,0.0,0.0,0.0,0.0,0.0,0.0,0.0,0.0,0.0,0.0,0.0,0.0,0.0,0.0,0.0,0.0,0.0,0.0,0.0,0.0,0.0,0.0,0.0,0.0,0.0,0.0,0.0,0.0,0.0,0.0,0.0,0.0,0.0,0.0,0.0,0.0,0.0,0.0,0.0,0.0,0.0,0.0,0.0,0.0,0.0,0.0,0.0,0.0,0.0,0.0,0.0,0.0,0.0,0.0,0.0,0.0,0.0,0.0,0.0,0.0,0.0,0.0,0.0,0.0,0.0,0.0,0.0,0.0,0.0,0.0,0.0,0.0,0.0,0.0,0.0,0.0,0.0,0.0,0.0,0.0,0.0,0.0,0.0,0.0,0.0,0.0,0.0,0.0,0.0,0.0,0.0,0.0,0.0,0.0,0.0,0.0,0.0,0.0,0.0,0.0,0.0,0.0,0.0,0.0,0.0,0.0,0.0,0.0,0.0,0.0,0.0,0.0,0.0,0.0,0.0,0.0,0.0,0.0,0.0,0.0,0.0,0.0,0.0,0.0,0.0,0.0,0.0,0.0,0.0,0.0,0.0,0.0,0.0,0.0,0.0,0.0,0.0,0.0,0.0,0.0,0.0,0.0,0.0,0.0,0.0,0.0,0.0,0.0,0.0,0.0,0.0,0.0,0.0,0.0,0.0,0.0,0.0,0.0,0.0,0.0,0.0,0.0,0.0,0.0,0.0,0.0,0.0,0.0,0.0,0.0,0.0,0.0,0.0,0.0,0.0,0.0,0.0,0.0,0.0,0.0,0.0,0.0,0.0,0.0,0.0,0.0,0.0,0.0,0.0,0.0,0.0,0.0,0.0,0.0,0.0,0.0,0.0,0.0,0.0,0.0,0.0,0.0,0.0,0.0,0.0,0.0,0.0,0.0,0.0,0.0,0.0,0.0,0.0,0.0,0.0,0.0,0.0,0.0,0.0,0.0,0.0,0.0,0.0,0.0,0.0,0.0,0.0,0.0,0.0,0.0,0.0,0.0,0.0,0.0,0.0,0.0,0.0,0.0,0.0,0.0,0.0,0.0,0.0,0.0,0.0,0.0,0.0,0.0,0.0,0.0,0.0,0.0,0.0,0.0,0.0,0.0,0.0,0.0,0.0,0.0,0.0,0.0,0.0,0.0,0.0,0.0,0.0,0.0,0.0,0.0,0.0,0.0,0.0,0.0,0.0,0.0,0.0,0.0,0.0,0.0,0.0,0.0,0.0,0.0,0.0,0.0,0.0,0.0,0.0,0.0,0.0,0.0,0.0,0.0,0.0,0.0,0.0,0.0,0.0,0.0,-0.2913,0.0,0.0,0.0,0.0,0.0,0.0,0.0,0.0,0.0,0.0,0.0,0.0,0.0,0.0,0.0,0.0,0.0,0.0,0.0,0.0,0.0,0.0,0.0,0.0,0.0,0.0,0.0,0.0,0.0,0.0,0.0,0.0,0.0,0.0,0.0,0.0,0.0,0.0,0.0,0.0,0.0,0.0,0.0,0.0,0.0,0.0,0.0,0.0,0.0,0.0,0.0,0.0,0.0,0.0,0.0,0.0,0.0,0.0,0.0,0.0,0.0,0.0,0.0,0.0,0.0,0.0,0.0,0.0,0.0,0.0,0.0,0.0,0.0,0.0,0.0,0.0,0.0,0.0,0.0,0.0,0.0,0.0,0.0,0.0,0.0,0.0,0.0,0.0,0.0,0.0,0.0,0.0,0.0,0.0,0.0,0.0,0.0,0.0,0.0,0.0,0.0,0.0,0.0,0.0,0.0,0.0,0.0,0.0,0.0,0.0,-0.3136,-0.2987,-0.2925,-0.2863,-0.2841,0.0,0.0,0.0,0.0,0.0,0.0,0.0,0.0,0.0,0.0,0.0,0.0,0.0,0.0,0.0,0.0,0.0,0.0,0.0,0.0,0.0,0.0,0.0,0.0,0.0,0.0,0.0,0.0,0.0,0.0,0.0,0.0,0.0,0.0,0.0,0.0,0.0,0.0,0.0,0.0,0.0,0.0,0.0,0.0,0.0,0.0,0.0,0.0,0.0,0.0,0.0,0.0,0.0,0.0,0.0,0.0,0.0,0.0,0.0,0.0,0.0,0.0,0.0,0.0,0.0,0.0,0.0,0.0,0.0,0.0,0.0,0.0,0.0,0.0,0.0,0.0,0.0,0.0,0.0,0.0,0.0,0.0,0.0,0.0,0.0,0.0,0.0,0.0,0.0,0.0,0.0,0.0,0.0,0.0,0.0,0.0,0.0,0.0,0.0,0.0,0.0,0.0,0.0,0.0,0.0,0.0,0.0,0.0,0.0,0.0,0.0,0.0,-0.286,-0.276,-0.2736,0.0,0.0,0.0,0.0,0.0,0.0,0.0,0.0,0.0,0.0,0.0,0.0,0.0,0.0,0.0,0.0,0.0,0.0,0.0,0.0,0.0,0.0,0.0,0.0,0.0,0.0,0.0,0.0,0.0,0.0,0.0,0.0,0.0,0.0,0.0,0.0,0.0,0.0,0.0,0.0,0.0,0.0,0.0,0.0,0.0,0.0,0.0,0.0,0.0,0.0,0.0,0.0,0.0,0.0,0.0,0.0,0.0,0.0,0.0,0.0,0.0,0.0,0.0,0.0,0.0,0.0,0.0,0.0,0.0,0.0,0.0,0.0,0.0,0.0,0.0,0.0,0.0,0.0,0.0,0.0,0.0,0.0,0.0,0.0,0.0,0.0,0.0,0.0,0.0,0.0,0.0,0.0,0.0,0.0,0.0,0.0,0.0,0.0,0.0,0.0,0.0,0.0,0.0,0.0,0.0,0.0,0.0,0.0,0.0,0.0,-0.2983,-0.2908,-0.278,0.0,-0.2549,0.0,0.0,0.0,0.0,0.0,0.0,0.0,0.0,0.0,0.0,0.0,0.0,0.0,0.0,0.0,0.0,0.0,0.0,0.0,0.0,0.0,0.0,0.0,0.0,0.0,0.0,0.0,0.0,0.0,0.0,0.0,0.0,0.0,0.0,0.0,0.0,0.0,0.0,0.0,0.0,0.0,0.0,0.0,0.0,0.0,0.0,0.0,0.0,0.0,0.0,0.0,0.0,0.0,0.0,0.0,0.0,0.0,0.0,0.0,0.0,0.0,0.0,0.0,0.0,0.0,0.0,0.0,0.0,0.0,0.0,0.0,0.0,0.0,0.0,0.0,0.0,0.0,0.0,0.0,0.0,0.0,0.0,0.0,0.0,0.0,0.0,0.0,0.0,0.0,0.0,0.0,0.0,0.0,0.0,0.0,0.0,0.0,0.0,0.0,0.0,0.0,0.0,0.0,0.0,0.0,0.0,0.0,0.0,0.0,0.0,0.0,-0.2841,-0.2675,-0.2544,0.0,0.0,0.0,0.0,0.0,0.0,0.0,0.0,0.0,0.0,0.0,0.0,0.0,0.0,0.0,0.0,0.0,0.0,0.0,0.0,0.0,0.0,0.0,0.0,0.0,0.0,0.0,0.0,0.0,0.0,0.0,0.0,0.0,0.0,0.0,0.0,0.0,0.0,0.0,0.0,0.0,0.0,0.0,0.0,0.0,0.0,0.0,0.0,0.0,0.0,0.0,0.0,0.0,0.0,0.0,0.0,0.0,0.0,0.0,0.0,0.0,0.0,0.0,0.0,0.0,0.0,0.0,0.0,0.0,0.0,0.0,0.0,0.0,0.0,0.0,0.0,0.0,0.0,0.0,0.0,0.0,0.0,0.0,0.0,0.0,0.0,0.0,0.0,0.0,0.0,0.0,0.0,0.0,0.0,0.0,0.0,0.0,0.0,0.0,0.0,0.0,0.0,0.0,0.0,0.0,0.0,0.0,0.0,0.0,0.0,-0.2923,0.0,-0.2708,-0.2583,-0.2471,-0.2418,0.0,0.0,0.0,0.0,0.0,0.0,0.0,0.0,0.0,0.0,0.0,0.0,0.0,0.0,0.0,0.0,0.0,0.0,0.0,0.0,0.0,0.0,0.0,0.0,0.0,0.0,0.0,0.0,0.0,0.0,0.0,0.0,0.0,0.0,0.0,0.0,0.0,0.0,0.0,0.0,0.0,0.0,0.0,0.0,0.0,0.0,0.0,0.0,0.0,0.0,0.0,0.0,0.0,0.0,0.0,0.0,0.0,0.0,0.0,0.0,0.0,0.0,0.0,0.0,0.0,0.0,0.0,0.0,0.0,0.0,0.0,0.0,0.0,0.0,0.0,0.0,0.0,0.0,0.0,0.0,0.0,0.0,0.0,0.0,0.0,0.0,0.0,0.0,0.0,0.0,0.0,0.0,0.0,0.0,0.0,0.0,0.0,0.0,0.0,0.0,0.0,0.0,0.0,0.0,0.0,0.0,0.0,0.0,0.0,-0.2927,-0.2776,-0.2539,-0.25,-0.25,0.0,0.0,0.0,0.0,0.0,0.0,0.0,0.0,0.0,0.0,0.0,0.0,0.0,0.0,0.0,0.0,0.0,0.0,0.0,0.0,0.0,0.0,0.0,0.0,0.0,0.0,0.0,0.0,0.0,0.0,0.0,0.0,0.0,0.0,0.0,0.0,0.0,0.0,0.0,0.0,0.0,0.0,0.0,0.0,0.0,0.0,0.0,0.0,0.0,0.0,0.0,0.0,0.0,0.0,0.0,0.0,0.0,0.0,0.0,0.0,0.0,0.0,0.0,0.0,0.0,0.0,0.0,0.0,0.0,0.0,0.0,0.0,0.0,0.0,0.0,0.0,0.0,0.0,0.0,0.0,0.0,0.0,0.0,0.0,0.0,0.0,0.0,0.0,0.0,0.0,0.0,0.0,0.0,0.0,0.0,0.0,0.0,0.0,0.0,0.0,0.0,0.0,0.0,0.0,0.0,0.0,0.0,0.0,0.0,-0.3003,-0.2798,-0.2636,-0.2505,-0.2456,-0.2447,0.0,0.0,0.0,0.0,0.0,0.0,0.0,0.0,0.0,0.0,0.0,0.0,0.0,0.0,0.0,0.0,0.0,0.0,0.0,0.0,0.0,0.0,0.0,0.0,0.0,0.0,0.0,0.0,0.0,0.0,0.0,0.0,0.0,0.0,0.0,0.0,0.0,0.0,0.0,0.0,0.0,0.0,0.0,0.0,0.0,0.0,0.0,0.0,0.0,0.0,0.0,0.0,0.0,0.0,0.0,0.0,0.0,0.0,0.0,0.0,0.0,0.0,0.0,0.0,0.0,0.0,0.0,0.0,0.0,0.0,0.0,0.0,0.0,0.0,0.0,0.0,0.0,0.0,0.0,0.0,0.0,0.0,0.0,0.0,0.0,0.0,0.0,0.0,0.0,0.0,0.0,0.0,0.0,0.0,0.0,0.0,0.0,0.0,0.0,0.0,0.0,0.0,0.0,0.0,0.0,0.0,0.0,0.0,0.0,-0.2911,0.0,-0.253,0.0,-0.2447,-0.2413,0.0,0.0,0.0,0.0,0.0,0.0,0.0,0.0,0.0,0.0,0.0,0.0,0.0,0.0,0.0,0.0,0.0,0.0,0.0,0.0,0.0,0.0,0.0,0.0,0.0,0.0,0.0,0.0,0.0,0.0,0.0,0.0,0.0,0.0,0.0,0.0,0.0,0.0,0.0,0.0,0.0,0.0,0.0,0.0,0.0,0.0,0.0,0.0,0.0,0.0,0.0,0.0,0.0,0.0,0.0,0.0,0.0,0.0,0.0,0.0,0.0,0.0,0.0,0.0,0.0,0.0,0.0,0.0,0.0,0.0,0.0,0.0,0.0,0.0,0.0,0.0,0.0,0.0,0.0,0.0,0.0,0.0,0.0,0.0,0.0,0.0,0.0,0.0,0.0,0.0,0.0,0.0,0.0,0.0,0.0,0.0,0.0,0.0,0.0,0.0,0.0,0.0,0.0,0.0,0.0,0.0,0.0,0.0,0.0,-0.2699,-0.2568,-0.2519,-0.25,-0.2432,-0.2398,0.0,0.0,0.0,0.0,0.0,0.0,0.0,0.0,0.0,0.0,0.0,0.0,0.0,0.0,0.0,0.0,0.0,0.0,0.0,0.0,0.0,0.0,0.0,0.0,0.0,0.0,0.0,0.0,0.0,0.0,0.0,0.0,0.0,0.0,0.0,0.0,0.0,0.0,0.0,0.0,0.0,0.0,0.0,0.0,0.0,0.0,0.0,0.0,0.0,0.0,0.0,0.0,0.0,0.0,0.0,0.0,0.0,0.0,0.0,0.0,0.0,0.0,0.0,0.0,0.0,0.0,0.0,0.0,0.0,0.0,0.0,0.0,0.0,0.0,0.0,0.0,0.0,0.0,0.0,0.0,0.0,0.0,0.0,0.0,0.0,0.0,0.0,0.0,0.0,0.0,0.0,0.0,0.0,0.0,0.0,0.0,0.0,0.0,0.0,0.0,0.0,0.0,0.0,0.0,0.0,0.0,0.0,0.0,0.0,-0.2641,-0.2727,-0.2642,-0.2389,-0.2337,-0.2292,0.0,0.0,0.0,0.0,0.0,0.0,0.0,0.0,0.0,0.0,0.0,0.0,0.0,0.0,0.0,0.0,0.0,0.0,0.0,0.0,0.0,0.0,0.0,0.0,0.0,0.0,0.0,0.0,0.0,0.0,0.0,0.0,0.0,0.0,0.0,0.0,0.0,0.0,0.0,0.0,0.0,0.0,0.0,0.0,0.0,0.0,0.0,0.0,0.0,0.0,0.0,0.0,0.0,0.0,0.0,0.0,0.0,0.0,0.0,0.0,0.0,0.0,0.0,0.0,0.0,0.0,0.0,0.0,0.0,0.0,0.0,0.0,0.0,0.0,0.0,0.0,0.0,0.0,0.0,0.0,0.0,0.0,0.0,0.0,0.0,0.0,0.0,0.0,0.0,0.0,0.0,0.0,0.0,0.0,0.0,0.0,0.0,0.0,0.0,0.0,0.0,0.0,0.0,0.0,0.0,0.0,0.0,0.0,0.0,-0.2539,-0.2652,-0.2582,-0.2296,-0.2322,-0.2292,-0.2189,0.0,0.0,0.0,0.0,0.0,0.0,0.0,0.0,0.0,0.0,0.0,0.0,0.0,0.0,0.0,0.0,0.0,0.0,0.0,0.0,0.0,0.0,0.0,0.0,0.0,0.0,0.0,0.0,0.0,0.0,0.0,0.0,0.0,0.0,0.0,0.0,0.0,0.0,0.0,0.0,0.0,0.0,0.0,0.0,0.0,0.0,0.0,0.0,0.0,0.0,0.0,0.0,0.0,0.0,0.0,0.0,0.0,0.0,0.0,0.0,0.0,0.0,0.0,0.0,0.0,0.0,0.0,0.0,0.0,0.0,0.0,0.0,0.0,0.0,0.0,0.0,0.0,0.0,0.0,0.0,0.0,0.0,0.0,0.0,0.0,0.0,0.0,0.0,0.0,0.0,0.0,0.0,0.0,0.0,0.0,0.0,0.0,0.0,0.0,0.0,0.0,0.0,0.0,0.0,0.0,0.0,0.0,0.0,-0.2422,-0.2413,-0.2353,-0.2296,-0.2358,-0.2343,0.0,0.0,0.0,0.0,0.0,0.0,0.0,0.0,0.0,0.0,0.0,0.0,0.0,0.0,0.0,0.0,0.0,0.0,0.0,0.0,0.0,0.0,0.0,0.0,0.0,0.0,0.0,0.0,0.0,0.0,0.0,0.0,0.0,0.0,0.0,0.0,0.0,0.0,0.0,0.0,0.0,0.0,0.0,0.0,0.0,0.0,0.0,0.0,0.0,0.0,0.0,0.0,0.0,0.0,0.0,0.0,0.0,0.0,0.0,0.0,0.0,0.0,0.0,0.0,0.0,0.0,0.0,0.0,0.0,0.0,0.0,0.0,0.0,0.0,0.0,0.0,0.0,0.0,0.0,0.0,0.0,0.0,0.0,0.0,0.0,0.0,0.0,0.0,0.0,0.0,0.0,0.0,0.0,0.0,0.0,0.0,0.0,0.0,0.0,0.0,0.0,0.0,0.0,0.0,0.0,0.0,0.0,0.0,0.0,-0.2481,-0.2423,-0.2368,-0.2292,-0.2216,-0.2176,0.0,0.0,0.0,0.0,0.0,0.0,0.0,0.0,0.0,0.0,0.0,0.0,0.0,0.0,0.0,0.0,0.0,0.0,0.0,0.0,0.0,0.0,0.0,0.0,0.0,0.0,0.0,0.0,0.0,0.0,0.0,0.0,0.0,0.0,0.0,0.0,0.0,0.0,0.0,0.0,0.0,0.0,0.0,0.0,0.0,0.0,0.0,0.0,0.0,0.0,0.0,0.0,0.0,0.0,0.0,0.0,0.0,0.0,0.0,0.0,0.0,0.0,0.0,0.0,0.0,0.0,0.0,0.0,0.0,0.0,0.0,0.0,0.0,0.0,0.0,0.0,0.0,0.0,0.0,0.0,0.0,0.0,0.0,0.0,0.0,0.0,0.0,0.0,0.0,0.0,0.0,0.0,0.0,0.0,0.0,0.0,0.0,0.0,0.0,0.0,0.0,0.0,0.0,0.0,0.0,0.0,0.0,0.0,-0.2708,-0.296,-0.2587,-0.2459,-0.2602,-0.2514,-0.2344,0.0,0.0,0.0,0.0,0.0,0.0,0.0,0.0,0.0,0.0,0.0,0.0,0.0,0.0,0.0,0.0,0.0,0.0,0.0,0.0,0.0,0.0,0.0,0.0,0.0,0.0,0.0,0.0,0.0,0.0,0.0,0.0,0.0,0.0,0.0,0.0,0.0,0.0,0.0,0.0,0.0,0.0,0.0,0.0,0.0,0.0,0.0,0.0,0.0,0.0,0.0,0.0,0.0,0.0,0.0,0.0,0.0,0.0,0.0,0.0,0.0,0.0,0.0,0.0,0.0,0.0,0.0,0.0,0.0,0.0,0.0,0.0,0.0,0.0,0.0,0.0,0.0,0.0,0.0,0.0,0.0,0.0,0.0,0.0,0.0,0.0,0.0,0.0,0.0,0.0,0.0,0.0,0.0,0.0,0.0,0.0,0.0,0.0,0.0,0.0,0.0,0.0,0.0,0.0,0.0,0.0,0.0,0.0,-0.2893,-0.3521,-0.2822,-0.2635,-0.2968,-0.2937,-0.2672,0.0,0.0,0.0,0.0,0.0,0.0,0.0,0.0,0.0,0.0,0.0,0.0,0.0,0.0,0.0,0.0,0.0,0.0,0.0,0.0,0.0,0.0,0.0,0.0,0.0,0.0,0.0,0.0,0.0,0.0,0.0,0.0,0.0,0.0,0.0,0.0,0.0,0.0,0.0,0.0,0.0,0.0,0.0,0.0,0.0,0.0,0.0,0.0,0.0,0.0,0.0,0.0,0.0,0.0,0.0,0.0,0.0,0.0,0.0,0.0,0.0,0.0,0.0,0.0,0.0,0.0,0.0,0.0,0.0,0.0,0.0,0.0,0.0,0.0,0.0,0.0,0.0,0.0,0.0,0.0,0.0,0.0,0.0,0.0,0.0,0.0,0.0,0.0,0.0,0.0,0.0,0.0,0.0,0.0,0.0,0.0,0.0,0.0,0.0,0.0,0.0,0.0,0.0,0.0,0.0,0.0,0.0,0.0,-0.2765,-0.312,-0.2962,-0.2916,-0.2995,-0.2599,-0.2339,0.0,0.0,0.0,0.0,0.0,0.0,0.0,0.0,0.0,0.0,0.0,0.0,0.0,0.0,0.0,0.0,0.0,0.0,0.0,0.0,0.0,0.0,0.0,0.0,0.0,0.0,0.0,0.0,0.0,0.0,0.0,0.0,0.0,0.0,0.0,0.0,0.0,0.0,0.0,0.0,0.0,0.0,0.0,0.0,0.0,0.0,0.0,0.0,0.0396,0.0,0.0,0.0,0.0,0.0,0.0,0.0,0.0,0.0,0.0,0.0,0.0,0.0,0.0,0.0,0.0,0.0,0.0,0.0,0.0,0.0,0.0,0.0,0.0,0.0,0.0,0.0,0.0,0.0,0.0,0.0,0.0,0.0,0.0,0.0,0.0,0.0,0.0,0.0,0.0,0.0,0.0,0.0,0.0,0.0,0.0,0.0,0.0,0.0,0.0,0.0,0.0,0.0,0.0,0.0,0.0,0.0,0.0,0.0,-0.2884,-0.3532,-0.319,-0.3079,-0.3215,-0.2738,-0.2383,0.0,0.0,0.0,0.0,0.0,0.0,0.0,0.0,0.0,0.0,0.0,0.0,0.0,0.0,0.0,0.0,0.0,0.0,0.0,0.0,0.0,0.0,0.0,0.0,0.0,0.0,0.0,0.0,0.0,0.0,0.0,0.0,0.0,0.0,0.0,0.0,0.0,0.0,0.0,0.0,0.0,0.0,0.0,0.0,0.0,0.0,0.0,0.0,0.0,0.0,0.0,0.0,0.0,0.0,0.0,0.0,0.0,0.0,0.0,0.0,0.0,0.0,0.0,0.0,0.0,0.0,0.0,0.0,0.0,0.0,0.0,0.0,0.0,0.0,0.0,0.0,0.0,0.0,0.0,0.0,0.0,0.0,0.0,0.0,0.0,0.0,0.0,0.0,0.0,0.0,0.0,0.0,0.0,0.0,0.0,0.0,0.0,0.0,0.0,0.0,0.0,0.0,0.0,0.0,0.0,0.0,0.0,-0.2757,-0.3072,-0.4035,-0.3499,-0.3312,-0.3544,-0.3161,-0.2637,0.0,0.0,0.0,0.0,0.0,0.0,0.0,0.0,0.0,0.0,0.0,0.0,0.0,0.0,0.0,0.0,0.0,0.0,0.0,0.0,0.0,0.0,0.0,0.0,0.0,0.0,0.0,0.0,0.0,0.0,0.0,0.0,0.0,0.0,0.0,0.0,0.0,0.0,0.0,0.0343,0.0372,0.0,0.0,0.0,0.0,0.0,0.0,0.0,0.0,0.0487,0.0,0.0,0.0,0.0,0.0,0.0,0.0,0.0,0.0,0.0,0.0,0.0,0.0,0.0,0.0,0.0,0.0,0.0,0.0,0.0,0.0,0.0,0.0,0.0,0.0,0.0,0.0,0.0,0.0,0.0,0.0,0.0,0.0,0.0,0.0,0.0,0.0,0.0,0.0,0.0,0.0,0.0,0.0,0.0,0.0,0.0,0.0,0.0,0.0,0.0,0.0,0.0,0.0,0.0,0.0,0.0,-0.2619,-0.2816,-0.3169,-0.3688,-0.3906,-0.3952,-0.3836,-0.3597,-0.3084,-0.2292,0.0,0.0,0.0,0.0,0.0,0.0,0.0,0.0,0.0,0.0,0.0,0.0,0.0,0.0,0.0,0.0,0.0,0.0,0.0,0.0,0.0,0.0,0.0,0.0,0.0,0.0,0.0,0.0,0.0,0.0,0.0,0.0,0.0,0.0,0.0,0.0,0.0,0.0,0.0,0.025,0.028,0.0,0.0,0.0,0.0,0.0,0.0,0.0,0.0,0.0518,0.0,0.0,0.0,0.0,0.0,0.0,0.0,0.0,0.0,0.0,0.0,0.0,0.0,0.0,0.0,0.0,0.0,0.0,0.0,0.0,0.0,0.0,0.0,0.0,0.0,0.0,0.0,0.0,0.0,0.0,0.0,0.0,0.0,0.0,0.0,0.0,0.0,0.0,0.0,0.0,0.0,0.0,0.0,0.0,0.0,0.0,0.0,0.0,0.0,0.0,0.0,0.0,0.0,0.0,0.0,-0.2578,-0.2855,-0.3205,-0.3596,-0.3998,-0.4139,-0.3991,-0.3624,-0.3076,0.0,0.0,0.0,0.0,0.0,0.0,0.0,0.0,0.0,0.0,0.0,0.0,0.0,0.0,0.0,0.0,0.0,0.0,0.0,0.0,0.0,0.0,0.0,0.0,0.0,0.0,0.0,0.0,0.0,0.0,0.0,0.0,0.0,0.0,0.0,0.0,0.0,0.0,0.0,0.0,0.0214,0.0195,0.0063,0.0,0.0,0.0,0.0,0.0,0.0,0.0692,0.0646,0.0,0.0,0.0,0.0,0.0,0.0,0.0,0.0,0.0,0.0,0.0,0.0,0.0,0.0,0.0,0.0,0.0,0.0,0.0,0.0,0.0,0.0,0.0,0.0,0.0,0.0,0.0,0.0,0.0,0.0,0.0,0.0,0.0,0.0,0.0,0.0,0.0,0.0,0.0,0.0,0.0,0.0,0.0,0.0,0.0,0.0,0.0,0.0,0.0,0.0,0.0,0.0,0.0,0.0,0.0,-0.2665,-0.3006,-0.3332,-0.3626,-0.4114,-0.4319,-0.4176,-0.3683,-0.313,0.0,0.0,0.0,0.0,0.0,0.0,0.0,0.0,0.0,0.0,0.0,0.0,0.0,0.0,0.0,0.0,0.0,0.0,0.0,0.0,0.0,0.0,0.0,0.0,0.0,0.0,0.0,0.0,0.0,0.0,0.0,0.0,0.0,0.0,0.0,0.0,0.0,0.0,0.0,0.0,0.0,0.0151,0.0061,0.0185,0.0,0.0,0.0,0.0,0.0933,0.0799,0.0,0.0,0.0,0.0,0.0,0.0,0.0,0.0,0.0,0.0,0.0,0.0,0.0,0.0,0.0,0.0,0.0,0.0,0.0,0.0,0.0,0.0,0.0,0.0,0.0,0.0,0.0,0.0,0.0,0.0,0.0,0.0,0.0,0.0,0.0,0.0,0.0,0.0,0.0,0.0,0.0,0.0,0.0,0.0,0.0,0.0,0.0,0.0,0.0,0.0,0.0,0.0,0.0,0.0,0.0,0.0,-0.2801,-0.3514,-0.382,-0.3733,-0.4532,-0.4827,-0.4466,-0.4266,-0.376,0.0,0.0,0.0,0.0,0.0,0.0,0.0,0.0,0.0,0.0,0.0,0.0,0.0,0.0,0.0,0.0,0.0,0.0,0.0,0.0,0.0,0.0,0.0,0.0,0.0,0.0,0.0,0.0,0.0,0.0,0.0,0.0,0.0,0.0,0.0,0.0,0.0,0.0,0.0,0.0,0.0,0.0121,0.0171,0.0243,0.0271,0.0,0.0,0.0,0.0494,0.0555,0.0,0.0,0.0,0.0,0.0,0.0,0.0,0.0,0.0,0.0,0.0,0.0,0.0,0.0,0.0,0.0,0.0,0.0,0.0,0.0,0.0,0.0,0.0,0.0,0.0,0.0,0.0,0.0,0.0,0.0,0.0,0.0,0.0,0.0,0.0,0.0,0.0,0.0,0.0,0.0,0.0,0.0,0.0,0.0,0.0,0.0,0.0,0.0,0.0,0.0,0.0,0.0,0.0,0.0,0.0,-0.2863,-0.2874,-0.3527,-0.3843,-0.3787,-0.4518,-0.4742,-0.4346,-0.3982,-0.3467,0.0,0.0,0.0,0.0,0.0,0.0,0.0,0.0,0.0,0.0,0.0,0.0,0.0,0.0,0.0,0.0,0.0,0.0,0.0,0.0,0.0,0.0,0.0,0.0,0.0,0.0,0.0,0.0,0.0,0.0,0.0,0.0,0.0,0.0,0.0,0.0,0.0,0.0,0.0,0.0,0.0,0.0,-0.013,0.0145,0.0,0.0,0.0,0.0583,0.0626,0.0,0.0,0.0,0.0,0.0,0.0,0.0,0.0,0.0,0.0,0.0,0.0,0.0,0.0,0.0,0.0,0.0,0.0,0.0,0.0,0.0,0.0,0.0,0.0,0.0,0.0,0.0,0.0,0.0,0.0,0.0,0.0,0.0,0.0,0.0,0.0,0.0,0.0,0.0,0.0,0.0,0.0,0.0,0.0,0.0,0.0,0.0,0.0,0.0,0.0,0.0,0.0,0.0,0.0,0.0,0.0,0.0,-0.294,-0.3591,-0.3927,-0.3889,-0.4572,-0.4716,-0.4278,-0.3794,0.0,0.0,0.0,0.0,0.0,0.0,0.0,0.0,0.0,0.0,0.0,0.0,0.0,0.0,0.0,0.0,0.0,0.0,0.0,0.0,0.0,0.0,0.0,0.0,0.0,0.0,0.0,-0.0052,0.0,0.0,0.0,0.0,0.0,0.0,0.0,0.0,0.0,0.0,0.0,0.0,0.0,0.0,-0.0141,-0.0286,0.0062,0.0327,0.0,0.0,0.048,0.0554,0.0474,0.0487,0.0,0.0,0.0,0.0,0.0,0.0,0.0,0.0,0.0,0.0,0.0,0.0,0.0,0.0,0.0,0.0,0.0,0.0,0.0,0.0,0.0,0.0,0.0,0.0,0.0,0.0,0.0,0.0,0.0,0.0,0.0,0.0,0.0,0.0,0.0,0.0,0.0,0.0,0.0,0.0,0.0,0.0,0.0,0.0,0.0,0.0,0.0,0.0,0.0,0.0,0.0,0.0,0.0,0.0,0.0,-0.3026,-0.39,-0.4262,-0.4106,-0.4863,-0.5015,-0.4504,-0.4129,-0.3584,0.0,0.0,0.0,0.0,0.0,0.0,0.0,0.0,0.0,0.0,0.0,0.0,0.0,0.0,0.0,0.0,0.0,0.0,0.0,0.0,0.0,0.0,0.0,0.0,0.0,0.0,0.0,0.0,0.0,0.0,0.0,0.0,0.0,0.0,0.0,0.0,0.0,0.0,0.0,0.0,0.0,-0.0088,-0.0025,0.006,0.0236,0.0,0.0,0.0024,-0.0034,0.0222,0.0402,0.0434,0.0,0.0,0.0,0.0,0.0,0.0,0.0,0.0,0.0,0.0,0.0,0.0,0.0,0.0,0.0,0.0,0.0,0.0,0.0,0.0,0.0,0.0,0.0,0.0,0.0,0.0,0.0,0.0,0.0,0.0,0.0,0.0,0.0,0.0,0.0,0.0,0.0,0.0,0.0,0.0,0.0,0.0,0.0,0.0,0.0,0.0,0.0,0.0,0.0,0.0,0.0,0.0,0.0,-0.3022,-0.307,-0.3855,-0.423,-0.4191,-0.4827,-0.4969,-0.4503,-0.4019,-0.3473,0.0,0.0,0.0,0.0,0.0,0.0,0.0,0.0,0.0,0.0,0.0,0.0,0.0,0.0,0.0,0.0,0.0,0.0,0.0,0.0,0.0,0.0,0.0,0.0,0.0,0.0,0.0,0.0,-0.038,-0.0423,-0.0395,0.0,0.0,0.0,0.0,0.0,0.0,0.0,0.0,0.0,0.0,-0.0263,-0.025,-0.0045,0.0,0.0,0.0026,0.0,-0.0142,-0.0011,0.0175,0.0475,0.065,0.0,0.0,0.0,0.0,0.0,0.0,0.0,0.0,0.0,0.0,0.0,0.0,0.0,0.0,0.0,0.0,0.0,0.0,0.0,0.0,0.0,0.0,0.0,0.0,0.0,0.0,0.0,0.0,0.0,0.0,0.0,0.0,0.0,0.0,0.0,0.0,0.0,0.0,0.0,0.0,0.0,0.0,0.0,0.0,0.0,0.0,0.0,0.0,0.0,0.0,0.0,0.0,-0.3155,-0.3312,-0.3952,-0.4351,-0.4511,-0.4986,-0.5033,-0.4578,-0.398,-0.3427,0.0,0.0,0.0,0.0,0.0,0.0,0.0,0.0,0.0,0.0,0.0,0.0,0.0,0.0,0.0,0.0,0.0,0.0,0.0,0.0,0.0,0.0,0.0,0.0,0.0,0.0,0.0,0.0,-0.0518,-0.049,-0.0496,0.0,0.0,0.0,0.0,0.0,0.0,0.0,0.0,0.0,0.0,-0.0483,-0.0418,-0.02,-0.0146,-0.0398,-0.0234,-0.0108,-0.0251,-0.016,0.0022,0.0334,0.0,0.0,0.0,0.0,0.0,0.0,0.0,0.0,0.0,0.0,0.0,0.0,0.0,0.0,0.0,0.0,0.0,0.0,0.0,0.0,0.0,0.0,0.0,0.0,0.0,0.0,0.0,0.0,0.0,0.0,-0.3199,0.0,0.0,0.0,0.0,0.0,0.0,0.0,0.0,0.0,0.0,0.0,0.0,0.0,0.0,0.0,0.0,0.0,0.0,0.0,0.0,0.0,0.0,0.0,-0.3782,-0.4237,-0.4711,-0.5156,-0.5447,-0.5325,-0.4807,-0.4159,-0.352,-0.2908,0.0,0.0,0.0,0.0,0.0,0.0,0.0,0.0,0.0,0.0,0.0,0.0,0.0,0.0,0.0,0.0,0.0,0.0,0.0,0.0,0.0,0.0,0.0,0.0,0.0,0.0,-0.0682,-0.0587,-0.0559,0.0,0.0,0.0,0.0,0.0,0.0,0.0,0.0,0.0,0.0,-0.0797,-0.0695,-0.0445,-0.0408,-0.0428,-0.0503,-0.0498,-0.0466,-0.0411,-0.0237,-0.0093,0.0,0.0,0.0,0.0,0.0,0.0,0.0,0.0,0.0,0.0,0.0,0.0,0.0,0.0,0.0,0.0,0.0,0.0,0.0,0.0,0.0,0.0,0.0,0.0,0.0,0.0,0.0,-0.4258,-0.3829,0.0,0.0,0.0,0.0,0.0,0.0,0.0,0.0,0.0,0.0,0.0,-0.478,-0.519,0.0,0.0,0.0,0.0,0.0,0.0,0.0,0.0,0.0,0.0,0.0,0.0,-0.342,-0.3862,-0.4278,-0.4736,-0.5249,-0.5538,-0.5575,-0.539,-0.4798,-0.4034,-0.3134,0.0,0.0,0.0,0.0,0.0,0.0,0.0,0.0,0.0,0.0,0.0,0.0,0.0,0.0,0.0,0.0,0.0,0.0,0.0,0.0,0.0,0.0,0.0,0.0,0.0,-0.0867,0.0,0.0,0.0,0.0,0.0,0.0,0.0,0.0,0.0,0.0,0.0,-0.1052,-0.1128,-0.114,-0.1075,-0.0879,-0.1027,-0.1074,0.0,0.0,0.0,0.0,0.0,0.0,0.0,0.0,0.0,0.0,0.0,0.0,0.0,0.0,0.1103,0.0791,0.0713,0.0717,0.0735,0.0,0.0,0.0,0.0,0.0,0.0,0.0,0.0,0.0,0.0,0.0,0.0,0.0,0.0,0.0,0.0,-0.4578,0.0,0.0,0.0,0.0,0.0,0.0,0.0,0.0,-0.5736,-0.5682,-0.5349,-0.5784,-0.5751,0.0,-0.5203,-0.5047,0.0,0.0,0.0,0.0,0.0,0.0,0.0,0.0,-0.3979,-0.4377,-0.4636,-0.5028,-0.5517,-0.5725,-0.5782,-0.5678,-0.5095,-0.4281,-0.3236,-0.2796,-0.247,0.0,0.0,0.0,0.0,0.0,0.0,0.0,0.0,0.0,0.0,0.0,0.0,0.0,0.0,0.0,0.0,0.0,0.0,0.0,0.0,0.0,0.0,0.0,-0.1026,0.0,0.0,0.0,0.0,0.0,0.0,0.0,0.0,0.0,-0.1333,-0.1418,-0.1472,-0.1559,-0.1543,-0.1503,-0.1489,0.0,0.0,0.0,0.0,0.0,0.0,0.0,-0.0412,-0.0267,-0.0192,-0.0061,0.0279,0.0352,0.0457,0.0658,0.0,0.0,0.0651,0.062,0.0585,0.0596,0.059,0.0576,0.0601,0.0735,0.0862,0.0,0.0,0.0,0.0,0.0,0.0,0.0,0.0,-0.5253,-0.5259,0.0,-0.5213,0.0,0.0,0.0,0.0,0.0,0.0,0.0,0.0,-0.586,-0.5828,-0.5898,-0.5967,-0.6001,-0.6074,-0.6453,-0.6402,-0.5899,-0.4302,0.0,0.0,0.0,0.0,0.0,0.0,-0.5047,-0.5274,-0.5289,-0.5514,-0.5963,-0.6005,-0.5893,-0.5714,-0.5074,-0.4273,-0.3306,-0.3171,-0.2877,-0.2349,-0.2309,0.0,0.0,0.0,0.0,0.0,0.0,0.0,0.0,0.0,0.0,0.0,0.0,0.0,0.0,0.0,0.0,0.0,0.0,0.0,0.0,-0.1161,0.0,0.0,0.0,0.0,0.0,0.0,0.0,0.0,0.0,0.0,-0.1803,-0.1862,-0.1973,-0.2105,0.0,0.0,0.0,0.0,-0.2234,-0.1669,-0.154,-0.1323,-0.0718,-0.0635,-0.0588,-0.051,0.0,0.0,0.0095,-0.0137,-0.018,0.0366,0.0169,0.0142,0.0897,0.0897,0.0845,0.0907,0.0858,0.0874,0.094,0.1011,0.1176,-0.6558,0.0,0.0,0.0,0.0,-0.6422,-0.6367,-0.6282,-0.6378,-0.6118,-0.5635,-0.5734,0.0,0.0,0.0,0.0,0.0,0.0,-0.6803,-0.7174,-0.7578,-0.7781,-0.7768,-0.7373,-0.7196,-0.7201,-0.6526,-0.6129,-0.5971,-0.5116,-0.478,-0.4932,0.0,0.0,0.0,0.0,-0.5181,-0.541,-0.545,-0.5629,-0.6007,-0.602,-0.5975,-0.5893,-0.5309,-0.4758,-0.4214,-0.3821,-0.3308,-0.2677,-0.2435,0.0,0.0,0.0,0.0,0.0,0.0,0.0,0.0,0.0,0.0,0.0,0.0,0.0,0.0,0.0,0.0,0.0,0.0,0.0,-0.1309,-0.1254,-0.1247,0.0,0.0,0.0,0.0,0.0,0.0,0.0,0.0,0.0,-0.2019,-0.22,-0.2456,0.0,0.0,-0.2687,-0.2884,-0.3148,-0.322,-0.29,0.0,0.0,0.0,-0.1032,-0.0918,-0.0621,-0.0563,-0.0518,-0.0404,-0.0403,-0.0334,-0.0163,-0.0196,-0.0133,0.0157,0.0256,0.0263,0.0275,0.0269,0.0261,0.0294,0.0449,0.0587,-0.7567,-0.7537,-0.7096,-0.6894,-0.6894,-0.6894,-0.6849,-0.6795,-0.7084,-0.6975,-0.657,-0.6881,-0.6853,-0.655,-0.655,0.0,0.0,0.0,-0.774,-0.806,-0.8435,-0.8607,-0.8568,-0.8229,-0.8057,-0.8021,-0.7366,-0.704,-0.7019,-0.6469,-0.6204,-0.617,0.0,0.0,-0.5735,-0.569,-0.5712,-0.5823,-0.5737,-0.5794,-0.5988,-0.6018,-0.6009,-0.5984,-0.5636,-0.5229,-0.4778,-0.4423,-0.3828,-0.2963,-0.2523,-0.2287,0.0,0.0,0.0,0.0,0.0,0.0,0.0,0.0,0.0,0.0,0.0,-0.147,0.0,0.0,0.0,0.0,-0.1541,-0.1695,-0.1714,-0.159,0.0,0.0,0.0,0.0,0.0,0.0,0.0,-0.1847,-0.2099,-0.2295,-0.24,-0.2553,-0.2734,-0.2931,-0.3103,-0.3257,-0.3349,0.0,-0.3642,-0.349,-0.3055,-0.2449,-0.1654,-0.1492,-0.1345,-0.0941,-0.0723,-0.059,-0.0568,-0.0496,-0.0484,-0.0484,-0.043,-0.0326,-0.0168,-0.0104,-0.0049,0.0,0.0,0.0,0.0,0.0126,0.0225,-0.8607,-0.8513,-0.7458,-0.7043,-0.703,-0.6999,-0.6956,-0.6991,-0.7431,-0.764,-0.767,-0.8256,-0.8563,-0.8594,-0.8607,0.0,0.0,-0.8641,-0.8644,-0.8618,-0.8672,-0.8724,-0.8724,-0.8696,-0.867,-0.8657,-0.8631,-0.8607,-0.8542,-0.8008,-0.7774,-0.7748,-0.6727,-0.638,-0.6693,-0.6582,-0.6464,-0.6343,-0.6135,-0.6034,-0.6018,-0.6018,-0.6018,-0.6018,-0.6005,-0.568,-0.5027,-0.4931,-0.435,-0.3159,-0.2653,-0.2372,-0.2306,0.0,0.0,0.0,0.0,0.0,0.0,0.0,0.0,0.0,0.0,0.0,0.0,0.0,0.0,0.0,-0.1855,0.0,-0.2246,-0.212,0.0,0.0,0.0,-0.1827,-0.1838,-0.1888,-0.1902,-0.1867,0.0,0.0,0.0,0.0,-0.2878,-0.2731,-0.326,-0.3633,-0.3598,-0.3643,-0.3644,-0.3559,-0.3219,-0.2748,-0.2168,-0.1967,-0.175,-0.1359,-0.0951,-0.0663,-0.0547,-0.0552,-0.0605,-0.0606,-0.053,-0.0452,-0.0256,-0.0235,-0.0178,-0.0059,0.0,0.0,0.0,0.0059,0.0138,-0.8607,-0.8581,-0.8302,-0.822,-0.8168,-0.7711,-0.7506,-0.7502,-0.7218,-0.7079,-0.7127,-0.7662,-0.8164,-0.8607,-0.8607,-0.8347,-0.7956,-0.8861,-0.9044,-0.8683,-0.948,-0.9907,-0.9869,-0.9463,-0.9277,-0.9251,-0.8811,-0.8607,-0.8605,-0.8448,-0.8383,-0.8373,-0.8122,-0.7601,-0.6884,-0.6816,-0.674,-0.6608,-0.646,-0.6263,-0.6027,-0.6018,-0.6018,-0.6018,-0.6009,-0.5666,-0.4964,-0.4907,-0.4344,-0.3175,-0.3123,-0.2887,-0.2327,-0.2287,0.0,0.0,0.0,0.0,0.0,0.0,0.0,0.0,0.0,-0.1712,-0.1733,0.0,-0.1577,0.0,-0.2051,-0.2569,-0.2796,-0.2459,0.0,0.0,-0.214,-0.1985,-0.221,-0.2091,-0.2082,-0.2361,-0.2544,-0.2716,-0.2878,-0.3024,-0.3062,-0.2878,-0.3123,-0.3406,-0.3632,-0.3458,-0.3309,-0.3309,-0.3328,-0.3173,-0.2701,-0.232,-0.1994,-0.152,-0.1265,-0.101,-0.0647,-0.0579,-0.0609,-0.0609,-0.0589,-0.0538,-0.0433,-0.0435,-0.0357,-0.0194,-0.0083,0.0,0.0,0.0101,0.0186,-0.9336,-0.9349,-0.9374,-0.9361,-0.9296,-0.8461,-0.8086,-0.8109,-0.8073,-0.8053,-0.8093,-0.8615,-0.9048,-0.9372,-0.9349,-0.9178,-0.8907,-0.9542,-0.9685,-0.94,-1.0013,-1.0312,-1.0287,-0.9999,-0.9854,-0.9854,-0.9529,-0.9362,-0.9335,-0.9122,-0.9004,-0.8994,-0.8722,-0.8276,-0.7694,-0.7599,-0.7483,-0.7325,-0.6863,-0.6418,-0.6029,-0.6018,-0.6018,-0.6018,-0.6018,-0.5801,-0.5406,-0.5349,-0.4894,-0.3968,-0.3792,-0.3279,-0.2382,-0.293,-0.3134,0.0,0.0,0.0,0.0,0.0,0.0,0.0,0.0,0.0,0.0,0.0,-0.211,0.0,-0.2758,0.0,-0.3093,-0.2852,-0.2795,-0.3027,-0.2706,-0.2552,-0.2703,-0.2449,-0.2292,-0.237,-0.2515,-0.2728,-0.2988,-0.3127,-0.3159,-0.305,-0.3127,-0.3264,-0.3422,-0.3305,-0.3244,-0.338,-0.3472,-0.344,-0.3217,-0.2808,-0.2454,-0.2219,-0.1725,-0.1188,-0.0752,-0.0648,-0.0648,-0.0648,-0.0627,-0.0611,-0.0518,-0.0499,-0.0438,-0.0332,-0.0173,-0.0063,0.0,0.0064,0.013,-1.0312,-1.0312,-1.0312,-1.0312,-1.0234,-0.9243,-0.8787,-0.8746,-0.9174,-0.9432,-0.9524,-0.9986,-1.0234,-1.0312,-1.0312,-1.0273,-1.0208,-1.0286,-1.0312,-1.0312,-1.0312,-1.0326,-1.0417,-1.0339,-1.0312,-1.0312,-1.0312,-1.0312,-1.0286,-0.9815,-0.9603,-0.9577,-0.9074,-0.8826,-0.8826,-0.8714,-0.8439,-0.7989,-0.7337,-0.6728,-0.6149,-0.6135,-0.6137,-0.6146,-0.6041,-0.5968,-0.5916,-0.585,-0.55,-0.4851,-0.4363,-0.3624,-0.2625,-0.3874,-0.4326,0.0,-0.3779,0.0,0.0,0.0,0.0,0.0,0.0,0.0,0.0,-0.2744,-0.2757,-0.309,-0.3583,-0.3731,-0.3313,-0.3276,-0.3362,-0.3591,-0.3387,-0.322,-0.3202,-0.2929,-0.2622,-0.2323,-0.2519,-0.2874,-0.3275,-0.3286,-0.3257,-0.3216,-0.3183,-0.3236,-0.3248,-0.3273,-0.3349,-0.366,-0.363,-0.3628,-0.368,-0.3347,-0.3055,-0.3007,-0.232,-0.1432,-0.0961,-0.085,-0.0807,-0.074,-0.0693,-0.0672,-0.0539,-0.0539,-0.0494,-0.0404,-0.0291,-0.0201,-0.0067,-0.0022,0.0,-1.0312,-1.0312,-1.0312,-1.0312,-1.0286,-1.0066,-0.9725,-0.9303,-0.8915,-0.9031,-0.9509,-0.9616,-0.9893,-1.0299,-1.0312,-1.0064,-0.967,-1.0104,-1.0312,-1.0312,-1.0312,-1.056,-1.0991,-1.0534,-1.0312,-1.0312,-1.0312,-1.0312,-1.0312,-1.0183,-1.0155,-1.0142,-1.0038,-0.9987,-0.9974,0.0,0.0,0.0,-0.7891,-0.7699,-0.6937,-0.6892,-0.6892,-0.6882,-0.6318,0.0,-0.5448,-0.5315,-0.4995,-0.4442,-0.4259,0.0,0.0,0.0,0.0,0.0,0.0,0.0,0.0,0.0,0.0,0.0,-0.3566,-0.3345,-0.3092,-0.2938,-0.3095,-0.3656,-0.3838,-0.3868,-0.3771,-0.3619,-0.3601,-0.3796,-0.3497,-0.3415,-0.3769,-0.3584,-0.3359,-0.3268,-0.3542,-0.3813,-0.3854,-0.3751,-0.3499,-0.3266,-0.3212,-0.3289,-0.3494,-0.3473,-0.348,-0.3594,-0.3772,-0.3967,-0.4142,-0.3889,-0.3535,-0.3224,-0.2923,-0.2322,-0.1681,-0.1481,-0.1279,-0.0831,-0.0697,-0.0697,-0.0652,-0.0674,-0.0607,-0.0427,-0.0382,-0.0315,-0.0202,-0.009,0.0,-1.1147,0.0,-1.086,-1.0756,0.0,-1.043,-1.0155,-0.9893,-0.9581,-0.962,-0.9881,-0.9893,-1.0051,-1.0312,-1.0312,-1.0156,-0.9919,-1.0169,-1.0456,-1.0743,-1.0756,-1.1056,-1.1591,-1.1277,-1.1147,-1.1134,-1.0873,-1.073,-1.073,-1.0456,-1.0312,-1.0312,-1.0312,-1.0312,-1.0312,-1.0312,-0.9631,-0.8304,-0.8521,-0.8128,-0.7165,-0.7107,-0.6925,-0.6561,0.0,0.0,0.0,0.0,0.0,0.0,0.0,0.0,0.0,0.0,0.0,-0.5243,-0.4891,-0.4535,-0.4169,-0.3922,-0.3865,-0.4044,-0.4062,-0.3927,-0.3661,-0.3491,-0.3533,-0.3856,-0.3911,-0.3911,-0.3893,-0.38,-0.3844,-0.4046,-0.3798,-0.3794,-0.4235,-0.434,-0.4257,-0.4011,-0.3898,-0.3852,-0.384,-0.3626,-0.3444,-0.3364,-0.3363,-0.3419,-0.3594,-0.3561,-0.3567,-0.3756,-0.3984,-0.4192,-0.4252,-0.4122,-0.395,-0.366,-0.3255,-0.281,-0.2368,-0.1969,-0.1479,-0.0876,-0.0697,-0.0697,-0.0697,-0.0697,-0.0674,-0.0562,-0.0494,-0.0427,-0.0315,-0.0157,0.0,-1.1993,-1.1954,-1.1514,-1.1331,-1.1292,-1.0808,-1.0599,-1.0586,0.0,0.0,0.0,-1.0312,-1.0312,-1.0312,-1.0312,-1.0312,-1.0312,-1.0312,-1.0625,-1.1201,-1.1096,-1.1383,-1.198,-1.1903,-1.1916,-1.1981,-1.1553,-1.1344,-1.1318,-1.0743,-1.0469,-1.0456,-1.0365,-1.0312,-1.0312,-1.0312,-1.0029,-0.9493,-0.9263,-0.8611,-0.7533,-0.737,-0.7005,-0.6406,-0.6137,-0.6018,-0.6018,-0.5975,-0.5904,-0.5725,-0.5677,-0.5613,-0.5511,-0.5492,-0.5492,-0.5483,-0.5234,-0.4943,-0.4619,-0.4416,-0.4311,-0.4347,-0.4385,-0.4328,-0.4225,-0.4032,-0.3948,-0.4004,-0.3934,-0.3945,-0.4056,-0.4034,-0.4116,-0.4356,-0.4193,-0.4266,-0.473,-0.4994,-0.4991,-0.4712,-0.4338,-0.3909,-0.3813,-0.3597,-0.3411,-0.3488,-0.349,-0.3569,-0.3701,-0.3672,-0.372,-0.4,-0.4192,-0.429,-0.4276,-0.4192,-0.4108,-0.402,-0.3549,-0.3145,-0.2946,-0.2479,-0.177,-0.1055,-0.0809,-0.0719,-0.0697,-0.0697,-0.0697,-0.0652,-0.0562,-0.0472,-0.036,-0.0202,0.0,-1.1993,-1.1994,-1.1916,-1.189,-1.1891,-1.1784,-1.1758,-1.1667,-1.073,-1.0312,-1.0312,-1.0312,-1.0312,-1.0312,-1.0312,-1.0312,-1.0312,-1.0312,-1.0625,0.0,-1.0677,-1.099,-1.1954,-1.1526,-1.1539,-1.1981,-1.1916,-1.1877,-1.1812,-1.1344,-1.107,-1.1004,-1.056,-1.0312,-1.0312,-1.0312,-1.0248,-1.017,-1.012,-0.9749,-0.9004,-0.8377,-0.8004,-0.7849,-0.6649,-0.6018,-0.6009,-0.5957,-0.5856,-0.5704,-0.5605,-0.5521,-0.5492,-0.5492,-0.5492,-0.5492,-0.5435,-0.5394,-0.5352,-0.5173,-0.5126,-0.5266,-0.4947,-0.4583,-0.4238,-0.4073,-0.4114,-0.4374,-0.4141,-0.4116,-0.4578,-0.4526,-0.4526,-0.4685,-0.4697,-0.4809,-0.5166,-0.5261,-0.5349,-0.5498,-0.5499,-0.5054,-0.4435,-0.4253,-0.4011,-0.3651,-0.3586,-0.3622,-0.387,-0.3939,-0.4024,-0.4208,-0.4278,-0.4298,-0.4298,-0.4192,-0.4108,-0.4086,-0.3906,-0.3641,-0.3486,-0.3309,-0.2796,-0.1792,-0.1145,-0.0764,-0.0719,-0.0697,-0.0675,-0.0609,-0.0542,-0.0474,-0.0317,-0.0204,-0.0136,-1.2975,-1.2951,-1.2609,-1.2479,-1.2466,-1.2138,-1.1993,-1.1955,-1.1446,-1.1225,-1.1225,-1.1225,-1.1225,-1.1185,-1.0925,-1.0795,-1.0769,-1.0456,-1.0612,-1.1175,-1.0913,-1.1213,-1.1955,-1.2089,-1.2246,-1.2494,-1.2479,-1.2494,-1.2442,-1.1919,-1.163,-1.1591,-1.1069,-1.0625,-1.0313,-1.0312,-1.0312,-1.0312,-1.0312,-0.9964,-0.9303,-0.8838,-0.8393,-0.8034,-0.7242,-0.6865,-0.6854,-0.652,-0.6294,-0.6186,-0.5772,-0.5541,-0.5492,-0.5492,-0.5492,-0.5492,-0.5492,-0.5492,-0.5492,-0.5553,-0.5685,-0.5892,-0.5607,-0.5274,-0.4969,-0.4361,-0.4222,-0.4716,-0.4837,-0.4884,-0.4836,-0.5047,-0.5158,-0.5078,-0.5006,-0.513,-0.5488,-0.5561,-0.5558,-0.5565,-0.546,-0.5192,-0.4718,-0.4702,-0.4545,-0.4072,-0.3953,-0.4016,-0.413,-0.4154,-0.4179,-0.4282,-0.4298,-0.4298,-0.4298,-0.4254,-0.4192,-0.4108,-0.4042,-0.3928,-0.3774,-0.3689,-0.3376,-0.2796,-0.1682,-0.0943,-0.099,-0.0853,-0.0725,-0.0696,-0.0674,-0.0584,-0.0451,-0.0311,-0.0167,-1.3791,-1.3752,-1.3291,-1.3111,-1.3043,-1.2596,-1.2398,-1.2398,-1.2398,-1.2411,-1.2372,-1.2138,-1.1993,-1.1941,-1.1552,-1.1318,-1.1162,-1.0717,-1.0677,-1.0965,-1.0991,-1.1305,-1.1826,-1.2311,-1.264,-1.2875,-1.2915,-1.2915,-1.2849,-1.2296,-1.1929,-1.1812,-1.1527,-1.1082,-1.0508,-1.0508,-1.0456,-1.0325,-1.0312,-1.0029,-0.9471,-0.9091,-0.8643,-0.8107,-0.776,-0.76,-0.7577,-0.7154,-0.6852,-0.6756,-0.6271,-0.5851,-0.5523,-0.5492,-0.5576,-0.5763,-0.5795,-0.5795,-0.5806,-0.5991,-0.6201,-0.6387,-0.6221,-0.6033,-0.5831,-0.5017,-0.4684,-0.5237,-0.5583,-0.5554,-0.5223,-0.5473,-0.5693,-0.5444,-0.5326,-0.5414,-0.573,-0.5803,-0.5733,-0.5515,-0.5358,-0.5185,-0.4921,-0.5002,-0.5015,-0.4773,-0.4527,-0.4387,-0.4447,-0.4429,-0.4342,-0.4298,-0.4298,-0.4298,-0.4298,-0.4298,-0.4254,-0.4152,-0.4169,-0.4148,-0.4036,-0.3876,-0.3674,-0.3433,-0.2516,-0.1646,-0.15,-0.1224,-0.0961,-0.0842,-0.0774,-0.0756,-0.0597,-0.0379,-0.0177,-1.3791,-1.3791,-1.3726,-1.3726,-1.3687,-1.3605,-1.3566,-1.3595,-1.3621,-1.3647,-1.3461,-1.249,-1.2032,-1.1993,-1.1968,-1.171,-1.128,-1.1148,-1.086,-1.0456,-1.0391,-1.0704,-1.124,-1.1358,-1.1907,-1.2758,-1.2862,-1.2849,-1.2808,-1.2268,-1.1761,-1.1397,-1.1709,-1.1617,-1.1148,-1.1069,-1.0821,-1.0325,-1.0312,-1.0186,-0.9907,-0.9255,-0.8778,-0.8549,-0.7947,-0.76,-0.7657,-0.7531,-0.7463,-0.7338,-0.7203,-0.6641,-0.5667,-0.5512,-0.5868,-0.6625,-0.6665,-0.6674,-0.6676,-0.6705,-0.6744,-0.6752,-0.6766,-0.6723,-0.6652,-0.6213,-0.5969,-0.61,-0.5929,-0.5806,-0.5807,-0.5797,-0.5781,-0.5745,-0.5708,-0.5759,-0.5773,-0.5803,-0.578,-0.5764,-0.5715,-0.5529,-0.5129,-0.5303,-0.5516,-0.5502,-0.4952,-0.4644,-0.4818,-0.4648,-0.4412,-0.4342,-0.4298,-0.4302,-0.431,-0.4298,-0.4308,-0.429,-0.4399,-0.4411,-0.4349,-0.4271,-0.4115,-0.376,-0.3627,-0.3082,-0.2147,-0.1618,-0.1414,-0.1025,-0.088,-0.0755,-0.0608,-0.0389,-0.0184,-1.3791,-1.3791,-1.3791,-1.3791,-1.3791,-1.3791,-1.3791,-1.3791,-1.3791,-1.3791,-1.3752,-1.3265,-1.3056,-1.304,-1.2688,-1.2387,-1.2182,-1.184,-1.137,-1.086,-1.0834,-1.0795,-1.069,-1.1057,-1.1462,-1.1894,-1.2219,-1.2374,-1.2335,-1.2126,-1.172,-1.1266,-1.1422,-1.1226,-1.073,-1.0664,-1.0547,-1.0325,-1.0312,-1.0211,-0.9983,-0.9591,-0.9316,-0.9202,-0.8756,-0.8498,-0.8463,-0.8186,-0.7978,-0.7858,-0.754,-0.7102,-0.6543,-0.6436,-0.6747,-0.7496,-0.71,-0.6934,-0.7191,-0.7214,-0.7328,-0.7607,-0.7484,-0.7386,-0.7385,-0.7105,-0.6909,-0.6833,-0.6406,-0.6098,-0.6075,-0.592,-0.5803,-0.5857,-0.5819,-0.5803,-0.5803,-0.5979,-0.6039,-0.5862,-0.6117,-0.6188,-0.5813,-0.5754,-0.5861,-0.5891,-0.5353,-0.4884,-0.4836,-0.4644,-0.4491,-0.4342,-0.4298,-0.4351,-0.4394,-0.4412,-0.4471,-0.456,-0.4646,-0.4658,-0.4714,-0.4666,-0.4482,-0.4134,-0.4185,-0.3891,-0.2868,-0.2369,-0.2044,-0.1489,-0.0984,-0.0833,-0.0699,-0.0489,-0.0274,-1.3791,-1.3791,-1.3791,-1.3791,-1.3791,-1.3791,-1.3791,-1.3791,-1.3791,-1.3791,-1.3791,-1.3791,-1.3791,-1.3739,-1.3346,-1.3087,-1.2849,-1.244,-1.1944,-1.1461,-1.1436,-1.1109,-1.0638,-1.0965,-1.1201,-1.1253,-1.1605,-1.1787,-1.1773,-1.1787,-1.1579,-1.1253,-1.1331,-1.1135,-1.0599,-1.0534,-1.0456,-1.03,-1.0249,-1.0148,-0.9995,-0.975,-0.9632,-0.9592,-0.9339,-0.9149,-0.9094,-0.8713,-0.8494,-0.8443,-0.8052,-0.7798,-0.7724,-0.7517,-0.7626,-0.807,-0.7576,-0.7328,-0.7683,-0.769,-0.7849,-0.8145,-0.8004,-0.7904,-0.7889,-0.7768,-0.7603,-0.7393,-0.7047,-0.6755,-0.6375,-0.6052,-0.5919,-0.6024,-0.6005,-0.5986,-0.6082,-0.6331,-0.6397,-0.6146,-0.6404,-0.6673,-0.6528,-0.6245,-0.6058,-0.6298,-0.5637,-0.4958,-0.4753,-0.4666,-0.4513,-0.4338,-0.4298,-0.4321,-0.4424,-0.4442,-0.4552,-0.4662,-0.4739,-0.4836,-0.4995,-0.495,-0.4886,-0.4624,-0.4593,-0.4242,-0.3477,-0.3001,-0.2503,-0.1823,-0.1278,-0.0917,-0.0806,-0.0588,-0.0476,-1.3791,-1.3791,-1.3791,-1.3791,-1.3791,-1.3791,-1.3791,-1.3791,-1.3791,-1.3791,-1.3791,-1.3791,-1.3791,-1.3791,-1.3726,-1.3438,-1.2967,-1.2873,-1.2531,-1.2007,-1.1968,-1.1683,-1.1187,-1.1201,-1.1201,-1.1201,-1.1253,-1.1266,-1.124,-1.1227,-1.1227,-1.1187,-1.1591,-1.163,-1.1135,-1.103,-1.0834,-1.0352,-1.0123,-1.0021,-0.9957,-0.962,-0.9434,-0.9434,-0.9381,-0.9272,-0.9122,-0.9083,-0.9035,-0.9033,-0.8921,-0.8921,-0.8935,-0.8533,-0.8263,-0.8184,-0.8149,-0.8118,-0.8125,-0.8129,-0.816,-0.8187,-0.8173,-0.8173,-0.8144,-0.813,-0.7976,-0.7715,-0.7865,-0.7647,-0.6913,-0.6395,-0.6195,-0.6429,-0.6397,-0.6453,-0.6625,-0.6801,-0.6907,-0.6698,-0.668,-0.6874,-0.7069,-0.6521,-0.6397,-0.6431,-0.5771,-0.5002,-0.4954,-0.4736,-0.4495,-0.4338,-0.4298,-0.4302,-0.4314,-0.4373,-0.443,-0.4553,-0.4771,-0.4849,-0.5043,-0.5167,-0.5124,-0.5035,-0.4738,-0.4355,-0.3905,-0.3366,-0.2746,-0.2101,-0.1406,-0.1018,-0.0847,-0.078,-0.0641,-1.3791,-1.3791,-1.3791,-1.3791,-1.3791,-1.3791,-1.3791,-1.3791,-1.3791,-1.3791,-1.3791,-1.3791,-1.3791,-1.3791,-1.3791,-1.3687,-1.3477,-1.3477,-1.3147,-1.2625,-1.2585,-1.2272,-1.1747,-1.1722,-1.1527,-1.124,-1.1201,-1.0991,-1.0651,-1.0625,-1.0625,-1.0638,-1.0821,-1.0808,-1.0651,-1.0612,-1.0495,-1.0313,-1.011,-1.0008,-0.9983,-0.9737,-0.9527,-0.9394,-0.9272,-0.9164,-0.9106,-0.9092,-0.9092,-0.9092,-0.9065,-0.9079,-0.9051,-0.8572,-0.8258,-0.8201,-0.8201,-0.8201,-0.8201,-0.8201,-0.8201,-0.8201,-0.8201,-0.8201,-0.8201,-0.8201,-0.8134,-0.8087,-0.8105,-0.796,-0.7609,-0.7082,-0.6802,-0.6893,-0.6742,-0.6629,-0.6731,-0.6968,-0.703,-0.6811,-0.6869,-0.7158,-0.728,-0.6919,-0.6528,-0.6535,-0.5879,-0.5285,-0.4954,-0.4762,-0.4618,-0.4364,-0.4298,-0.4298,-0.4298,-0.4394,-0.4484,-0.4626,-0.4784,-0.4812,-0.4942,-0.5139,-0.5151,-0.4947,-0.47,-0.447,-0.4004,-0.3484,-0.2885,-0.2395,-0.1681,-0.1143,-0.0891,-0.0804,-0.0704,-1.3791,-1.3791,-1.3791,-1.3791,-1.3791,-1.3791,-1.3791,-1.3791,-1.3791,-1.3791,-1.3791,-1.3791,-1.3791,-1.3791,-1.3791,-1.3791,-1.3791,-1.3791,-1.3569,-1.3216,-1.3189,-1.286,-1.2374,-1.2283,-1.1996,-1.1501,-1.1279,-1.0965,-1.0586,-1.0391,-1.0312,-1.0325,-1.0312,-1.0312,-1.0312,-1.0312,-1.0312,-1.0262,-1.0097,-1.0008,-0.997,-0.9737,-0.9552,-0.9394,-0.9217,-0.9092,-0.9092,-0.9092,-0.9092,-0.9092,-0.9092,-0.9079,-0.8985,-0.8544,-0.8244,-0.8201,-0.8201,-0.8201,-0.8201,-0.8201,-0.8201,-0.8201,-0.8201,-0.8201,-0.8201,-0.8201,-0.8201,-0.823,-0.8393,-0.8368,-0.8013,-0.7772,-0.7573,-0.7412,-0.7122,-0.6969,-0.7015,-0.7238,-0.726,-0.7158,-0.7238,-0.7465,-0.7578,-0.7168,-0.6768,-0.6498,-0.5994,-0.5536,-0.4924,-0.4821,-0.4754,-0.4476,-0.4386,-0.4422,-0.4471,-0.4585,-0.4533,-0.4638,-0.4694,-0.4727,-0.4848,-0.507,-0.5104,-0.4859,-0.4642,-0.4447,-0.4084,-0.3559,-0.3062,-0.2603,-0.197,-0.134,-0.1079,-0.0825,-0.0757,-1.3817,-1.3857,-1.3831,-1.3922,-1.3945,-1.3975,-1.387,-1.3935,-1.3922,-1.3988,-1.404,-1.3909,-1.3975,-1.3857,-1.3896,-1.3827,-1.3791,-1.3791,-1.3778,-1.3713,-1.3726,-1.3438,-1.2912,-1.2886,-1.2585,-1.2009,-1.1488,-1.124,-1.1161,-1.069,-1.0404,-1.0352,-1.0313,-1.0312,-1.0312,-1.0312,-1.0312,-1.0275,-1.011,-1.0008,-0.9957,-0.9633,-0.9421,-0.9381,-0.9205,-0.9092,-0.9092,-0.9115,-0.9138,-0.9092,-0.914,-0.9051,-0.8916,-0.86,-0.8351,-0.823,-0.8201,-0.8201,-0.8201,-0.8201,-0.8201,-0.8222,-0.8222,-0.8284,-0.8294,-0.8232,-0.8243,-0.8414,-0.8782,-0.8791,-0.8223,-0.8309,-0.831,-0.7866,-0.7552,-0.7457,-0.7586,-0.7662,-0.7683,-0.7632,-0.7632,-0.7676,-0.7628,-0.7377,-0.6963,-0.6508,-0.6246,-0.5826,-0.504,-0.4956,-0.4864,-0.4659,-0.4549,-0.4576,-0.469,-0.4767,-0.4666,-0.4578,-0.4622,-0.4658,-0.4849,-0.5018,-0.5054,-0.487,-0.459,-0.4369,-0.4036,-0.3516,-0.3035,-0.2551,-0.1991,-0.1441,-0.1139,-0.0869,-0.081,-1.4354,-1.4406,-1.4812,-1.4969,-1.4964,-1.4982,-1.4964,-1.4982,-1.4951,-1.4982,-1.4964,-1.4969,-1.476,-1.4419,-1.4354,-1.4158,-1.3817,-1.3791,-1.3791,-1.3791,-1.3791,-1.37,-1.3543,-1.3503,-1.32,-1.2612,-1.2035,-1.1748,-1.1656,-1.1187,-1.0913,-1.086,-1.0508,-1.0325,-1.0339,-1.0312,-1.0312,-1.0287,-1.011,-1.0008,-0.997,-0.9619,-0.9408,-0.9381,-0.9203,-0.9092,-0.9104,-0.9402,-0.9414,-0.9115,-0.9416,-0.9423,-0.9053,-0.8726,-0.8435,-0.8244,-0.8201,-0.8201,-0.8201,-0.8201,-0.8211,-0.8274,-0.8491,-0.8642,-0.8637,-0.8398,-0.8508,-0.903,-0.9792,-0.9896,-0.8963,-0.8777,-0.871,-0.8395,-0.8037,-0.7749,-0.7696,-0.7691,-0.7691,-0.7691,-0.7691,-0.7691,-0.7635,-0.7405,-0.7134,-0.6777,-0.6548,-0.6077,-0.5426,-0.525,-0.509,-0.4697,-0.4702,-0.4731,-0.4832,-0.4892,-0.4836,-0.4751,-0.4715,-0.4707,-0.4873,-0.4958,-0.4961,-0.4896,-0.461,-0.4303,-0.3943,-0.3604,-0.3175,-0.2497,-0.1863,-0.144,-0.1058,-0.089,-0.0821,-1.4938,-1.4977,-1.533,-1.55,-1.55,-1.55,-1.55,-1.55,-1.55,-1.55,-1.5487,-1.5487,-1.5291,-1.4995,-1.4943,-1.4629,-1.4145,-1.4092,-1.4001,-1.3814,-1.3791,-1.3791,-1.3791,-1.3791,-1.3634,-1.3203,-1.2625,-1.2335,-1.2296,-1.1787,-1.1501,-1.1409,-1.1121,-1.0847,-1.0651,-1.0625,-1.056,-1.0339,-1.0173,-1.011,-1.0034,-0.979,-0.9593,-0.9501,-0.9313,-0.9164,-0.9154,-0.9551,-0.9586,-0.9244,-0.9416,-0.9382,-0.9124,-0.8974,-0.8727,-0.8342,-0.8346,-0.8383,-0.8257,-0.8201,-0.8373,-0.8642,-0.8808,-0.8963,-0.9015,-0.8792,-0.8999,-0.9499,-1.0308,-1.0467,-0.9587,-0.9199,-0.8958,-0.8549,-0.8157,-0.7912,-0.7732,-0.7691,-0.7691,-0.7691,-0.7691,-0.7691,-0.7635,-0.7688,-0.745,-0.7241,-0.7062,-0.6636,-0.603,-0.5687,-0.5336,-0.5035,-0.4905,-0.4945,-0.4989,-0.5005,-0.5001,-0.4933,-0.4868,-0.4885,-0.4946,-0.4974,-0.4995,-0.4961,-0.473,-0.454,-0.4199,-0.3972,-0.3598,-0.2719,-0.1953,-0.1715,-0.1463,-0.0958,-0.0806,-1.5539,-1.5552,-1.5591,-1.5689,-1.5683,-1.5696,-1.5741,-1.5657,-1.567,-1.5709,-1.5683,-1.5748,-1.5644,-1.5565,-1.5539,-1.5173,-1.4676,-1.4637,-1.4297,-1.3961,-1.3853,-1.3896,-1.3817,-1.3791,-1.3752,-1.3647,-1.3203,-1.2967,-1.2899,-1.2361,-1.2046,-1.2046,-1.1903,-1.1722,-1.1305,-1.124,-1.0991,-1.0612,-1.0495,-1.0508,-1.0457,-1.0264,-1.0005,-0.9808,-0.9582,-0.937,-0.9202,-0.9471,-0.954,-0.9196,-0.9287,-0.9393,-0.9278,-0.9434,-0.9253,-0.8632,-0.8771,-0.8564,-0.8315,-0.8309,-0.8596,-0.9251,-0.9195,-0.9108,-0.9458,-0.9582,-0.9623,-0.9767,-1.0438,-1.0622,-0.999,-0.9567,-0.9068,-0.8447,-0.8057,-0.7816,-0.7712,-0.7691,-0.7691,-0.7705,-0.7698,-0.7749,-0.7829,-0.8041,-0.8009,-0.7861,-0.7798,-0.7358,-0.6668,-0.6187,-0.5848,-0.554,-0.523,-0.5119,-0.5124,-0.5132,-0.5151,-0.5088,-0.5054,-0.5042,-0.506,-0.5068,-0.508,-0.5008,-0.4918,-0.4713,-0.4418,-0.4108,-0.3718,-0.3007,-0.2487,-0.2232,-0.1766,-0.1188,-0.0844,-1.6153,-1.6212,-1.6584,-1.6754,-1.6754,-1.6775,-1.6741,-1.6754,-1.6728,-1.6676,-1.6728,-1.6754,-1.648,-1.6212,-1.616,-1.5623,-1.4956,-1.5068,-1.4694,-1.3971,-1.4249,-1.4128,-1.387,-1.3791,-1.3791,-1.3765,-1.3608,-1.3552,-1.3517,-1.2951,-1.2664,-1.2638,-1.2268,-1.1967,-1.1813,-1.18,-1.172,-1.1576,-1.1524,-1.1498,-1.147,-1.1317,-1.0954,-1.0382,-1.0121,-0.9704,-0.9191,-0.9221,-0.9439,-0.9643,-1.0011,-1.0206,-1.0167,-1.0319,-1.0257,-0.996,-0.9279,-0.8688,-0.8377,-0.8512,-0.8953,-0.9447,-0.9695,-0.9908,-0.9994,-1.0324,-1.0479,-1.0561,-1.078,-1.0583,-0.9893,-0.9588,-0.909,-0.8275,-0.794,-0.7781,-0.7719,-0.7691,-0.7691,-0.7713,-0.7916,-0.8129,-0.8392,-0.8472,-0.8493,-0.8345,-0.8237,-0.8107,-0.7398,-0.6655,-0.6277,-0.5837,-0.5527,-0.5358,-0.5269,-0.5277,-0.5277,-0.5257,-0.5225,-0.5232,-0.5228,-0.5228,-0.524,-0.5217,-0.5054,-0.4874,-0.4444,-0.4062,-0.3591,-0.3267,-0.2672,-0.2228,-0.1791,-0.1283,-0.0995,-1.6728,-1.6767,-1.7068,-1.7212,-1.7212,-1.7212,-1.7212,-1.7212,-1.7212,-1.7212,-1.7212,-1.7212,-1.7016,-1.6762,-1.6735,-1.6075,-1.5178,-1.5591,-1.5087,-1.3988,-1.4105,-1.4053,-1.3844,-1.3791,-1.3791,-1.3791,-1.3791,-1.3791,-1.3739,-1.3438,-1.3307,-1.3229,-1.2938,-1.2651,-1.2374,-1.2374,-1.2242,-1.2046,-1.1993,-1.1993,-1.1978,-1.1892,-1.1591,-1.1096,-1.0785,-1.035,-0.9831,-0.9735,-0.9781,-0.9827,-0.9919,-1.0137,-1.056,-1.0566,-1.0484,-1.0298,-0.9431,-0.8734,-0.8398,-0.8632,-0.9263,-0.987,-1.0249,-1.0311,-1.0487,-1.0766,-1.09,-1.0879,-1.09,-1.0564,-1.0011,-0.9597,-0.8999,-0.8337,-0.7995,-0.7836,-0.774,-0.7691,-0.7691,-0.7792,-0.8012,-0.8458,-0.8963,-0.8963,-0.887,-0.8778,-0.8653,-0.8539,-0.8227,-0.7433,-0.6701,-0.6263,-0.57,-0.5399,-0.5297,-0.5309,-0.5357,-0.5349,-0.5374,-0.5389,-0.5345,-0.5337,-0.5293,-0.5265,-0.5158,-0.4987,-0.4583,-0.4239,-0.3999,-0.3564,-0.284,-0.2312,-0.1954,-0.1526,-0.1233,-1.7212,-1.7199,-1.7212,-1.7212,-1.7212,-1.7212,-1.7212,-1.7212,-1.7212,-1.7212,-1.7212,-1.7212,-1.7173,-1.7212,-1.7081,-1.6584,-1.563,-1.6075,-1.5265,-1.4393,-1.4027,-1.3988,-1.3988,-1.3844,-1.3804,-1.3791,-1.3791,-1.3791,-1.3778,-1.3765,-1.3765,-1.3687,-1.37,-1.349,-1.3098,-1.2993,-1.2703,-1.2427,-1.2385,-1.2398,-1.2398,-1.2355,-1.2144,-1.1683,-1.1174,-1.0879,-1.0576,-1.0481,-1.0355,-0.9907,-0.9393,-0.9609,-1.0286,-1.0142,-0.9993,-0.973,-0.9395,-0.8979,-0.8554,-0.8911,-0.9574,-1.0508,-1.0448,-1.0438,-1.0747,-1.0879,-1.09,-1.09,-1.09,-1.067,-1.0166,-0.9496,-0.8986,-0.8577,-0.8328,-0.8084,-0.7905,-0.7806,-0.7763,-0.7814,-0.8092,-0.8714,-0.9187,-0.9409,-0.9226,-0.9156,-0.9073,-0.8944,-0.8593,-0.7892,-0.723,-0.6713,-0.605,-0.5329,-0.5313,-0.5325,-0.5386,-0.543,-0.5498,-0.5506,-0.5474,-0.5442,-0.5337,-0.5273,-0.5202,-0.5085,-0.4872,-0.46,-0.4365,-0.402,-0.342,-0.2879,-0.2388,-0.1892,-0.1517,-1.7212,-1.7212,-1.7212,-1.7212,-1.7212,-1.7212,-1.7212,-1.7212,-1.7212,-1.7212,-1.7212,-1.7212,-1.7212,-1.7212,-1.7173,-1.6807,-1.6179,-1.6225,-1.5644,-1.4603,-1.4432,-1.4432,-1.4354,-1.4092,-1.3844,-1.3844,-1.3804,-1.3791,-1.3791,-1.3791,-1.3791,-1.3791,-1.3791,-1.3739,-1.3608,-1.3517,-1.3569,-1.3409,-1.337,-1.3304,-1.3291,-1.3246,-1.2871,-1.2132,-1.1304,-1.0813,-1.0655,-1.0596,-1.0523,-1.0236,-0.9724,-0.9508,-0.9654,-0.9899,-0.9944,-0.9852,-0.9863,-0.9677,-0.9402,-0.9598,-1.0177,-1.0745,-1.0778,-1.0786,-1.0859,-1.09,-1.09,-1.09,-1.0881,-1.0661,-1.0115,-0.9392,-0.913,-0.9042,-0.888,-0.8744,-0.8715,-0.8379,-0.8195,-0.8319,-0.8657,-0.9124,-0.9515,-0.9563,-0.9497,-0.95,-0.9426,-0.9321,-0.8883,-0.832,-0.7757,-0.7198,-0.6447,-0.5763,-0.5474,-0.5498,-0.5559,-0.5591,-0.5624,-0.5603,-0.5575,-0.5551,-0.5482,-0.5374,-0.5266,-0.5152,-0.5117,-0.4903,-0.4674,-0.4335,-0.4011,-0.3526,-0.3032,-0.2424,-0.1844,-1.7212,-1.7212,-1.7212,-1.7212,-1.7212,-1.7212,-1.7212,-1.7212,-1.7212,-1.7212,-1.7212,-1.7212,-1.7212,-1.7212,-1.7186,-1.6898,-1.6343,-1.5761,-1.5395,-1.4938,-1.4799,-1.476,-1.5008,-1.4716,-1.448,-1.4223,-1.3896,-1.3804,-1.3791,-1.3804,-1.3791,-1.3791,-1.3791,-1.3791,-1.3791,-1.3791,-1.3778,-1.3752,-1.3791,-1.3791,-1.3804,-1.3644,-1.3251,-1.2482,-1.1792,-1.1465,-1.1365,-1.1308,-1.1308,-1.1164,-1.0773,-1.0244,-0.9848,-0.9923,-1.0078,-1.0284,-1.0008,-0.987,-0.9688,-0.9943,-1.0376,-1.0869,-1.09,-1.09,-1.09,-1.09,-1.09,-1.09,-1.0855,-1.0665,-1.013,-0.9971,-0.9748,-0.958,-0.9434,-0.9332,-0.9283,-0.8882,-0.8563,-0.8693,-0.8965,-0.928,-0.949,-0.9592,-0.9629,-0.9566,-0.9581,-0.9508,-0.9511,-0.8949,-0.8299,-0.7666,-0.6849,-0.6209,-0.5773,-0.5697,-0.5766,-0.5791,-0.5803,-0.575,-0.5689,-0.5669,-0.564,-0.5563,-0.5514,-0.5497,-0.5428,-0.5213,-0.4997,-0.4808,-0.451,-0.4154,-0.375,-0.3263,-0.2604,-1.7212,-1.7212,-1.7212,-1.7212,-1.7212,-1.7212,-1.7212,-1.7212,-1.7212,-1.7212,-1.7212,-1.7212,-1.7212,-1.7212,-1.7212,-1.6898,-1.6271,-1.5604,-1.5317,-1.5348,-1.5199,-1.5309,-1.5558,-1.5558,-1.5356,-1.4838,-1.4289,-1.4014,-1.3961,-1.3844,-1.3804,-1.3791,-1.3791,-1.3791,-1.3791,-1.3791,-1.3758,-1.3708,-1.3691,-1.3641,-1.3573,-1.3391,-1.3027,-1.2578,-1.2301,-1.2142,-1.197,-1.1957,-1.2026,-1.2084,-1.2084,-1.16,-1.0923,-1.041,-1.0318,-1.0847,-1.0321,-1.0033,-0.9991,-1.0159,-1.052,-1.089,-1.09,-1.09,-1.09,-1.09,-1.09,-1.0856,-1.0812,-1.0674,-1.0331,-1.0221,-1.0278,-1.0146,-0.9964,-0.9849,-0.9738,-0.9371,-0.9123,-0.909,-0.9211,-0.9416,-0.9533,-0.9621,-0.9643,-0.9654,-0.9702,-0.9729,-0.9739,-0.9547,-0.8858,-0.8172,-0.7383,-0.6538,-0.6032,-0.5884,-0.5975,-0.6006,-0.6002,-0.5949,-0.5884,-0.5937,-0.5953,-0.5872,-0.5826,-0.5769,-0.564,-0.5369,-0.5225,-0.5171,-0.494,-0.4509,-0.4276,-0.4108,-0.3374,-1.7212,-1.7212,-1.7212,-1.7212,-1.7212,-1.7212,-1.7212,-1.7212,-1.7212,-1.7212,-1.7212,-1.7212,-1.7212,-1.7212,-1.7212,-1.6919,-1.6421,-1.5983,-1.5787,-1.5728,-1.5748,-1.6107,-1.6212,-1.6251,-1.6153,-1.5826,-1.5108,-1.4546,-1.4367,-1.4049,-1.4027,-1.387,-1.3844,-1.3857,-1.3857,-1.3775,-1.3691,-1.3527,-1.3506,-1.3408,-1.3156,-1.3017,-1.2843,-1.2461,-1.2282,-1.2156,-1.2131,-1.2084,-1.2084,-1.2084,-1.2084,-1.1811,-1.1332,-1.09,-1.0787,-1.0814,-1.0723,-1.0516,-1.0549,-1.0673,-1.0788,-1.089,-1.09,-1.0921,-1.0921,-1.0903,-1.0917,-1.0875,-1.0762,-1.0667,-1.1057,-1.0653,-1.0409,-1.0388,-1.0308,-1.0116,-1.0157,-0.9941,-0.9584,-0.9522,-0.9533,-0.9563,-0.9672,-0.9797,-0.9907,-0.9994,-1.006,-1.0111,-1.0169,-0.9885,-0.9383,-0.8664,-0.7917,-0.7051,-0.6249,-0.6185,-0.6171,-0.6241,-0.6262,-0.6258,-0.6233,-0.6302,-0.6286,-0.6136,-0.6018,-0.5927,-0.573,-0.5544,-0.5419,-0.5328,-0.5098,-0.483,-0.4689,-0.4503,-0.3903,-1.7212,-1.7212,-1.7212,-1.7212,-1.7212,-1.7212,-1.7212,-1.7212,-1.7212,-1.7212,-1.7212,-1.7212,-1.7212,-1.7212,-1.7212,-1.6911,-1.6519,-1.6375,-1.6205,-1.6081,-1.6258,-1.6584,-1.6754,-1.6794,-1.6807,-1.6571,-1.5944,-1.5304,-1.5074,-1.4864,-1.4642,-1.4616,-1.4406,-1.4193,-1.4114,-1.3931,-1.3705,-1.3484,-1.3399,-1.3262,-1.2908,-1.2785,-1.2561,-1.233,-1.2174,-1.2084,-1.2084,-1.2084,-1.2084,-1.2084,-1.2084,-1.1866,-1.1527,-1.1164,-1.09,-1.09,-1.09,-1.09,-1.09,-1.09,-1.089,-1.09,-1.091,-1.1054,-1.1116,-1.1088,-1.0985,-1.1013,-1.104,-1.0982,-1.1215,-1.0891,-1.0792,-1.0721,-1.0598,-1.0422,-1.0293,-1.0203,-1.0038,-0.9867,-0.987,-0.9885,-0.9914,-1.0046,-1.0192,-1.0302,-1.0397,-1.0513,-1.0601,-1.02,-0.9754,-0.8929,-0.8108,-0.7096,-0.6381,-0.6301,-0.629,-0.6359,-0.642,-0.642,-0.642,-0.6408,-0.6384,-0.6298,-0.6193,-0.6068,-0.5994,-0.5872,-0.5683,-0.5479,-0.5227,-0.506,-0.5058,-0.483,-0.4284,-1.7212,-1.7212,-1.7212,-1.7212,-1.7212,-1.7212,-1.7212,-1.7212,-1.7212,-1.7212,-1.7212,-1.7212,-1.7212,-1.7212,-1.716,-1.695,-1.6558,-1.6571,-1.6571,-1.6571,-1.6598,-1.6833,-1.7081,-1.7212,-1.7146,-1.7029,-1.6741,-1.6245,-1.5722,-1.5453,-1.5461,-1.5278,-1.4925,-1.4768,-1.4707,-1.448,-1.3999,-1.3704,-1.3617,-1.3433,-1.2955,-1.2585,-1.2347,-1.2131,-1.2084,-1.2084,-1.2084,-1.2084,-1.2048,-1.2048,-1.2041,-1.1932,-1.1516,-1.1118,-1.0919,-1.09,-1.09,-1.09,-1.09,-1.09,-1.0952,-1.1086,-1.1074,-1.1322,-1.1449,-1.1317,-1.1043,-1.1235,-1.1275,-1.1257,-1.1276,-1.1276,-1.1133,-1.0964,-1.0821,-1.0656,-1.0394,-1.0242,-1.0235,-1.0171,-1.0183,-1.0199,-1.0207,-1.0287,-1.0454,-1.0587,-1.0682,-1.0887,-1.0894,-1.0523,-0.9978,-0.9119,-0.8185,-0.7062,-0.6502,-0.6392,-0.6363,-0.6388,-0.642,-0.642,-0.642,-0.642,-0.6392,-0.6371,-0.6371,-0.6266,-0.6205,-0.6071,-0.5801,-0.5574,-0.5367,-0.5245,-0.5243,-0.514,-0.4798,-1.7212,-1.7212,-1.7212,-1.7212,-1.7212,-1.7212,-1.7212,-1.7212,-1.7212,-1.7212,-1.7212,-1.7212,-1.7212,-1.7212,-1.7212,-1.716,-1.7094,-1.7029,-1.7016,-1.7003,-1.7029,-1.7068,-1.7186,-1.7199,-1.7212,-1.7186,-1.7107,-1.6794,-1.631,-1.5826,-1.5591,-1.5597,-1.5558,-1.5401,-1.5369,-1.5066,-1.4992,-1.4466,-1.4326,-1.3826,-1.3009,-1.2452,-1.223,-1.2113,-1.2077,-1.2048,-1.2048,-1.2029,-1.1975,-1.1847,-1.2004,-1.1866,-1.1497,-1.1107,-1.0938,-1.09,-1.09,-1.09,-1.0952,-1.0983,-1.1158,-1.1416,-1.1519,-1.1788,-1.1817,-1.1589,-1.1263,-1.1254,-1.1301,-1.1301,-1.1301,-1.1301,-1.12,-1.0998,-1.0777,-1.0647,-1.047,-1.0267,-1.0258,-1.0319,-1.0307,-1.0404,-1.0477,-1.0594,-1.0689,-1.0828,-1.0989,-1.115,-1.1,-1.0485,-0.9894,-0.8965,-0.8134,-0.7068,-0.6548,-0.6453,-0.642,-0.642,-0.642,-0.642,-0.642,-0.642,-0.642,-0.6412,-0.6387,-0.6321,-0.6162,-0.5986,-0.5829,-0.565,-0.5418,-0.537,-0.5375,-0.5259,-0.516,-1.7212,-1.7212,-1.7212,-1.7212,-1.7212,-1.7212,-1.7212,-1.7212,-1.7212,-1.7212,-1.7212,-1.7212,-1.7212,-1.7212,-1.7212,-1.7199,-1.7212,-1.7212,-1.7212,-1.7212,-1.7212,-1.7212,-1.7199,-1.7212,-1.7212,-1.7212,-1.7199,-1.7107,-1.6754,-1.6624,-1.6454,-1.6375,-1.614,-1.5996,-1.586,-1.5453,-1.4986,-1.4516,-1.4157,-1.3615,-1.3035,-1.2659,-1.2406,-1.213,-1.2039,-1.1995,-1.1977,-1.1811,-1.1737,-1.1627,-1.1737,-1.17,-1.1452,-1.1198,-1.1076,-1.1716,-1.1716,-1.1602,-1.1354,-1.1302,-1.156,-1.1851,-1.1985,-1.2024,-1.2065,-1.1972,-1.1632,-1.1325,-1.1293,-1.1301,-1.1301,-1.1301,-1.1124,-1.093,-1.0726,-1.0428,-1.0325,-1.0337,-1.0256,-1.0344,-1.0417,-1.0491,-1.0586,-1.0682,-1.0814,-1.1063,-1.1158,-1.1252,-1.0767,-0.9933,-0.9322,-0.8672,-0.7847,-0.704,-0.6712,-0.6515,-0.642,-0.642,-0.642,-0.642,-0.642,-0.642,-0.642,-0.6358,-0.6292,-0.6189,-0.605,-0.5947,-0.5811,-0.565,-0.5491,-0.5458,-0.5395,-0.5395,-0.516,-1.7212,-1.7212,-1.7212,-1.7212,-1.7212,-1.7212,-1.7212,-1.7212,-1.7212,-1.7212,-1.7212,-1.7212,-1.7212,-1.7212,-1.7212,-1.7212,-1.7212,-1.7212,-1.7212,-1.7212,-1.7212,-1.7212,-1.7212,-1.7212,-1.7212,-1.7212,-1.7212,-1.716,-1.7186,-1.7133,-1.7027,-1.7047,-1.6578,-1.6375,-1.6158,-1.5772,-1.5248,-1.489,-1.4237,-1.3755,-1.3383,-1.3165,-1.2877,-1.2579,-1.2287,-1.2144,-1.2136,-1.2017,-1.1913,-1.1836,-1.1614,-1.1508,-1.1287,-1.166,-1.2016,-1.2461,-1.2461,-1.2213,-1.1985,-1.1913,-1.2037,-1.2307,-1.2586,-1.265,-1.246,-1.2503,-1.215,-1.1368,-1.1293,-1.1301,-1.1301,-1.1301,-1.1167,-1.0972,-1.0752,-1.0355,-1.0008,-1.0114,-1.0205,-1.03,-1.0359,-1.0403,-1.052,-1.0682,-1.0909,-1.1224,-1.1348,-1.1361,-1.0639,-0.9686,-0.9148,-0.8629,-0.7879,-0.7204,-0.6815,-0.6613,-0.6519,-0.6444,-0.6444,-0.6432,-0.644,-0.6432,-0.642,-0.6325,-0.6246,-0.6123,-0.602,-0.5921,-0.5789,-0.5591,-0.5458,-0.5425,-0.5395,-0.5395,-0.5332,-1.7212,-1.7212,-1.7212,-1.7212,-1.7212,-1.7212,-1.7212,-1.7212,-1.7212,-1.7212,-1.7212,-1.7212,-1.7212,-1.7212,-1.7212,-1.7212,-1.7212,-1.7212,-1.7212,-1.7212,-1.7212,-1.7212,-1.7212,-1.7212,-1.7212,-1.7212,-1.7212,-1.7212,-1.7178,-1.7136,-1.6976,-1.6748,-1.6667,-1.6476,-1.6268,-1.5954,-1.5636,-1.5241,-1.464,-1.4314,-1.404,-1.3788,-1.3509,-1.3391,-1.3189,-1.3081,-1.307,-1.2722,-1.2493,-1.2328,-1.1901,-1.1518,-1.1521,-1.238,-1.3039,-1.3144,-1.2936,-1.275,-1.2668,-1.2462,-1.2504,-1.2844,-1.3142,-1.3281,-1.3064,-1.2696,-1.2175,-1.1528,-1.1377,-1.1301,-1.1301,-1.1276,-1.1116,-1.0989,-1.0818,-1.0619,-1.0264,-0.9976,-1.008,-1.0212,-1.0315,-1.0388,-1.0322,-1.0454,-1.0638,-1.0931,-1.0931,-1.0938,-1.0555,-0.9753,-0.9328,-0.8756,-0.8059,-0.7423,-0.6946,-0.6738,-0.656,-0.653,-0.6546,-0.6505,-0.6473,-0.6457,-0.6424,-0.6472,-0.6433,-0.6207,-0.6021,-0.5925,-0.5812,-0.5526,-0.5395,-0.5395,-0.5395,-0.5395,-0.5409,-1.7212,-1.7212,-1.7212,-1.7212,-1.7212,-1.7212,-1.7212,-1.7212,-1.7212,-1.7212,-1.7212,-1.7212,-1.7212,-1.7212,-1.7212,-1.7212,-1.7212,-1.7212,-1.7212,-1.7212,-1.7212,-1.7212,-1.7212,-1.7212,-1.7212,-1.7212,-1.7212,-1.7212,-1.7212,-1.7031,-1.6693,-1.6543,-1.6586,-1.6479,-1.6262,-1.5925,-1.5625,-1.5366,-1.4991,-1.4729,-1.4373,-1.4224,-1.3937,-1.3584,-1.3181,-1.3047,-1.2941,-1.2669,-1.2531,-1.2383,-1.2151,-1.1963,-1.1902,-1.3041,-1.3517,-1.361,-1.3297,-1.3256,-1.3194,-1.2969,-1.2896,-1.3248,-1.3493,-1.3525,-1.3372,-1.3132,-1.2681,-1.2092,-1.1452,-1.1301,-1.1285,-1.115,-1.0964,-1.0913,-1.0841,-1.0767,-1.057,-1.0238,-1.0161,-1.0388,-1.041,-1.0432,-1.0307,-1.0163,-1.0388,-1.0586,-1.055,-1.048,-1.0214,-0.999,-0.9612,-0.9082,-0.8361,-0.7723,-0.7245,-0.691,-0.6616,-0.6619,-0.6656,-0.6639,-0.6603,-0.6423,-0.6415,-0.6546,-0.6646,-0.6506,-0.6314,-0.6082,-0.5824,-0.5582,-0.544,-0.5395,-0.5395,-0.5423,-0.5457,-1.7212,-1.7212,-1.7212,-1.7212,-1.7212,-1.7212,-1.7212,-1.7212,-1.7212,-1.7212,-1.7212,-1.7212,-1.7212,-1.7212,-1.7212,-1.7212,-1.7212,-1.7212,-1.7212,-1.7212,-1.7212,-1.7212,-1.7212,-1.7212,-1.7212,-1.7212,-1.7212,-1.7212,-1.7212,-1.6871,-1.6565,-1.6371,-1.6272,-1.6098,-1.5846,-1.5603,-1.5289,-1.5062,-1.496,-1.4824,-1.4439,-1.4383,-1.4325,-1.3899,-1.3532,-1.3368,-1.3303,-1.3104,-1.285,-1.2806,-1.2733,-1.2723,-1.2908,-1.3196,-1.3548,-1.361,-1.361,-1.361,-1.3517,-1.338,-1.3256,-1.3517,-1.3579,-1.3467,-1.3338,-1.342,-1.3035,-1.2323,-1.1712,-1.1294,-1.1328,-1.1195,-1.1137,-1.1112,-1.0946,-1.0851,-1.0768,-1.0546,-1.0526,-1.0586,-1.0528,-1.0492,-1.0448,-1.0302,-1.0185,-1.0403,-1.0485,-1.0515,-1.0465,-1.0246,-1.0071,-0.9471,-0.8781,-0.8173,-0.7593,-0.7175,-0.6788,-0.6812,-0.6845,-0.6865,-0.6808,-0.6631,-0.6529,-0.6664,-0.6736,-0.677,-0.6606,-0.6304,-0.5983,-0.5621,-0.5552,-0.5545,-0.5579,-0.5617,-0.5597,-1.7199,-1.7212,-1.7212,-1.7212,-1.7212,-1.7212,-1.7212,-1.7212,-1.7212,-1.7212,-1.7212,-1.7212,-1.7212,-1.7212,-1.7212,-1.7212,-1.7212,-1.7212,-1.7212,-1.7212,-1.7342,-1.7277,-1.7316,-1.7369,-1.7499,-1.7251,-1.7303,-1.7369,-1.729,-1.6918,-1.6557,-1.6306,-1.6135,-1.5701,-1.5222,-1.5176,-1.4994,-1.4811,-1.4855,-1.4762,-1.4635,-1.4567,-1.4492,-1.4402,-1.4018,-1.3816,-1.3749,-1.3519,-1.3323,-1.331,-1.3341,-1.3341,-1.3434,-1.3486,-1.361,-1.361,-1.361,-1.361,-1.36,-1.3566,-1.3607,-1.3641,-1.3672,-1.3632,-1.3594,-1.3549,-1.3473,-1.2855,-1.1872,-1.1464,-1.1403,-1.1388,-1.1347,-1.1186,-1.0993,-1.0942,-1.0851,-1.096,-1.0946,-1.0938,-1.0741,-1.0609,-1.0602,-1.0499,-1.0199,-1.0207,-1.0375,-1.0485,-1.0567,-1.0504,-1.0326,-0.9775,-0.9079,-0.8435,-0.7807,-0.7307,-0.6991,-0.7011,-0.7008,-0.7041,-0.7053,-0.6952,-0.6895,-0.6859,-0.6844,-0.6901,-0.6727,-0.6491,-0.6154,-0.5875,-0.5777,-0.5732,-0.5762,-0.5759,-0.5718,-1.7128,-1.7212,-1.7212,-1.7212,-1.7212,-1.7212,-1.7212,-1.7212,-1.7212,-1.7212,-1.7212,-1.7212,-1.7212,-1.7212,-1.7212,-1.7212,-1.7212,-1.7212,-1.7212,-1.7264,-1.7527,-1.7774,-1.7844,-1.7978,-1.803,-1.7865,-1.7787,-1.7722,-1.7804,-1.7106,-1.7111,-1.7008,-1.622,-1.5899,-1.5716,-1.5658,-1.562,-1.5672,-1.5691,-1.5581,-1.5255,-1.5004,-1.4854,-1.4878,-1.4342,-1.4063,-1.4099,-1.3781,-1.361,-1.361,-1.361,-1.361,-1.361,-1.361,-1.361,-1.3621,-1.3621,-1.361,-1.3724,-1.3807,-1.391,-1.3859,-1.3886,-1.3907,-1.3703,-1.3621,-1.3614,-1.3462,-1.2439,-1.2105,-1.2054,-1.1632,-1.143,-1.1143,-1.0963,-1.0986,-1.1012,-1.1262,-1.1371,-1.1371,-1.1269,-1.107,-1.099,-1.0887,-1.0608,-1.0491,-1.0646,-1.0602,-1.0653,-1.0674,-1.0532,-0.9952,-0.9285,-0.8635,-0.8031,-0.7424,-0.6997,-0.6898,-0.7061,-0.7208,-0.7212,-0.7159,-0.7094,-0.698,-0.7017,-0.6984,-0.6758,-0.6541,-0.6358,-0.6163,-0.6009,-0.5878,-0.5861,-0.585,-0.5827,-1.685,-1.7052,-1.671,-1.6676,-1.6858,-1.7081,-1.7212,-1.7212,-1.7212,-1.7212,-1.7212,-1.7212,-1.7212,-1.7212,-1.7212,-1.7212,-1.7204,-1.7145,-1.744,-1.7463,-1.7632,-1.7859,-1.8177,-1.8497,-1.8312,-1.8203,-1.8048,-1.8003,-1.79,-1.7082,-1.6764,-1.6623,-1.6423,-1.6095,-1.5989,-1.6013,-1.5849,-1.5824,-1.5709,-1.5655,-1.5386,-1.5156,-1.5057,-1.4903,-1.4546,-1.4131,-1.4055,-1.3888,-1.3631,-1.3631,-1.3631,-1.3621,-1.361,-1.361,-1.361,-1.3621,-1.3772,-1.3828,-1.3983,-1.4314,-1.4376,-1.4217,-1.4392,-1.4403,-1.4217,-1.4273,-1.4094,-1.3786,-1.318,-1.2717,-1.2414,-1.1932,-1.1486,-1.1174,-1.1167,-1.1211,-1.1246,-1.1496,-1.154,-1.1569,-1.1562,-1.1408,-1.1305,-1.1202,-1.1026,-1.099,-1.0975,-1.088,-1.0785,-1.0796,-1.0702,-1.0115,-0.9402,-0.8652,-0.7971,-0.7385,-0.7053,-0.6829,-0.6976,-0.7208,-0.7248,-0.7171,-0.7139,-0.718,-0.7187,-0.7106,-0.6764,-0.6543,-0.6346,-0.6221,-0.6153,-0.603,-0.5969,-0.5962,-0.5969,-1.6398,-1.6671,-1.581,-1.5732,-1.6157,-1.6803,-1.7136,-1.7191,-1.7191,-1.7191,-1.7199,-1.7191,-1.7178,-1.7178,-1.7199,-1.7264,-1.7318,-1.7207,-1.7565,-1.7865,-1.7915,-1.8042,-1.8215,-1.8447,-1.8377,-1.8218,-1.8012,-1.7845,-1.7773,-1.7211,-1.6579,-1.6096,-1.6125,-1.6129,-1.6225,-1.6201,-1.5992,-1.5937,-1.5944,-1.5807,-1.5526,-1.5206,-1.5211,-1.5065,-1.4741,-1.4501,-1.4345,-1.4077,-1.3828,-1.3745,-1.3659,-1.3641,-1.361,-1.361,-1.3621,-1.3796,-1.4134,-1.4262,-1.4397,-1.4769,-1.4966,-1.4904,-1.496,-1.5141,-1.5157,-1.4996,-1.4861,-1.4635,-1.4222,-1.3371,-1.2714,-1.2131,-1.1581,-1.1528,-1.1497,-1.1518,-1.1518,-1.1584,-1.1584,-1.1591,-1.1591,-1.1525,-1.1511,-1.143,-1.1305,-1.1327,-1.1276,-1.1232,-1.1142,-1.0986,-1.0795,-1.0297,-0.952,-0.8589,-0.7937,-0.7384,-0.6922,-0.6684,-0.6894,-0.7058,-0.7106,-0.7159,-0.7127,-0.7163,-0.7324,-0.7214,-0.6885,-0.6555,-0.6318,-0.6255,-0.6221,-0.6211,-0.6105,-0.6142,-0.6162,-1.5954,-1.5832,-1.5874,-1.5798,-1.5676,-1.6191,-1.6612,-1.6981,-1.7002,-1.7002,-1.7065,-1.7002,-1.6968,-1.7178,-1.7094,-1.7367,-1.7597,-1.7816,-1.8045,-1.8257,-1.8395,-1.851,-1.8623,-1.8684,-1.8484,-1.8038,-1.7754,-1.7679,-1.7684,-1.7288,-1.6954,-1.6606,-1.6347,-1.6435,-1.6401,-1.6418,-1.636,-1.6307,-1.6303,-1.6111,-1.5883,-1.5618,-1.561,-1.5423,-1.5075,-1.4894,-1.4738,-1.437,-1.4242,-1.4469,-1.3921,-1.3652,-1.361,-1.3628,-1.3741,-1.4542,-1.4749,-1.4811,-1.4873,-1.5235,-1.5467,-1.543,-1.5446,-1.5403,-1.5523,-1.5546,-1.5461,-1.5089,-1.4315,-1.3169,-1.2622,-1.2173,-1.1747,-1.1591,-1.1591,-1.1591,-1.1591,-1.1591,-1.1591,-1.1591,-1.1591,-1.1591,-1.1591,-1.1569,-1.1474,-1.1547,-1.1569,-1.1503,-1.1427,-1.1236,-1.0685,-1.0168,-0.947,-0.8492,-0.7969,-0.7394,-0.6937,-0.6607,-0.682,-0.6951,-0.696,-0.7013,-0.7054,-0.7102,-0.7199,-0.7126,-0.6923,-0.6633,-0.6296,-0.63,-0.6272,-0.6286,-0.63,-0.63,-0.63,-1.5333,-1.5266,-1.5152,-1.5163,-1.5321,-1.5589,-1.5998,-1.6423,-1.6539,-1.6603,-1.6603,-1.6367,-1.6454,-1.6761,-1.6921,-1.7313,-1.7876,-1.8029,-1.836,-1.8842,-1.8834,-1.8653,-1.8678,-1.8668,-1.8319,-1.785,-1.7584,-1.7531,-1.7478,-1.7252,-1.6927,-1.6613,-1.6648,-1.6573,-1.6475,-1.6451,-1.651,-1.6557,-1.6606,-1.6563,-1.6352,-1.6105,-1.6022,-1.5856,-1.5521,-1.5318,-1.5214,-1.4821,-1.479,-1.4966,-1.4304,-1.3962,-1.4045,-1.4196,-1.4821,-1.5494,-1.5339,-1.5256,-1.5256,-1.5708,-1.5738,-1.5664,-1.5618,-1.5481,-1.5584,-1.5727,-1.537,-1.4943,-1.3696,-1.2673,-1.2474,-1.2236,-1.1903,-1.1591,-1.1591,-1.1591,-1.1591,-1.1591,-1.1591,-1.1591,-1.1591,-1.1591,-1.1591,-1.1591,-1.1591,-1.1591,-1.1591,-1.1569,-1.1485,-1.1344,-1.0559,-0.9767,-0.9128,-0.8365,-0.7846,-0.7318,-0.6894,-0.6603,-0.6704,-0.6845,-0.6842,-0.6976,-0.7123,-0.7076,-0.6983,-0.6942,-0.6896,-0.656,-0.63,-0.63,-0.63,-0.63,-0.63,-0.63,-0.63,-1.4628,-1.4892,-1.3988,-1.4258,-1.504,-1.5074,-1.5322,-1.5722,-1.5864,-1.6005,-1.5952,-1.5599,-1.5736,-1.6272,-1.6587,-1.7126,-1.7629,-1.7958,-1.8462,-1.9267,-1.8434,-1.8197,-1.8327,-1.8147,-1.7791,-1.7644,-1.7468,-1.7153,-1.7086,-1.6892,-1.662,-1.6402,-1.642,-1.6402,-1.6431,-1.6431,-1.6459,-1.6488,-1.6534,-1.6506,-1.642,-1.6381,-1.6392,-1.6309,-1.6029,-1.5732,-1.5628,-1.538,-1.508,-1.5101,-1.4873,-1.449,-1.4614,-1.5204,-1.6008,-1.6184,-1.5915,-1.5742,-1.5656,-1.5938,-1.581,-1.5661,-1.5507,-1.5206,-1.5206,-1.5515,-1.5255,-1.4597,-1.345,-1.2781,-1.2513,-1.2081,-1.1716,-1.1591,-1.1591,-1.1591,-1.1591,-1.1591,-1.1591,-1.1591,-1.1591,-1.1591,-1.1591,-1.1591,-1.1591,-1.1591,-1.1591,-1.1591,-1.1505,-1.1373,-1.0604,-0.9608,-0.893,-0.8264,-0.7489,-0.6996,-0.6772,-0.6627,-0.6733,-0.6867,-0.7017,-0.7131,-0.7228,-0.7167,-0.7091,-0.6935,-0.6826,-0.6525,-0.6296,-0.63,-0.63,-0.63,-0.63,-0.63,-0.63,-1.4222,-1.3941,-1.3705,-1.4176,-1.4983,-1.472,-1.4823,-1.521,-1.4926,-1.5073,-1.5378,-1.5289,-1.5486,-1.6009,-1.615,-1.6705,-1.7502,-1.7799,-1.8322,-1.8654,-1.8274,-1.7891,-1.8054,-1.7628,-1.7207,-1.6835,-1.6676,-1.6722,-1.6666,-1.6506,-1.6402,-1.6402,-1.6402,-1.6402,-1.6402,-1.6402,-1.6402,-1.6402,-1.6431,-1.6449,-1.6402,-1.6402,-1.6392,-1.6371,-1.6205,-1.6184,-1.6022,-1.5773,-1.5815,-1.5918,-1.5277,-1.4925,-1.4733,-1.5815,-1.628,-1.6343,-1.6182,-1.6097,-1.6012,-1.5916,-1.5575,-1.5245,-1.4942,-1.4627,-1.4627,-1.504,-1.4913,-1.4181,-1.358,-1.2995,-1.2451,-1.1957,-1.1591,-1.1591,-1.1591,-1.1591,-1.1591,-1.1591,-1.1591,-1.1591,-1.1591,-1.1591,-1.1591,-1.1591,-1.1591,-1.1591,-1.1591,-1.156,-1.1481,-1.1324,-1.0719,-0.9786,-0.8967,-0.8242,-0.7321,-0.6856,-0.6721,-0.6769,-0.6903,-0.7045,-0.7192,-0.7277,-0.7358,-0.7297,-0.7203,-0.7019,-0.6791,-0.6525,-0.6374,-0.6296,-0.63,-0.63,-0.63,-0.63,-0.63,-1.3881,-1.3644,-1.3847,-1.4257,-1.4674,-1.4512,-1.4558,-1.4651,-1.4257,-1.4222,-1.4513,-1.4534,-1.4871,-1.5638,-1.5783,-1.6421,-1.7353,-1.7682,-1.8087,-1.8347,-1.812,-1.7754,-1.7451,-1.7168,-1.6825,-1.6431,-1.6402,-1.642,-1.6402,-1.6402,-1.6402,-1.6402,-1.6402,-1.6402,-1.6402,-1.6402,-1.6402,-1.6402,-1.6402,-1.6402,-1.6402,-1.6402,-1.6402,-1.6402,-1.6402,-1.6402,-1.634,-1.6105,-1.6187,-1.6288,-1.5884,-1.5722,-1.5691,-1.6133,-1.6104,-1.5933,-1.5884,-1.6173,-1.6116,-1.5759,-1.5137,-1.4617,-1.4341,-1.4022,-1.3731,-1.4082,-1.4261,-1.3631,-1.3601,-1.3147,-1.2413,-1.1895,-1.1685,-1.1591,-1.1591,-1.1591,-1.1591,-1.1591,-1.1591,-1.1591,-1.1591,-1.1591,-1.1591,-1.1591,-1.1591,-1.1591,-1.1591,-1.1591,-1.1512,-1.1146,-1.0546,-0.9872,-0.8989,-0.798,-0.6951,-0.6722,-0.6777,-0.6875,-0.7025,-0.7196,-0.7317,-0.7403,-0.748,-0.7407,-0.7253,-0.698,-0.6753,-0.6528,-0.6374,-0.6296,-0.63,-0.63,-0.63,-0.6306,-0.6317,-1.3621,-1.3692,-1.4082,-1.4303,-1.4303,-1.4291,-1.428,-1.421,-1.381,-1.3621,-1.3736,-1.3765,-1.4229,-1.4956,-1.5644,-1.6413,-1.7006,-1.7305,-1.772,-1.7797,-1.7379,-1.7313,-1.7112,-1.6712,-1.6506,-1.6431,-1.6402,-1.6402,-1.6402,-1.6402,-1.6402,-1.6402,-1.6402,-1.6402,-1.6402,-1.6402,-1.6402,-1.6402,-1.6402,-1.6402,-1.6402,-1.6402,-1.6402,-1.6402,-1.6402,-1.6402,-1.6402,-1.6402,-1.6402,-1.6371,-1.6309,-1.6247,-1.6216,-1.6291,-1.5728,-1.5517,-1.5604,-1.5846,-1.5846,-1.5274,-1.441,-1.3752,-1.3623,-1.345,-1.3186,-1.3155,-1.3329,-1.3329,-1.3299,-1.3025,-1.229,-1.1895,-1.1716,-1.1591,-1.1591,-1.1591,-1.1591,-1.1591,-1.1591,-1.1591,-1.1591,-1.1591,-1.1591,-1.1591,-1.1599,-1.1599,-1.1599,-1.1591,-1.1423,-1.0846,-1.0247,-0.9579,-0.8818,-0.776,-0.673,-0.6706,-0.6879,-0.6997,-0.7179,-0.7317,-0.7423,-0.746,-0.748,-0.7446,-0.7249,-0.698,-0.6753,-0.6567,-0.6412,-0.63,-0.63,-0.63,-0.632,-0.6327,-0.6347,-1.361,-1.361,-1.3716,-1.3752,-1.3752,-1.3752,-1.3739,-1.3752,-1.3658,-1.361,-1.3745,-1.4066,-1.4514,-1.5049,-1.5509,-1.6136,-1.6631,-1.6888,-1.7101,-1.7213,-1.687,-1.6916,-1.6888,-1.6609,-1.6449,-1.6402,-1.6402,-1.6402,-1.6402,-1.6402,-1.6402,-1.6402,-1.6402,-1.6402,-1.6402,-1.6402,-1.6423,-1.6425,-1.6467,-1.6467,-1.6496,-1.6475,-1.6402,-1.6402,-1.6402,-1.6402,-1.6402,-1.6402,-1.6402,-1.6402,-1.6402,-1.6402,-1.6402,-1.6345,-1.5817,-1.5245,-1.5342,-1.5284,-1.5098,-1.4686,-1.3851,-1.3033,-1.2972,-1.3003,-1.2767,-1.2605,-1.2689,-1.2628,-1.2536,-1.2382,-1.1895,-1.1747,-1.1591,-1.1591,-1.1591,-1.1591,-1.1591,-1.1591,-1.1591,-1.1591,-1.1591,-1.1591,-1.1591,-1.1599,-1.1621,-1.1628,-1.1657,-1.1626,-1.151,-1.0783,-0.997,-0.9205,-0.8498,-0.7755,-0.6821,-0.6951,-0.711,-0.7204,-0.7281,-0.7387,-0.7452,-0.7506,-0.748,-0.7407,-0.7215,-0.6942,-0.6753,-0.6528,-0.6412,-0.63,-0.63,-0.6303,-0.633,-0.6375,-0.6419]},{"header":{"parameterUnit":"m.s-1","parameterCategory":1,"la1":31.0,"la2":29.5877,"lo1":-88.7671,"lo2":-86.6584,"dy":0.0162,"dx":0.0185,"nx":115,"ny":88,"refTime":"2026-03-24T00:00:00:Z","depth":0,"parameterNumber":3,"parameterNumberName":"V-component_of_WINDS"},"data":[0.0,0.0,0.0,0.0,0.0,0.0,0.0,0.0,0.0,0.0,0.0,0.0,0.0,0.0,0.0,0.0,0.0,0.0,0.0,0.0,0.0,0.0,0.0,0.0,0.0,0.0,0.0,0.0,0.0,0.0,0.0,0.0,0.0,0.0,0.0,0.0,0.0,0.0,0.0,0.0,0.0,0.0,0.0,0.0,0.0,0.0,0.0,0.0,0.0,0.0,0.0,0.0,0.0,0.0,0.0,0.0,0.0,0.0,0.0,0.0,0.0,0.0,0.0,0.0,0.0,0.0,0.0,0.0,0.0,0.0,0.0,0.0,0.0,0.0,0.0,0.0,0.0,0.0,0.0,0.0,0.0,0.0,0.0,0.0,0.0,0.0,0.0,0.0,0.0,0.0,0.0,0.0,0.0,0.0,0.0,0.0,0.0,0.0,0.0,0.0,0.0,0.0,0.0,0.0,0.0,0.0,0.0,0.0,0.0,0.0,0.0,0.0,0.0,0.0,0.0,0.0,0.0,0.0,0.0,0.0,0.0,0.0,0.0,0.0,0.0,0.0,0.0,0.0,0.0,0.0,0.0,0.0,0.0,0.0,0.0,0.0,0.0,0.0,0.0,0.0,0.0,0.0,0.0,0.0,0.0,0.0,0.0,0.0,0.0,0.0,0.0,0.0,0.0,0.0,0.0,0.0,0.0,0.0,0.0,0.0,0.0,0.0,0.0,0.0,0.0,0.0,0.0,0.0,0.0,0.0,0.0,0.0,0.0,0.0,0.0,0.0,0.0,0.0,0.0,0.0,0.0,0.0,0.0,0.0,0.0,0.0,0.0,0.0,0.0,0.0,0.0,0.0,0.0,0.0,0.0,0.0,0.0,0.0,0.0,0.0,0.0,0.0,0.0,0.0,0.0,0.0,0.0,0.0,0.0,0.0,0.0,0.0,0.0,0.0,0.0,0.0,0.0,0.0,0.0,0.0,0.0,0.0,0.0,0.0,0.0,0.0,0.0,0.0,0.0,0.0,0.0,0.0,0.0,0.0,0.0,0.0,0.0,0.0,0.0,0.0,0.0,0.0,0.0,0.0,0.0,0.0,0.0,0.0,0.0,0.0,0.0,0.0,0.0,0.0,0.0,0.0,0.0,0.0,0.0,0.0,0.0,0.0,0.0,0.0,0.0,0.0,0.0,0.0,0.0,0.0,0.0,0.0,0.0,0.0,0.0,0.0,0.0,0.0,0.0,0.0,0.0,0.0,0.0,0.0,0.0,0.0,0.0,0.0,0.0,0.0,0.0,0.0,0.0,0.0,0.0,0.0,0.0,0.0,0.0,0.0,0.0,0.0,0.0,0.0,0.0,0.0,0.0,0.0,0.0,0.0,0.0,0.0,0.0,0.0,0.0,0.0,0.0,0.0,0.0,0.0,0.0,0.0,0.0,0.0,0.0,0.0,0.0,0.0,0.0,0.0,0.0,0.0,0.0,0.0,0.0,0.0,0.0,0.0,0.0,0.0,0.0,0.0,0.0,0.0,0.0,0.0,0.0,0.0,0.0,0.0,0.0,0.0,0.0,0.0,0.0,0.0,0.0,0.0,0.0,0.0,0.0,0.0,0.0,0.0,0.0,0.0,0.0,0.0,0.0,0.0,0.0,0.0,0.0,0.0,0.0,0.0,0.0,0.0,0.0,0.0,0.0,0.0,0.0,0.0,0.0,0.0,0.0,0.0,0.0,0.0,0.0,0.0,0.0,0.0,0.0,0.0,0.0,0.0,0.0,0.0,0.0,0.0,0.0,0.0,0.0,0.0,0.0,0.0,0.0,0.0,0.0,0.0,0.0,0.0,0.0,0.0,0.0,0.0,0.0,0.0,0.0,0.0,0.0,0.0,0.0,0.0,0.0,0.0,0.0,0.0,0.0,0.0,0.0,0.0,0.0,0.0,0.0,0.0,0.0,0.0,0.0,0.0,0.0,0.0,0.0,0.0,0.0,0.0,0.0,0.0,0.0,0.0,0.0,0.0,0.0,0.0,0.0,0.0,0.0,0.0,0.0,0.0,0.0,0.0,0.0,0.0,0.0,0.0,0.0,0.0,0.0,0.0,0.0,0.0,0.0,0.0,0.0,0.0,0.0,0.0,0.0,0.0,0.0,0.0,0.0,0.0,0.0,0.0,0.0,0.0,0.0,0.0,0.0,0.0,0.0,0.0,0.0,0.0,0.0,0.0,0.0,0.0,0.0,0.0,0.0,0.0,0.0,0.0,0.0,0.0,0.0,0.0,0.0,0.0,0.0,0.0,0.0,0.0,0.0,0.0,0.0,0.0,0.0,0.0,0.0,0.0,0.0,0.0,0.0,0.0,0.0,0.0,0.0,0.0,0.0,0.0,0.0,0.0,0.0,0.0,0.0,0.0,0.0,0.0,0.0,0.0,0.0,0.0,0.0,0.0,0.0,0.0,0.0,0.0,0.0,0.0,0.0,0.0,0.0,0.0,0.0,0.0,0.0,0.0,0.0,0.0,0.0,0.0,0.0,0.0,0.0,0.0,0.0,0.0,0.0,0.0,0.0,0.0,0.0,0.0,0.0,0.0,0.0,0.0,0.0,0.0,0.0,0.0,0.0,0.0,0.0,0.0,0.0,0.0,0.0,0.0,0.0,0.0,0.0,0.0,0.0,0.0,0.0,0.0,0.0,0.0,0.0,0.0,0.0,0.0,0.0,0.0,0.0,0.0,0.0,0.0,0.0,0.0,0.0,0.0,0.0,0.0,0.0,0.0,0.0,0.0,0.0,0.0,0.0,0.0,0.0,0.0,0.0,0.0,0.0,0.0,0.0,0.0,0.0,0.0,0.0,0.0,0.0,0.0,0.0,0.0,0.0,0.0,0.0,0.0,0.0,0.0,0.0,0.0,0.0,0.0,0.0,0.0,0.0,0.0,0.0,0.0,0.0,0.0,0.0,0.0,0.0,0.0,0.0,0.0,0.0,0.0,0.0,0.0,0.0,0.0,0.0,0.0,0.0,0.0,0.0,0.0,0.0,0.0,0.0,0.0,0.0,0.0,0.0,0.0,0.0,0.0,0.0,0.0,0.0,0.0,0.0,0.0,0.0,0.0,0.0,0.0,0.0,0.0,0.0,0.0,0.0,0.0,0.0,0.0,0.0,0.0,0.0,0.0,0.0,0.0,0.0,0.0,0.0,0.0,0.0,0.0,0.0,0.0,0.0,0.0,0.0,0.0,0.0,0.0,0.0,0.0,0.0,0.0,0.0,0.0,0.0,0.0,0.0,0.0,0.0,0.0,0.0,0.0,0.0,0.0,0.0,0.0,0.0,0.0,0.0,0.0,0.0,0.0,0.0,0.0,0.0,0.0,0.0,0.0,0.0,0.0,0.0,0.0,0.0,0.0,0.0,0.0,0.0,0.0,0.0,0.0,0.0,0.0,0.0,0.0,0.0,0.0,0.0,0.0,0.0,0.0,0.0,0.0,0.0,0.0,0.0,0.0,0.0,0.0,0.0,0.0,0.0,0.0,0.0,0.0,0.0,0.0,0.0,0.0,0.0,0.0,0.0,0.0,0.0,0.0,0.0,0.0,0.0,0.0,0.0,0.0,0.0,0.0,0.0,0.0,0.0,0.0,0.0,0.0,0.0,0.0,0.0,0.0,0.0,0.0,0.0,0.0,0.0,0.0,0.0,0.0,0.0,0.0,0.0,0.0,0.0,0.0,0.0,0.0,0.0,0.0,0.0,0.0,0.0,0.0,0.0,0.0,0.0,0.0,0.0,0.0,0.0,0.0,0.0,0.0,0.0,0.0,0.0,0.0,0.0,0.0,0.0,0.0,0.0,0.0,0.0,0.0,0.0,0.0,0.0,0.0,0.0,0.0,0.0,0.0,0.0,0.0,0.0,0.0,0.0,0.0,0.0,0.0,0.0,0.0,0.0,0.0,0.0,0.0,0.0,0.0,0.0,0.0,0.0,0.0,0.0,0.0,0.0,0.0,0.0,0.0,0.0,0.0,0.0,0.0,0.0,0.0,0.0,0.0,0.0,0.0,0.0,0.0,0.0,0.0,0.0,0.0,0.0,0.0,0.0,0.0,0.0,0.0,0.0,0.0,0.0,0.0,0.0,0.0,0.0,0.0,0.0,0.0,0.0,0.0,0.0,0.0,0.0,0.0,0.0,0.0,0.0,0.0,0.0,0.0,0.0,0.0,0.0,0.0,0.0,0.0,0.0,0.0,0.0,0.0,0.0,0.0,0.0,0.0,0.0,0.0,0.0,0.0,0.0,0.0,0.4278,0.0,0.0,0.0,0.0,0.0,0.0,0.0,0.0,0.0,0.0,0.0,0.0,0.0,0.0,0.0,0.0,0.0,0.0,0.0,0.0,0.0,0.0,0.0,0.0,0.0,0.0,0.0,0.0,0.0,0.0,0.0,0.0,0.0,0.0,0.0,0.0,0.0,0.0,0.0,0.0,0.0,0.0,0.0,0.0,0.0,0.0,0.0,0.0,0.0,0.0,0.0,0.0,0.0,0.0,0.0,0.0,0.0,0.0,0.0,0.0,0.0,0.0,0.0,0.0,0.0,0.0,0.0,0.0,0.0,0.0,0.0,0.0,0.0,0.0,0.0,0.0,0.0,0.0,0.0,0.0,0.0,0.0,0.0,0.0,0.0,0.0,0.0,0.0,0.0,0.0,0.0,0.0,0.0,0.0,0.0,0.0,0.0,0.0,0.0,0.0,0.0,0.0,0.0,0.0,0.0,0.0,0.0,0.0,0.0,0.0,0.4068,0.4179,0.4246,0.4265,0.4303,0.0,0.0,0.0,0.0,0.0,0.0,0.0,0.0,0.0,0.0,0.0,0.0,0.0,0.0,0.0,0.0,0.0,0.0,0.0,0.0,0.0,0.0,0.0,0.0,0.0,0.0,0.0,0.0,0.0,0.0,0.0,0.0,0.0,0.0,0.0,0.0,0.0,0.0,0.0,0.0,0.0,0.0,0.0,0.0,0.0,0.0,0.0,0.0,0.0,0.0,0.0,0.0,0.0,0.0,0.0,0.0,0.0,0.0,0.0,0.0,0.0,0.0,0.0,0.0,0.0,0.0,0.0,0.0,0.0,0.0,0.0,0.0,0.0,0.0,0.0,0.0,0.0,0.0,0.0,0.0,0.0,0.0,0.0,0.0,0.0,0.0,0.0,0.0,0.0,0.0,0.0,0.0,0.0,0.0,0.0,0.0,0.0,0.0,0.0,0.0,0.0,0.0,0.0,0.0,0.0,0.0,0.0,0.0,0.0,0.0,0.0,0.0,0.429,0.4332,0.4347,0.0,0.0,0.0,0.0,0.0,0.0,0.0,0.0,0.0,0.0,0.0,0.0,0.0,0.0,0.0,0.0,0.0,0.0,0.0,0.0,0.0,0.0,0.0,0.0,0.0,0.0,0.0,0.0,0.0,0.0,0.0,0.0,0.0,0.0,0.0,0.0,0.0,0.0,0.0,0.0,0.0,0.0,0.0,0.0,0.0,0.0,0.0,0.0,0.0,0.0,0.0,0.0,0.0,0.0,0.0,0.0,0.0,0.0,0.0,0.0,0.0,0.0,0.0,0.0,0.0,0.0,0.0,0.0,0.0,0.0,0.0,0.0,0.0,0.0,0.0,0.0,0.0,0.0,0.0,0.0,0.0,0.0,0.0,0.0,0.0,0.0,0.0,0.0,0.0,0.0,0.0,0.0,0.0,0.0,0.0,0.0,0.0,0.0,0.0,0.0,0.0,0.0,0.0,0.0,0.0,0.0,0.0,0.0,0.0,0.0,0.423,0.4281,0.4343,0.0,0.4482,0.0,0.0,0.0,0.0,0.0,0.0,0.0,0.0,0.0,0.0,0.0,0.0,0.0,0.0,0.0,0.0,0.0,0.0,0.0,0.0,0.0,0.0,0.0,0.0,0.0,0.0,0.0,0.0,0.0,0.0,0.0,0.0,0.0,0.0,0.0,0.0,0.0,0.0,0.0,0.0,0.0,0.0,0.0,0.0,0.0,0.0,0.0,0.0,0.0,0.0,0.0,0.0,0.0,0.0,0.0,0.0,0.0,0.0,0.0,0.0,0.0,0.0,0.0,0.0,0.0,0.0,0.0,0.0,0.0,0.0,0.0,0.0,0.0,0.0,0.0,0.0,0.0,0.0,0.0,0.0,0.0,0.0,0.0,0.0,0.0,0.0,0.0,0.0,0.0,0.0,0.0,0.0,0.0,0.0,0.0,0.0,0.0,0.0,0.0,0.0,0.0,0.0,0.0,0.0,0.0,0.0,0.0,0.0,0.0,0.0,0.0,0.4303,0.4408,0.4485,0.0,0.0,0.0,0.0,0.0,0.0,0.0,0.0,0.0,0.0,0.0,0.0,0.0,0.0,0.0,0.0,0.0,0.0,0.0,0.0,0.0,0.0,0.0,0.0,0.0,0.0,0.0,0.0,0.0,0.0,0.0,0.0,0.0,0.0,0.0,0.0,0.0,0.0,0.0,0.0,0.0,0.0,0.0,0.0,0.0,0.0,0.0,0.0,0.0,0.0,0.0,0.0,0.0,0.0,0.0,0.0,0.0,0.0,0.0,0.0,0.0,0.0,0.0,0.0,0.0,0.0,0.0,0.0,0.0,0.0,0.0,0.0,0.0,0.0,0.0,0.0,0.0,0.0,0.0,0.0,0.0,0.0,0.0,0.0,0.0,0.0,0.0,0.0,0.0,0.0,0.0,0.0,0.0,0.0,0.0,0.0,0.0,0.0,0.0,0.0,0.0,0.0,0.0,0.0,0.0,0.0,0.0,0.0,0.0,0.0,0.4224,0.0,0.4365,0.444,0.4481,0.4488,0.0,0.0,0.0,0.0,0.0,0.0,0.0,0.0,0.0,0.0,0.0,0.0,0.0,0.0,0.0,0.0,0.0,0.0,0.0,0.0,0.0,0.0,0.0,0.0,0.0,0.0,0.0,0.0,0.0,0.0,0.0,0.0,0.0,0.0,0.0,0.0,0.0,0.0,0.0,0.0,0.0,0.0,0.0,0.0,0.0,0.0,0.0,0.0,0.0,0.0,0.0,0.0,0.0,0.0,0.0,0.0,0.0,0.0,0.0,0.0,0.0,0.0,0.0,0.0,0.0,0.0,0.0,0.0,0.0,0.0,0.0,0.0,0.0,0.0,0.0,0.0,0.0,0.0,0.0,0.0,0.0,0.0,0.0,0.0,0.0,0.0,0.0,0.0,0.0,0.0,0.0,0.0,0.0,0.0,0.0,0.0,0.0,0.0,0.0,0.0,0.0,0.0,0.0,0.0,0.0,0.0,0.0,0.0,0.0,0.4269,0.4368,0.4488,0.4487,0.4487,0.0,0.0,0.0,0.0,0.0,0.0,0.0,0.0,0.0,0.0,0.0,0.0,0.0,0.0,0.0,0.0,0.0,0.0,0.0,0.0,0.0,0.0,0.0,0.0,0.0,0.0,0.0,0.0,0.0,0.0,0.0,0.0,0.0,0.0,0.0,0.0,0.0,0.0,0.0,0.0,0.0,0.0,0.0,0.0,0.0,0.0,0.0,0.0,0.0,0.0,0.0,0.0,0.0,0.0,0.0,0.0,0.0,0.0,0.0,0.0,0.0,0.0,0.0,0.0,0.0,0.0,0.0,0.0,0.0,0.0,0.0,0.0,0.0,0.0,0.0,0.0,0.0,0.0,0.0,0.0,0.0,0.0,0.0,0.0,0.0,0.0,0.0,0.0,0.0,0.0,0.0,0.0,0.0,0.0,0.0,0.0,0.0,0.0,0.0,0.0,0.0,0.0,0.0,0.0,0.0,0.0,0.0,0.0,0.0,0.4191,0.4308,0.4409,0.4484,0.4489,0.4494,0.0,0.0,0.0,0.0,0.0,0.0,0.0,0.0,0.0,0.0,0.0,0.0,0.0,0.0,0.0,0.0,0.0,0.0,0.0,0.0,0.0,0.0,0.0,0.0,0.0,0.0,0.0,0.0,0.0,0.0,0.0,0.0,0.0,0.0,0.0,0.0,0.0,0.0,0.0,0.0,0.0,0.0,0.0,0.0,0.0,0.0,0.0,0.0,0.0,0.0,0.0,0.0,0.0,0.0,0.0,0.0,0.0,0.0,0.0,0.0,0.0,0.0,0.0,0.0,0.0,0.0,0.0,0.0,0.0,0.0,0.0,0.0,0.0,0.0,0.0,0.0,0.0,0.0,0.0,0.0,0.0,0.0,0.0,0.0,0.0,0.0,0.0,0.0,0.0,0.0,0.0,0.0,0.0,0.0,0.0,0.0,0.0,0.0,0.0,0.0,0.0,0.0,0.0,0.0,0.0,0.0,0.0,0.0,0.0,0.4256,0.0,0.4448,0.0,0.4494,0.449,0.0,0.0,0.0,0.0,0.0,0.0,0.0,0.0,0.0,0.0,0.0,0.0,0.0,0.0,0.0,0.0,0.0,0.0,0.0,0.0,0.0,0.0,0.0,0.0,0.0,0.0,0.0,0.0,0.0,0.0,0.0,0.0,0.0,0.0,0.0,0.0,0.0,0.0,0.0,0.0,0.0,0.0,0.0,0.0,0.0,0.0,0.0,0.0,0.0,0.0,0.0,0.0,0.0,0.0,0.0,0.0,0.0,0.0,0.0,0.0,0.0,0.0,0.0,0.0,0.0,0.0,0.0,0.0,0.0,0.0,0.0,0.0,0.0,0.0,0.0,0.0,0.0,0.0,0.0,0.0,0.0,0.0,0.0,0.0,0.0,0.0,0.0,0.0,0.0,0.0,0.0,0.0,0.0,0.0,0.0,0.0,0.0,0.0,0.0,0.0,0.0,0.0,0.0,0.0,0.0,0.0,0.0,0.0,0.0,0.4393,0.4471,0.4544,0.4487,0.4502,0.4498,0.0,0.0,0.0,0.0,0.0,0.0,0.0,0.0,0.0,0.0,0.0,0.0,0.0,0.0,0.0,0.0,0.0,0.0,0.0,0.0,0.0,0.0,0.0,0.0,0.0,0.0,0.0,0.0,0.0,0.0,0.0,0.0,0.0,0.0,0.0,0.0,0.0,0.0,0.0,0.0,0.0,0.0,0.0,0.0,0.0,0.0,0.0,0.0,0.0,0.0,0.0,0.0,0.0,0.0,0.0,0.0,0.0,0.0,0.0,0.0,0.0,0.0,0.0,0.0,0.0,0.0,0.0,0.0,0.0,0.0,0.0,0.0,0.0,0.0,0.0,0.0,0.0,0.0,0.0,0.0,0.0,0.0,0.0,0.0,0.0,0.0,0.0,0.0,0.0,0.0,0.0,0.0,0.0,0.0,0.0,0.0,0.0,0.0,0.0,0.0,0.0,0.0,0.0,0.0,0.0,0.0,0.0,0.0,0.0,0.4406,0.5009,0.5076,0.4614,0.4574,0.4597,0.0,0.0,0.0,0.0,0.0,0.0,0.0,0.0,0.0,0.0,0.0,0.0,0.0,0.0,0.0,0.0,0.0,0.0,0.0,0.0,0.0,0.0,0.0,0.0,0.0,0.0,0.0,0.0,0.0,0.0,0.0,0.0,0.0,0.0,0.0,0.0,0.0,0.0,0.0,0.0,0.0,0.0,0.0,0.0,0.0,0.0,0.0,0.0,0.0,0.0,0.0,0.0,0.0,0.0,0.0,0.0,0.0,0.0,0.0,0.0,0.0,0.0,0.0,0.0,0.0,0.0,0.0,0.0,0.0,0.0,0.0,0.0,0.0,0.0,0.0,0.0,0.0,0.0,0.0,0.0,0.0,0.0,0.0,0.0,0.0,0.0,0.0,0.0,0.0,0.0,0.0,0.0,0.0,0.0,0.0,0.0,0.0,0.0,0.0,0.0,0.0,0.0,0.0,0.0,0.0,0.0,0.0,0.0,0.0,0.4465,0.4961,0.5041,0.4617,0.4582,0.4597,0.4668,0.0,0.0,0.0,0.0,0.0,0.0,0.0,0.0,0.0,0.0,0.0,0.0,0.0,0.0,0.0,0.0,0.0,0.0,0.0,0.0,0.0,0.0,0.0,0.0,0.0,0.0,0.0,0.0,0.0,0.0,0.0,0.0,0.0,0.0,0.0,0.0,0.0,0.0,0.0,0.0,0.0,0.0,0.0,0.0,0.0,0.0,0.0,0.0,0.0,0.0,0.0,0.0,0.0,0.0,0.0,0.0,0.0,0.0,0.0,0.0,0.0,0.0,0.0,0.0,0.0,0.0,0.0,0.0,0.0,0.0,0.0,0.0,0.0,0.0,0.0,0.0,0.0,0.0,0.0,0.0,0.0,0.0,0.0,0.0,0.0,0.0,0.0,0.0,0.0,0.0,0.0,0.0,0.0,0.0,0.0,0.0,0.0,0.0,0.0,0.0,0.0,0.0,0.0,0.0,0.0,0.0,0.0,0.0,0.4508,0.449,0.4544,0.4617,0.4542,0.4549,0.0,0.0,0.0,0.0,0.0,0.0,0.0,0.0,0.0,0.0,0.0,0.0,0.0,0.0,0.0,0.0,0.0,0.0,0.0,0.0,0.0,0.0,0.0,0.0,0.0,0.0,0.0,0.0,0.0,0.0,0.0,0.0,0.0,0.0,0.0,0.0,0.0,0.0,0.0,0.0,0.0,0.0,0.0,0.0,0.0,0.0,0.0,0.0,0.0,0.0,0.0,0.0,0.0,0.0,0.0,0.0,0.0,0.0,0.0,0.0,0.0,0.0,0.0,0.0,0.0,0.0,0.0,0.0,0.0,0.0,0.0,0.0,0.0,0.0,0.0,0.0,0.0,0.0,0.0,0.0,0.0,0.0,0.0,0.0,0.0,0.0,0.0,0.0,0.0,0.0,0.0,0.0,0.0,0.0,0.0,0.0,0.0,0.0,0.0,0.0,0.0,0.0,0.0,0.0,0.0,0.0,0.0,0.0,0.0,0.4498,0.4485,0.4536,0.4597,0.4634,0.4653,0.0,0.0,0.0,0.0,0.0,0.0,0.0,0.0,0.0,0.0,0.0,0.0,0.0,0.0,0.0,0.0,0.0,0.0,0.0,0.0,0.0,0.0,0.0,0.0,0.0,0.0,0.0,0.0,0.0,0.0,0.0,0.0,0.0,0.0,0.0,0.0,0.0,0.0,0.0,0.0,0.0,0.0,0.0,0.0,0.0,0.0,0.0,0.0,0.0,0.0,0.0,0.0,0.0,0.0,0.0,0.0,0.0,0.0,0.0,0.0,0.0,0.0,0.0,0.0,0.0,0.0,0.0,0.0,0.0,0.0,0.0,0.0,0.0,0.0,0.0,0.0,0.0,0.0,0.0,0.0,0.0,0.0,0.0,0.0,0.0,0.0,0.0,0.0,0.0,0.0,0.0,0.0,0.0,0.0,0.0,0.0,0.0,0.0,0.0,0.0,0.0,0.0,0.0,0.0,0.0,0.0,0.0,0.0,0.4751,0.5438,0.484,0.4687,0.5053,0.5097,0.4984,0.0,0.0,0.0,0.0,0.0,0.0,0.0,0.0,0.0,0.0,0.0,0.0,0.0,0.0,0.0,0.0,0.0,0.0,0.0,0.0,0.0,0.0,0.0,0.0,0.0,0.0,0.0,0.0,0.0,0.0,0.0,0.0,0.0,0.0,0.0,0.0,0.0,0.0,0.0,0.0,0.0,0.0,0.0,0.0,0.0,0.0,0.0,0.0,0.0,0.0,0.0,0.0,0.0,0.0,0.0,0.0,0.0,0.0,0.0,0.0,0.0,0.0,0.0,0.0,0.0,0.0,0.0,0.0,0.0,0.0,0.0,0.0,0.0,0.0,0.0,0.0,0.0,0.0,0.0,0.0,0.0,0.0,0.0,0.0,0.0,0.0,0.0,0.0,0.0,0.0,0.0,0.0,0.0,0.0,0.0,0.0,0.0,0.0,0.0,0.0,0.0,0.0,0.0,0.0,0.0,0.0,0.0,0.0,0.514,0.6622,0.5335,0.4969,0.5655,0.5627,0.5302,0.0,0.0,0.0,0.0,0.0,0.0,0.0,0.0,0.0,0.0,0.0,0.0,0.0,0.0,0.0,0.0,0.0,0.0,0.0,0.0,0.0,0.0,0.0,0.0,0.0,0.0,0.0,0.0,0.0,0.0,0.0,0.0,0.0,0.0,0.0,0.0,0.0,0.0,0.0,0.0,0.0,0.0,0.0,0.0,0.0,0.0,0.0,0.0,0.0,0.0,0.0,0.0,0.0,0.0,0.0,0.0,0.0,0.0,0.0,0.0,0.0,0.0,0.0,0.0,0.0,0.0,0.0,0.0,0.0,0.0,0.0,0.0,0.0,0.0,0.0,0.0,0.0,0.0,0.0,0.0,0.0,0.0,0.0,0.0,0.0,0.0,0.0,0.0,0.0,0.0,0.0,0.0,0.0,0.0,0.0,0.0,0.0,0.0,0.0,0.0,0.0,0.0,0.0,0.0,0.0,0.0,0.0,0.0,0.4899,0.5884,0.5614,0.5528,0.5707,0.5142,0.477,0.0,0.0,0.0,0.0,0.0,0.0,0.0,0.0,0.0,0.0,0.0,0.0,0.0,0.0,0.0,0.0,0.0,0.0,0.0,0.0,0.0,0.0,0.0,0.0,0.0,0.0,0.0,0.0,0.0,0.0,0.0,0.0,0.0,0.0,0.0,0.0,0.0,0.0,0.0,0.0,0.0,0.0,0.0,0.0,0.0,0.0,0.0,0.0,0.5102,0.0,0.0,0.0,0.0,0.0,0.0,0.0,0.0,0.0,0.0,0.0,0.0,0.0,0.0,0.0,0.0,0.0,0.0,0.0,0.0,0.0,0.0,0.0,0.0,0.0,0.0,0.0,0.0,0.0,0.0,0.0,0.0,0.0,0.0,0.0,0.0,0.0,0.0,0.0,0.0,0.0,0.0,0.0,0.0,0.0,0.0,0.0,0.0,0.0,0.0,0.0,0.0,0.0,0.0,0.0,0.0,0.0,0.0,0.0,0.519,0.666,0.6046,0.5884,0.6209,0.5553,0.5009,0.0,0.0,0.0,0.0,0.0,0.0,0.0,0.0,0.0,0.0,0.0,0.0,0.0,0.0,0.0,0.0,0.0,0.0,0.0,0.0,0.0,0.0,0.0,0.0,0.0,0.0,0.0,0.0,0.0,0.0,0.0,0.0,0.0,0.0,0.0,0.0,0.0,0.0,0.0,0.0,0.0,0.0,0.0,0.0,0.0,0.0,0.0,0.0,0.0,0.0,0.0,0.0,0.0,0.0,0.0,0.0,0.0,0.0,0.0,0.0,0.0,0.0,0.0,0.0,0.0,0.0,0.0,0.0,0.0,0.0,0.0,0.0,0.0,0.0,0.0,0.0,0.0,0.0,0.0,0.0,0.0,0.0,0.0,0.0,0.0,0.0,0.0,0.0,0.0,0.0,0.0,0.0,0.0,0.0,0.0,0.0,0.0,0.0,0.0,0.0,0.0,0.0,0.0,0.0,0.0,0.0,0.0,0.4948,0.5688,0.7588,0.6634,0.6379,0.705,0.6499,0.5753,0.0,0.0,0.0,0.0,0.0,0.0,0.0,0.0,0.0,0.0,0.0,0.0,0.0,0.0,0.0,0.0,0.0,0.0,0.0,0.0,0.0,0.0,0.0,0.0,0.0,0.0,0.0,0.0,0.0,0.0,0.0,0.0,0.0,0.0,0.0,0.0,0.0,0.0,0.0,0.491,0.5319,0.0,0.0,0.0,0.0,0.0,0.0,0.0,0.0,0.5565,0.0,0.0,0.0,0.0,0.0,0.0,0.0,0.0,0.0,0.0,0.0,0.0,0.0,0.0,0.0,0.0,0.0,0.0,0.0,0.0,0.0,0.0,0.0,0.0,0.0,0.0,0.0,0.0,0.0,0.0,0.0,0.0,0.0,0.0,0.0,0.0,0.0,0.0,0.0,0.0,0.0,0.0,0.0,0.0,0.0,0.0,0.0,0.0,0.0,0.0,0.0,0.0,0.0,0.0,0.0,0.0,0.4689,0.5227,0.5991,0.6954,0.7346,0.7653,0.7886,0.7848,0.7178,0.5856,0.0,0.0,0.0,0.0,0.0,0.0,0.0,0.0,0.0,0.0,0.0,0.0,0.0,0.0,0.0,0.0,0.0,0.0,0.0,0.0,0.0,0.0,0.0,0.0,0.0,0.0,0.0,0.0,0.0,0.0,0.0,0.0,0.0,0.0,0.0,0.0,0.0,0.0,0.0,0.6362,0.6752,0.0,0.0,0.0,0.0,0.0,0.0,0.0,0.0,0.5091,0.0,0.0,0.0,0.0,0.0,0.0,0.0,0.0,0.0,0.0,0.0,0.0,0.0,0.0,0.0,0.0,0.0,0.0,0.0,0.0,0.0,0.0,0.0,0.0,0.0,0.0,0.0,0.0,0.0,0.0,0.0,0.0,0.0,0.0,0.0,0.0,0.0,0.0,0.0,0.0,0.0,0.0,0.0,0.0,0.0,0.0,0.0,0.0,0.0,0.0,0.0,0.0,0.0,0.0,0.0,0.4488,0.5273,0.606,0.6781,0.7519,0.7952,0.8049,0.7749,0.7075,0.0,0.0,0.0,0.0,0.0,0.0,0.0,0.0,0.0,0.0,0.0,0.0,0.0,0.0,0.0,0.0,0.0,0.0,0.0,0.0,0.0,0.0,0.0,0.0,0.0,0.0,0.0,0.0,0.0,0.0,0.0,0.0,0.0,0.0,0.0,0.0,0.0,0.0,0.0,0.0,0.6129,0.6384,0.6445,0.0,0.0,0.0,0.0,0.0,0.0,0.5956,0.5411,0.0,0.0,0.0,0.0,0.0,0.0,0.0,0.0,0.0,0.0,0.0,0.0,0.0,0.0,0.0,0.0,0.0,0.0,0.0,0.0,0.0,0.0,0.0,0.0,0.0,0.0,0.0,0.0,0.0,0.0,0.0,0.0,0.0,0.0,0.0,0.0,0.0,0.0,0.0,0.0,0.0,0.0,0.0,0.0,0.0,0.0,0.0,0.0,0.0,0.0,0.0,0.0,0.0,0.0,0.0,0.4414,0.5368,0.6169,0.6765,0.7656,0.8144,0.824,0.7743,0.7051,0.0,0.0,0.0,0.0,0.0,0.0,0.0,0.0,0.0,0.0,0.0,0.0,0.0,0.0,0.0,0.0,0.0,0.0,0.0,0.0,0.0,0.0,0.0,0.0,0.0,0.0,0.0,0.0,0.0,0.0,0.0,0.0,0.0,0.0,0.0,0.0,0.0,0.0,0.0,0.0,0.0,0.6014,0.7011,0.6286,0.0,0.0,0.0,0.0,0.8346,0.6946,0.0,0.0,0.0,0.0,0.0,0.0,0.0,0.0,0.0,0.0,0.0,0.0,0.0,0.0,0.0,0.0,0.0,0.0,0.0,0.0,0.0,0.0,0.0,0.0,0.0,0.0,0.0,0.0,0.0,0.0,0.0,0.0,0.0,0.0,0.0,0.0,0.0,0.0,0.0,0.0,0.0,0.0,0.0,0.0,0.0,0.0,0.0,0.0,0.0,0.0,0.0,0.0,0.0,0.0,0.0,0.0,0.4376,0.5749,0.6567,0.6752,0.8072,0.8891,0.9056,0.9045,0.8396,0.0,0.0,0.0,0.0,0.0,0.0,0.0,0.0,0.0,0.0,0.0,0.0,0.0,0.0,0.0,0.0,0.0,0.0,0.0,0.0,0.0,0.0,0.0,0.0,0.0,0.0,0.0,0.0,0.0,0.0,0.0,0.0,0.0,0.0,0.0,0.0,0.0,0.0,0.0,0.0,0.0,0.6913,0.5583,0.6558,0.73,0.0,0.0,0.0,0.7797,0.7577,0.0,0.0,0.0,0.0,0.0,0.0,0.0,0.0,0.0,0.0,0.0,0.0,0.0,0.0,0.0,0.0,0.0,0.0,0.0,0.0,0.0,0.0,0.0,0.0,0.0,0.0,0.0,0.0,0.0,0.0,0.0,0.0,0.0,0.0,0.0,0.0,0.0,0.0,0.0,0.0,0.0,0.0,0.0,0.0,0.0,0.0,0.0,0.0,0.0,0.0,0.0,0.0,0.0,0.0,0.0,0.4265,0.4352,0.5856,0.669,0.6744,0.8214,0.8848,0.8483,0.8119,0.7435,0.0,0.0,0.0,0.0,0.0,0.0,0.0,0.0,0.0,0.0,0.0,0.0,0.0,0.0,0.0,0.0,0.0,0.0,0.0,0.0,0.0,0.0,0.0,0.0,0.0,0.0,0.0,0.0,0.0,0.0,0.0,0.0,0.0,0.0,0.0,0.0,0.0,0.0,0.0,0.0,0.0,0.0,0.7948,0.828,0.0,0.0,0.0,0.875,0.9706,0.0,0.0,0.0,0.0,0.0,0.0,0.0,0.0,0.0,0.0,0.0,0.0,0.0,0.0,0.0,0.0,0.0,0.0,0.0,0.0,0.0,0.0,0.0,0.0,0.0,0.0,0.0,0.0,0.0,0.0,0.0,0.0,0.0,0.0,0.0,0.0,0.0,0.0,0.0,0.0,0.0,0.0,0.0,0.0,0.0,0.0,0.0,0.0,0.0,0.0,0.0,0.0,0.0,0.0,0.0,0.0,0.0,0.4307,0.5817,0.6618,0.6685,0.8207,0.8663,0.79,0.7427,0.0,0.0,0.0,0.0,0.0,0.0,0.0,0.0,0.0,0.0,0.0,0.0,0.0,0.0,0.0,0.0,0.0,0.0,0.0,0.0,0.0,0.0,0.0,0.0,0.0,0.0,0.0,0.0466,0.0,0.0,0.0,0.0,0.0,0.0,0.0,0.0,0.0,0.0,0.0,0.0,0.0,0.0,0.7186,0.9351,0.9453,0.9995,0.0,0.0,0.9988,1.1041,0.905,0.7425,0.0,0.0,0.0,0.0,0.0,0.0,0.0,0.0,0.0,0.0,0.0,0.0,0.0,0.0,0.0,0.0,0.0,0.0,0.0,0.0,0.0,0.0,0.0,0.0,0.0,0.0,0.0,0.0,0.0,0.0,0.0,0.0,0.0,0.0,0.0,0.0,0.0,0.0,0.0,0.0,0.0,0.0,0.0,0.0,0.0,0.0,0.0,0.0,0.0,0.0,0.0,0.0,0.0,0.0,0.0,0.4271,0.5662,0.6454,0.6555,0.8015,0.8493,0.7841,0.7869,0.7248,0.0,0.0,0.0,0.0,0.0,0.0,0.0,0.0,0.0,0.0,0.0,0.0,0.0,0.0,0.0,0.0,0.0,0.0,0.0,0.0,0.0,0.0,0.0,0.0,0.0,0.0,0.0,0.0,0.0,0.0,0.0,0.0,0.0,0.0,0.0,0.0,0.0,0.0,0.0,0.0,0.0,0.6757,0.7734,0.9219,1.0818,0.0,0.0,1.1133,1.0488,1.0154,0.9445,0.7957,0.0,0.0,0.0,0.0,0.0,0.0,0.0,0.0,0.0,0.0,0.0,0.0,0.0,0.0,0.0,0.0,0.0,0.0,0.0,0.0,0.0,0.0,0.0,0.0,0.0,0.0,0.0,0.0,0.0,0.0,0.0,0.0,0.0,0.0,0.0,0.0,0.0,0.0,0.0,0.0,0.0,0.0,0.0,0.0,0.0,0.0,0.0,0.0,0.0,0.0,0.0,0.0,0.0,0.4178,0.4167,0.5622,0.6405,0.65,0.8014,0.852,0.7819,0.7441,0.6779,0.0,0.0,0.0,0.0,0.0,0.0,0.0,0.0,0.0,0.0,0.0,0.0,0.0,0.0,0.0,0.0,0.0,0.0,0.0,0.0,0.0,0.0,0.0,0.0,0.0,0.0,0.0,0.0,0.3731,0.4394,0.5024,0.0,0.0,0.0,0.0,0.0,0.0,0.0,0.0,0.0,0.0,0.8316,0.9176,1.0293,0.0,0.0,1.209,1.1582,1.1816,1.0488,0.9412,0.9265,0.8373,0.0,0.0,0.0,0.0,0.0,0.0,0.0,0.0,0.0,0.0,0.0,0.0,0.0,0.0,0.0,0.0,0.0,0.0,0.0,0.0,0.0,0.0,0.0,0.0,0.0,0.0,0.0,0.0,0.0,0.0,0.0,0.0,0.0,0.0,0.0,0.0,0.0,0.0,0.0,0.0,0.0,0.0,0.0,0.0,0.0,0.0,0.0,0.0,0.0,0.0,0.0,0.0,0.4225,0.4425,0.5697,0.6465,0.6687,0.8077,0.846,0.7753,0.7106,0.6429,0.0,0.0,0.0,0.0,0.0,0.0,0.0,0.0,0.0,0.0,0.0,0.0,0.0,0.0,0.0,0.0,0.0,0.0,0.0,0.0,0.0,0.0,0.0,0.0,0.0,0.0,0.0,0.0,0.5091,0.5094,0.5093,0.0,0.0,0.0,0.0,0.0,0.0,0.0,0.0,0.0,0.0,0.9421,1.0636,1.1444,1.2206,1.3021,1.2635,1.2402,1.2771,1.1307,1.0156,1.0209,0.0,0.0,0.0,0.0,0.0,0.0,0.0,0.0,0.0,0.0,0.0,0.0,0.0,0.0,0.0,0.0,0.0,0.0,0.0,0.0,0.0,0.0,0.0,0.0,0.0,0.0,0.0,0.0,0.0,0.0,0.3994,0.0,0.0,0.0,0.0,0.0,0.0,0.0,0.0,0.0,0.0,0.0,0.0,0.0,0.0,0.0,0.0,0.0,0.0,0.0,0.0,0.0,0.0,0.0,0.517,0.5926,0.662,0.7262,0.8152,0.8279,0.7637,0.7025,0.64,0.5708,0.0,0.0,0.0,0.0,0.0,0.0,0.0,0.0,0.0,0.0,0.0,0.0,0.0,0.0,0.0,0.0,0.0,0.0,0.0,0.0,0.0,0.0,0.0,0.0,0.0,0.0,0.5091,0.5103,0.5106,0.0,0.0,0.0,0.0,0.0,0.0,0.0,0.0,0.0,0.0,0.889,0.9643,1.1652,1.2474,1.3079,1.3545,1.3839,1.3762,1.3001,1.2771,1.2187,0.0,0.0,0.0,0.0,0.0,0.0,0.0,0.0,0.0,0.0,0.0,0.0,0.0,0.0,0.0,0.0,0.0,0.0,0.0,0.0,0.0,0.0,0.0,0.0,0.0,0.0,0.0,0.4942,0.4614,0.0,0.0,0.0,0.0,0.0,0.0,0.0,0.0,0.0,0.0,0.0,0.5523,0.5918,0.0,0.0,0.0,0.0,0.0,0.0,0.0,0.0,0.0,0.0,0.0,0.0,0.4367,0.5136,0.5848,0.6578,0.7291,0.8115,0.8443,0.826,0.7642,0.6781,0.5654,0.0,0.0,0.0,0.0,0.0,0.0,0.0,0.0,0.0,0.0,0.0,0.0,0.0,0.0,0.0,0.0,0.0,0.0,0.0,0.0,0.0,0.0,0.0,0.0,0.0,0.5043,0.0,0.0,0.0,0.0,0.0,0.0,0.0,0.0,0.0,0.0,0.0,0.849,0.9622,1.0407,1.1159,1.1823,1.3418,1.4041,0.0,0.0,0.0,0.0,0.0,0.0,0.0,0.0,0.0,0.0,0.0,0.0,0.0,0.0,1.2765,0.991,0.8701,0.8093,0.8092,0.0,0.0,0.0,0.0,0.0,0.0,0.0,0.0,0.0,0.0,0.0,0.0,0.0,0.0,0.0,0.0,0.5129,0.0,0.0,0.0,0.0,0.0,0.0,0.0,0.0,0.6555,0.6551,0.6194,0.6566,0.6543,0.0,0.5959,0.5705,0.0,0.0,0.0,0.0,0.0,0.0,0.0,0.0,0.507,0.5848,0.6337,0.6921,0.7628,0.8176,0.8492,0.8538,0.794,0.6952,0.5619,0.5149,0.4835,0.0,0.0,0.0,0.0,0.0,0.0,0.0,0.0,0.0,0.0,0.0,0.0,0.0,0.0,0.0,0.0,0.0,0.0,0.0,0.0,0.0,0.0,0.0,0.5013,0.0,0.0,0.0,0.0,0.0,0.0,0.0,0.0,0.0,0.7281,0.8476,0.9634,1.051,1.1341,1.2134,1.2942,0.0,0.0,0.0,0.0,0.0,0.0,0.0,1.4506,1.5271,1.4667,1.3945,1.3454,1.4019,1.4426,1.4027,0.0,0.0,1.1681,1.0509,0.9924,0.9923,1.0393,1.0766,1.0784,1.1402,1.2137,0.0,0.0,0.0,0.0,0.0,0.0,0.0,0.0,0.5783,0.5777,0.0,0.574,0.0,0.0,0.0,0.0,0.0,0.0,0.0,0.0,0.7015,0.6991,0.6983,0.6925,0.6843,0.6805,0.7407,0.7348,0.6594,0.4799,0.0,0.0,0.0,0.0,0.0,0.0,0.6417,0.7225,0.7263,0.7606,0.8245,0.836,0.8415,0.8491,0.7907,0.6956,0.5669,0.5634,0.5327,0.4699,0.4632,0.0,0.0,0.0,0.0,0.0,0.0,0.0,0.0,0.0,0.0,0.0,0.0,0.0,0.0,0.0,0.0,0.0,0.0,0.0,0.0,0.5004,0.0,0.0,0.0,0.0,0.0,0.0,0.0,0.0,0.0,0.0,0.8482,0.9467,1.052,1.1429,0.0,0.0,0.0,0.0,1.5898,1.7538,1.7824,1.7802,1.7778,1.7117,1.6318,1.5578,0.0,0.0,1.2441,1.3964,1.5018,1.396,1.4061,1.4413,1.5208,1.4406,1.3822,1.3837,1.3782,1.4035,1.4109,1.4457,1.515,0.7236,0.0,0.0,0.0,0.0,0.707,0.7118,0.7194,0.7083,0.687,0.654,0.6453,0.0,0.0,0.0,0.0,0.0,0.0,0.7672,0.8126,0.8603,0.8815,0.88,0.8315,0.808,0.805,0.7344,0.6912,0.6661,0.567,0.5262,0.5441,0.0,0.0,0.0,0.0,0.6285,0.7099,0.7167,0.7521,0.8286,0.8325,0.8357,0.8415,0.7798,0.7344,0.7083,0.6635,0.6093,0.5474,0.4897,0.0,0.0,0.0,0.0,0.0,0.0,0.0,0.0,0.0,0.0,0.0,0.0,0.0,0.0,0.0,0.0,0.0,0.0,0.0,0.4907,0.4981,0.5244,0.0,0.0,0.0,0.0,0.0,0.0,0.0,0.0,0.0,0.9654,1.0933,1.2416,0.0,0.0,1.4678,1.6151,1.6678,1.6963,1.71,0.0,0.0,0.0,1.5493,1.5852,1.6258,1.6123,1.5812,1.5424,1.5385,1.5289,1.496,1.4979,1.5292,1.5995,1.4646,1.3376,1.3278,1.3689,1.408,1.4177,1.5247,1.6298,0.8404,0.8352,0.7829,0.759,0.759,0.759,0.7657,0.7731,0.7919,0.7832,0.7591,0.776,0.7628,0.7243,0.7243,0.0,0.0,0.0,0.8616,0.9011,0.9409,0.9622,0.9579,0.92,0.8988,0.8967,0.8217,0.7853,0.7846,0.7185,0.6845,0.6823,0.0,0.0,0.6583,0.6647,0.696,0.7521,0.7562,0.7812,0.8299,0.8302,0.8309,0.8351,0.7975,0.7734,0.7609,0.7254,0.663,0.5768,0.5006,0.46,0.0,0.0,0.0,0.0,0.0,0.0,0.0,0.0,0.0,0.0,0.0,0.4942,0.0,0.0,0.0,0.0,0.5532,0.5792,0.5562,0.5781,0.0,0.0,0.0,0.0,0.0,0.0,0.0,0.8553,0.9877,1.0914,1.1351,1.2276,1.3216,1.4013,1.5254,1.6279,1.6739,0.0,1.7416,1.6869,1.6894,1.6637,1.5734,1.5671,1.5979,1.6575,1.6996,1.6904,1.6279,1.6242,1.6419,1.6438,1.642,1.6598,1.7109,1.5937,1.4922,1.4941,1.5293,1.5625,1.5644,1.6484,1.7225,0.9622,0.9497,0.8265,0.7771,0.7757,0.7706,0.7692,0.7713,0.829,0.8522,0.8574,0.9229,0.9531,0.9608,0.9622,0.0,0.0,0.9618,0.9642,0.9613,0.9695,0.9753,0.9753,0.97,0.9671,0.9657,0.9627,0.9622,0.955,0.8953,0.8691,0.8662,0.7504,0.7212,0.7768,0.7914,0.8035,0.8156,0.8216,0.8267,0.8302,0.8302,0.8302,0.8302,0.836,0.8112,0.7541,0.7557,0.6978,0.5685,0.507,0.4732,0.4612,0.0,0.0,0.0,0.0,0.0,0.0,0.0,0.0,0.0,0.0,0.0,0.0,0.0,0.0,0.0,0.6417,0.0,0.6663,0.7072,0.0,0.0,0.0,0.7536,0.7694,0.8344,0.8761,0.8688,0.0,0.0,0.0,0.0,1.3326,1.2778,1.5421,1.7278,1.6926,1.7137,1.7236,1.6655,1.7162,1.7599,1.7345,1.6937,1.6647,1.6801,1.7415,1.737,1.6182,1.6866,1.788,1.79,1.798,1.8022,1.8084,1.7987,1.8124,1.8105,1.8008,1.793,1.7832,1.7969,1.8105,0.9622,0.9593,0.924,0.913,0.9072,0.8564,0.8354,0.8331,0.7982,0.7845,0.788,0.8528,0.9127,0.9622,0.9622,0.9331,0.8894,0.9841,1.0044,0.9686,1.0598,1.1027,1.1009,1.0533,1.0281,1.0252,0.9807,0.9622,0.9598,0.9424,0.9351,0.936,0.906,0.8479,0.7679,0.7687,0.7753,0.7892,0.8013,0.8144,0.8296,0.8302,0.8302,0.8302,0.8309,0.8073,0.7535,0.7503,0.6935,0.5699,0.6081,0.5806,0.4667,0.46,0.0,0.0,0.0,0.0,0.0,0.0,0.0,0.0,0.0,0.4885,0.4794,0.0,0.4909,0.0,0.6336,0.7357,0.7629,0.7457,0.0,0.0,0.7717,0.8,0.9251,0.9059,0.9341,1.076,1.1779,1.2641,1.3326,1.4153,1.4405,1.3685,1.4771,1.6109,1.7179,1.6357,1.565,1.565,1.6265,1.6713,1.6816,1.7188,1.7504,1.7591,1.7807,1.7784,1.7429,1.7686,1.7997,1.7997,1.7998,1.8254,1.8882,1.8999,1.9254,1.9726,1.8926,1.8008,1.8008,1.8535,1.8983,1.0438,1.0452,1.0456,1.0442,1.0369,0.9438,0.904,0.9046,0.8947,0.8886,0.8929,0.9589,1.0093,1.0432,1.0452,1.0238,0.9957,1.0621,1.078,1.0485,1.1169,1.1504,1.15,1.1129,1.0944,1.0944,1.0606,1.0467,1.0413,1.0131,1.0001,1.001,0.9729,0.9211,0.8526,0.8533,0.8608,0.8769,0.8666,0.8517,0.8318,0.8302,0.8302,0.8302,0.8302,0.817,0.7921,0.7912,0.7464,0.6571,0.6651,0.6087,0.4726,0.5894,0.6338,0.0,0.0,0.0,0.0,0.0,0.0,0.0,0.0,0.0,0.0,0.0,0.5758,0.0,0.7476,0.0,0.8164,0.8313,0.8539,0.879,0.8649,0.8899,0.983,0.9554,0.9734,1.0858,1.1706,1.2699,1.3981,1.471,1.4943,1.4427,1.479,1.544,1.6185,1.5631,1.5344,1.6074,1.6334,1.654,1.6844,1.7728,1.8333,1.8402,1.8769,1.9084,1.9145,1.9149,1.9149,1.9149,1.915,1.9307,1.9778,1.9896,2.0073,2.029,1.9843,1.9219,1.916,1.9531,1.9882,1.1504,1.1504,1.1504,1.1504,1.1416,1.0311,0.9802,0.9734,1.0189,1.043,1.0531,1.1115,1.1416,1.1504,1.1504,1.146,1.1387,1.1474,1.1504,1.1504,1.1504,1.1544,1.162,1.1533,1.1504,1.1504,1.1504,1.1504,1.1474,1.09,1.0618,1.0589,1.0122,0.9846,0.9846,0.9893,0.9924,0.9866,0.9584,0.9114,0.8424,0.8386,0.8409,0.8402,0.8334,0.829,0.8255,0.8278,0.8022,0.7469,0.6831,0.6002,0.4975,0.7583,0.8559,0.0,0.7478,0.0,0.0,0.0,0.0,0.0,0.0,0.0,0.0,0.677,0.6954,0.8103,0.898,0.9236,0.8603,0.9283,0.9729,0.9605,0.9699,0.9838,0.9967,1.001,1.0095,1.0268,1.1245,1.2766,1.4698,1.5056,1.5082,1.5051,1.5058,1.5226,1.5363,1.5398,1.5841,1.7313,1.7079,1.716,1.7887,1.8627,1.9152,1.9259,1.9786,2.0477,2.0466,2.049,2.0551,2.0553,2.0477,2.0536,2.0598,2.0579,2.058,2.0582,2.0506,2.0468,2.0469,2.0469,2.0605,1.1504,1.1504,1.1504,1.1504,1.1474,1.1253,1.0824,1.031,0.9923,1.003,1.0492,1.0633,1.0987,1.1489,1.1504,1.1202,1.0716,1.1271,1.1504,1.1504,1.1504,1.1754,1.218,1.1725,1.1504,1.1504,1.1504,1.1504,1.1504,1.1384,1.1303,1.1289,1.1173,1.114,1.1151,0.0,0.0,0.0,0.9467,0.9423,0.898,0.8941,0.8941,0.8949,0.8518,0.0,0.7533,0.7556,0.7302,0.6663,0.6526,0.0,0.0,0.0,0.0,0.0,0.0,0.0,0.0,0.0,0.0,0.0,0.7604,0.7426,0.7153,0.707,0.766,0.9077,0.9382,0.9454,0.9304,0.949,0.9601,0.9546,0.9639,1.0061,1.0869,1.087,1.0901,1.1213,1.2354,1.3576,1.4638,1.4906,1.5008,1.512,1.5112,1.5475,1.635,1.6254,1.6372,1.6907,1.7748,1.8665,1.9486,1.9777,1.9923,2.0075,2.016,2.0376,2.0498,2.0533,2.0546,2.0589,2.0594,2.0594,2.0595,2.0594,2.0596,2.0601,2.0602,2.0603,2.0604,2.0605,2.0605,1.2434,0.0,1.2088,1.1945,0.0,1.1634,1.1303,1.0987,1.0664,1.0708,1.0998,1.0987,1.1187,1.1504,1.1504,1.1329,1.1017,1.1344,1.1663,1.1957,1.1945,1.2279,1.2902,1.258,1.2434,1.242,1.2102,1.1943,1.1943,1.1638,1.1504,1.1504,1.1504,1.1504,1.1504,1.1504,1.0934,0.9809,1.0111,0.9904,0.915,0.9096,0.8965,0.8727,0.0,0.0,0.0,0.0,0.0,0.0,0.0,0.0,0.0,0.0,0.0,0.8835,0.843,0.7914,0.7313,0.7338,0.7566,0.7979,0.8493,0.8642,0.8247,0.83,0.8663,0.9396,0.95,0.95,0.9486,0.9524,0.9696,1.0014,0.9797,1.0113,1.1365,1.1764,1.1939,1.2209,1.3003,1.389,1.4783,1.4957,1.5221,1.5658,1.5738,1.6086,1.6907,1.6755,1.6693,1.7672,1.8741,1.9616,2.0002,2.0149,2.0203,2.0238,2.0268,2.0314,2.039,2.0452,2.0513,2.0587,2.0594,2.0594,2.0594,2.0594,2.0594,2.0598,2.0599,2.0601,2.0603,2.0605,2.0605,1.3407,1.3364,1.2787,1.2584,1.2541,1.2056,1.1823,1.1809,0.0,0.0,0.0,1.1504,1.1504,1.1504,1.1504,1.1504,1.1504,1.1504,1.1826,1.2386,1.2296,1.2642,1.3393,1.3278,1.3292,1.3365,1.2831,1.2572,1.2543,1.1957,1.1652,1.1638,1.1562,1.1504,1.1504,1.1504,1.1286,1.0872,1.0942,1.0493,0.9406,0.9286,0.9027,0.8599,0.8409,0.8302,0.8302,0.8357,0.8431,0.8507,0.8516,0.8581,0.8693,0.8705,0.8705,0.8711,0.8863,0.8648,0.8001,0.8092,0.8237,0.8372,0.8966,0.936,0.9407,0.947,0.959,0.9757,0.9617,0.9613,0.9884,0.9829,1.0091,1.0816,1.0313,1.0558,1.197,1.2517,1.2833,1.3125,1.35,1.4036,1.481,1.4984,1.5388,1.6151,1.633,1.6793,1.7504,1.737,1.75,1.8818,1.9616,2.0074,2.0117,2.0155,2.0192,2.0209,2.0258,2.0285,2.0315,2.0377,2.049,2.0559,2.059,2.0593,2.0594,2.0594,2.0594,2.0595,2.0598,2.06,2.0602,2.0604,2.0605,1.3407,1.338,1.3292,1.3263,1.3236,1.3174,1.3145,1.3043,1.1995,1.1504,1.1504,1.1504,1.1504,1.1504,1.1504,1.1504,1.1504,1.1504,1.1826,0.0,1.1858,1.226,1.3364,1.2829,1.2843,1.3365,1.3292,1.3249,1.3176,1.2599,1.2267,1.2221,1.1754,1.1504,1.1504,1.1504,1.1457,1.1395,1.1413,1.1116,1.0495,1.0028,0.9753,0.9628,0.8783,0.8302,0.8309,0.837,0.8441,0.8497,0.861,0.8687,0.8705,0.8705,0.8705,0.8705,0.8718,0.8674,0.8586,0.8695,0.9083,0.9698,0.9403,0.9217,0.938,0.9453,0.9902,1.0724,1.0123,1.0091,1.1295,1.1168,1.1168,1.1631,1.1626,1.1939,1.2827,1.302,1.3322,1.3956,1.4186,1.4372,1.4677,1.4832,1.5303,1.6135,1.6689,1.7041,1.8306,1.8631,1.8932,1.9692,2.0017,2.0112,2.0112,2.0155,2.0192,2.0196,2.0212,2.0261,2.0289,2.0318,2.0375,2.0488,2.0554,2.0591,2.0593,2.0594,2.0633,2.0655,2.0716,2.0698,2.0759,2.078,2.0703,1.4442,1.4384,1.4035,1.3889,1.3875,1.354,1.3407,1.3336,1.2796,1.2522,1.2522,1.2522,1.2522,1.2505,1.2161,1.1989,1.1986,1.1638,1.1838,1.2357,1.2093,1.248,1.3336,1.3426,1.36,1.3876,1.3889,1.3876,1.3818,1.3237,1.2945,1.2902,1.2294,1.1826,1.1529,1.1504,1.1504,1.1504,1.1504,1.1238,1.0702,1.0533,1.0318,1.0055,0.9632,0.9449,0.9433,0.912,0.8969,0.9043,0.8804,0.8697,0.8705,0.8705,0.8705,0.8705,0.8705,0.8705,0.8705,0.9173,0.9821,1.0602,1.049,1.0268,1.0049,0.971,1.0069,1.1386,1.1822,1.2014,1.197,1.2454,1.2767,1.2568,1.2428,1.2736,1.354,1.3763,1.3932,1.4265,1.4411,1.4509,1.4629,1.5085,1.5784,1.6799,1.7649,1.8694,1.9429,1.9544,1.9658,2.0036,2.0112,2.0112,2.0112,2.0122,2.0155,2.0192,2.0205,2.0208,2.0237,2.0273,2.0307,2.0375,2.0517,2.0564,2.0601,2.0568,2.0769,2.1258,2.1298,2.1418,2.1773,2.1951,2.1855,1.5283,1.524,1.4761,1.4529,1.4485,1.402,1.383,1.383,1.383,1.3845,1.3801,1.354,1.3407,1.3349,1.2858,1.2543,1.2342,1.1928,1.1885,1.2178,1.2207,1.2555,1.3163,1.3673,1.4007,1.4268,1.4312,1.4312,1.4239,1.3686,1.3307,1.3176,1.2802,1.2308,1.1722,1.1696,1.1638,1.1518,1.1504,1.1311,1.0943,1.0907,1.0744,1.0446,1.0391,1.0412,1.0381,0.9915,0.9651,0.9694,0.934,0.9009,0.8732,0.8705,0.8837,0.9134,0.9207,0.9184,0.9246,0.9752,1.0424,1.1062,1.1223,1.117,1.088,1.0287,1.0614,1.2226,1.3479,1.3702,1.2888,1.3503,1.4046,1.3431,1.3183,1.3401,1.4137,1.4318,1.4325,1.4368,1.4428,1.4491,1.4706,1.5338,1.6276,1.7506,1.9039,1.9993,2.006,2.0084,2.0103,2.0112,2.0112,2.0112,2.0112,2.0112,2.0122,2.0183,2.0379,2.0503,2.0525,2.0417,2.0573,2.0793,2.1061,2.1206,2.1119,2.1156,2.1482,2.2035,2.2174,2.235,2.2805,2.318,2.3241,1.5283,1.5283,1.5211,1.5211,1.5167,1.511,1.5066,1.5066,1.5095,1.5124,1.495,1.3932,1.3451,1.3407,1.335,1.3005,1.2472,1.2354,1.2088,1.1638,1.1591,1.1914,1.2456,1.2586,1.3195,1.4138,1.4254,1.4239,1.4224,1.3685,1.309,1.263,1.3032,1.2931,1.2354,1.2294,1.2044,1.1518,1.1504,1.1538,1.1573,1.1152,1.0961,1.1091,1.0666,1.0412,1.0491,1.0341,1.0343,1.0407,1.0407,0.9892,0.8895,0.8716,0.9323,1.0577,1.0667,1.0707,1.0683,1.0757,1.0871,1.0912,1.1041,1.1272,1.1698,1.1384,1.1908,1.3425,1.4097,1.4148,1.4105,1.4215,1.4264,1.4131,1.4083,1.4209,1.4288,1.4318,1.4306,1.4312,1.4416,1.4405,1.4739,1.5402,1.6484,1.8067,1.9236,2.0015,1.9974,2.0034,2.0108,2.0103,2.0112,2.0131,2.017,2.0112,2.027,2.0294,2.081,2.1206,2.1259,2.0876,2.0569,2.2025,2.2582,2.2643,2.2554,2.2775,2.271,2.2907,2.303,2.3074,2.3215,2.3766,2.4159,1.5283,1.5283,1.5283,1.5283,1.5283,1.5283,1.5283,1.5283,1.5283,1.5283,1.524,1.4732,1.45,1.4514,1.4122,1.3788,1.35,1.315,1.2628,1.2062,1.2033,1.1989,1.1899,1.2253,1.2702,1.3181,1.3571,1.3773,1.373,1.3497,1.3074,1.2485,1.2686,1.2495,1.1916,1.187,1.1739,1.1518,1.1504,1.1567,1.1688,1.1609,1.1581,1.1672,1.1646,1.1643,1.1595,1.1241,1.1031,1.1068,1.0743,1.0358,0.991,0.991,1.0616,1.1967,1.1362,1.1097,1.1536,1.1545,1.1727,1.2174,1.2273,1.2446,1.2696,1.2654,1.2961,1.3594,1.4016,1.4195,1.4183,1.4249,1.4318,1.4317,1.4312,1.4318,1.4318,1.4752,1.4854,1.4463,1.5139,1.551,1.5446,1.6361,1.7646,1.8826,1.9635,1.9958,1.995,2.0015,2.005,2.0103,2.0112,2.0361,2.0671,2.0867,2.1034,2.1454,2.1855,2.2152,2.242,2.2071,2.2029,2.3149,2.3735,2.3726,2.2946,2.3023,2.3074,2.3508,2.4375,2.4634,2.4638,2.4917,2.5135,1.5283,1.5283,1.5283,1.5283,1.5283,1.5283,1.5283,1.5283,1.5283,1.5283,1.5283,1.5283,1.5283,1.5225,1.479,1.4471,1.4239,1.3846,1.3294,1.2729,1.2673,1.2337,1.1841,1.2178,1.2386,1.247,1.2889,1.3119,1.3132,1.3119,1.286,1.247,1.2584,1.2366,1.1823,1.1751,1.1663,1.1515,1.1534,1.1597,1.1729,1.1933,1.2054,1.2086,1.2282,1.2449,1.2489,1.1993,1.1718,1.1755,1.1314,1.1111,1.1186,1.1303,1.1885,1.2852,1.2124,1.1727,1.2265,1.2307,1.253,1.3035,1.3191,1.3252,1.326,1.3354,1.3404,1.3476,1.3682,1.3851,1.403,1.4172,1.4334,1.4544,1.4678,1.477,1.5006,1.5621,1.5784,1.5212,1.595,1.6621,1.6468,1.7576,1.8855,1.9311,1.9738,1.998,1.999,2.001,2.0045,2.0084,2.0112,2.0327,2.0924,2.09,2.1416,2.2052,2.2295,2.2753,2.3498,2.3288,2.3362,2.4211,2.4932,2.5014,2.4165,2.3796,2.3323,2.417,2.4909,2.5472,2.5456,2.5657,2.566,1.5283,1.5283,1.5283,1.5283,1.5283,1.5283,1.5283,1.5283,1.5283,1.5283,1.5283,1.5283,1.5283,1.5283,1.5211,1.4892,1.437,1.4297,1.3948,1.3394,1.335,1.3003,1.2398,1.2386,1.2412,1.2412,1.247,1.2485,1.2456,1.2441,1.2441,1.2398,1.2902,1.2945,1.234,1.2224,1.2059,1.1573,1.1619,1.1681,1.1736,1.2013,1.2185,1.2185,1.2226,1.2333,1.2469,1.2473,1.2435,1.2461,1.2421,1.2421,1.2411,1.2621,1.2846,1.3034,1.301,1.296,1.3002,1.2977,1.3027,1.3102,1.3111,1.3111,1.3128,1.3137,1.3208,1.3295,1.3252,1.3379,1.3903,1.4321,1.4684,1.5285,1.5637,1.5972,1.645,1.6885,1.7095,1.6631,1.6639,1.7066,1.7661,1.8804,1.9258,1.9432,1.972,1.9969,1.9961,2.0014,2.0069,2.0084,2.0112,2.0131,2.0189,2.0575,2.0843,2.1536,2.2448,2.2811,2.3728,2.444,2.4769,2.4886,2.4805,2.4856,2.5009,2.4733,2.4102,2.4323,2.4765,2.5214,2.5025,2.5515,2.5558,1.5283,1.5283,1.5283,1.5283,1.5283,1.5283,1.5283,1.5283,1.5283,1.5283,1.5283,1.5283,1.5283,1.5283,1.5283,1.5167,1.4935,1.4935,1.4602,1.4021,1.3977,1.3629,1.3103,1.3047,1.2802,1.2429,1.2386,1.218,1.1829,1.1826,1.1826,1.1841,1.2071,1.2056,1.1855,1.1812,1.1707,1.1529,1.163,1.1692,1.1714,1.1944,1.2112,1.2215,1.2333,1.2413,1.2505,1.2514,1.2514,1.2514,1.2534,1.2524,1.2544,1.2829,1.3057,1.3093,1.3093,1.3093,1.3093,1.3093,1.3093,1.3093,1.3093,1.3093,1.3093,1.3093,1.3112,1.3164,1.3129,1.3513,1.4579,1.5274,1.5784,1.6043,1.6276,1.6512,1.6766,1.7302,1.7509,1.6965,1.711,1.7773,1.8481,1.9139,1.9441,1.9459,1.9688,1.9896,1.9961,2.0028,2.0101,2.0098,2.0112,2.0112,2.0112,2.0671,2.1211,2.188,2.2505,2.2639,2.325,2.4306,2.4763,2.4047,2.4037,2.3683,2.3608,2.3848,2.3495,2.3531,2.4043,2.4348,2.4007,2.4557,2.4814,1.5283,1.5283,1.5283,1.5283,1.5283,1.5283,1.5283,1.5283,1.5283,1.5283,1.5283,1.5283,1.5283,1.5283,1.5283,1.5283,1.5283,1.5283,1.5037,1.4645,1.4616,1.4282,1.3773,1.3672,1.3352,1.2773,1.2499,1.2178,1.1809,1.1591,1.1504,1.1518,1.1504,1.1504,1.1504,1.1504,1.1504,1.1523,1.1641,1.1692,1.1725,1.1944,1.2117,1.2215,1.2399,1.2514,1.2514,1.2514,1.2514,1.2514,1.2514,1.2524,1.2568,1.2848,1.3066,1.3093,1.3093,1.3093,1.3093,1.3093,1.3093,1.3093,1.3093,1.3093,1.3093,1.3093,1.3093,1.3236,1.4392,1.5214,1.5558,1.6525,1.711,1.6946,1.6985,1.7196,1.7472,1.7972,1.8026,1.7773,1.7972,1.8534,1.8993,1.9235,1.938,1.9492,1.9837,2.0132,2.0029,2.0275,2.0491,2.0613,2.0633,2.0805,2.1034,2.1569,2.144,2.1937,2.2204,2.2357,2.2931,2.3982,2.4274,2.3487,2.2814,2.2355,2.2305,2.2632,2.2685,2.2624,2.31,2.3595,2.353,2.3618,2.3914,1.5312,1.5356,1.5327,1.5428,1.5487,1.5486,1.537,1.5443,1.5428,1.5501,1.5559,1.5414,1.5486,1.5356,1.5399,1.5356,1.5283,1.5283,1.5269,1.5196,1.5211,1.4892,1.434,1.4311,1.3977,1.3366,1.2731,1.2456,1.2395,1.1873,1.1605,1.1547,1.1529,1.1504,1.1504,1.1504,1.1504,1.1537,1.163,1.1692,1.1736,1.2003,1.2195,1.2226,1.2383,1.2514,1.2514,1.2546,1.2578,1.2514,1.2552,1.2544,1.2616,1.2811,1.2951,1.3075,1.3093,1.3093,1.3093,1.3093,1.3093,1.3126,1.3126,1.3225,1.3242,1.3142,1.3159,1.3765,1.5967,1.7681,1.672,1.7568,1.8235,1.7771,1.7737,1.8115,1.8716,1.9023,1.9077,1.895,1.895,1.9059,1.912,1.9219,1.9393,1.9736,2.027,2.0659,2.0402,2.0845,2.1387,2.1573,2.1517,2.1531,2.2066,2.2548,2.2071,2.177,2.186,2.2032,2.2811,2.3733,2.3905,2.3285,2.2067,2.1594,2.1778,2.2045,2.194,2.1962,2.2471,2.2747,2.2686,2.2737,2.3189,1.5907,1.5965,1.6414,1.6588,1.6619,1.6603,1.6619,1.6603,1.6605,1.6603,1.6619,1.6588,1.6356,1.5979,1.5907,1.5689,1.5312,1.5283,1.5283,1.5283,1.5283,1.5182,1.5008,1.4964,1.466,1.4007,1.3396,1.3076,1.2974,1.2424,1.212,1.2062,1.1722,1.1518,1.1533,1.1504,1.1504,1.15,1.163,1.1692,1.1725,1.2039,1.2205,1.2226,1.2409,1.2514,1.253,1.2941,1.2957,1.2546,1.2931,1.2999,1.2663,1.2726,1.2896,1.3066,1.3093,1.3093,1.3093,1.3093,1.3109,1.3209,1.3556,1.383,1.3788,1.3407,1.3615,1.4486,1.6582,1.7671,1.7879,1.8145,1.8415,1.8368,1.8484,1.865,1.8988,1.9095,1.9095,1.9095,1.9095,1.9095,1.9139,1.9229,1.9601,2.0181,2.0688,2.0933,2.1171,2.1658,2.1937,2.1864,2.2003,2.2376,2.2854,2.3141,2.2873,2.2472,2.23,2.2262,2.2925,2.3326,2.3466,2.316,2.1923,2.1388,2.1537,2.1536,2.1564,2.1299,2.156,2.1612,2.1536,2.2033,2.2798,1.659,1.6634,1.7026,1.7214,1.7214,1.7214,1.7214,1.7214,1.7214,1.7214,1.72,1.72,1.6982,1.6617,1.6559,1.6211,1.5675,1.5617,1.5515,1.5342,1.5283,1.5283,1.5283,1.5283,1.5109,1.4631,1.4021,1.373,1.3686,1.3119,1.2773,1.2671,1.2379,1.2073,1.1882,1.1826,1.1754,1.1558,1.1575,1.163,1.167,1.1876,1.206,1.2133,1.2302,1.2413,1.2542,1.3146,1.3194,1.2694,1.2931,1.2883,1.2588,1.3242,1.3568,1.3189,1.3324,1.3416,1.315,1.3093,1.34,1.383,1.4095,1.4344,1.4427,1.4105,1.4437,1.5276,1.6658,1.7726,1.8173,1.8351,1.8469,1.8705,1.8816,1.8984,1.9078,1.9095,1.9095,1.9095,1.9095,1.9095,1.9139,1.9517,1.986,2.0518,2.126,2.1622,2.2021,2.2495,2.2661,2.283,2.3078,2.3389,2.3599,2.3676,2.3657,2.3332,2.3026,2.2983,2.3269,2.3403,2.3498,2.3466,2.2616,2.2316,2.2383,2.1968,2.1795,2.1371,2.1258,2.1788,2.2315,2.2499,2.3072,1.7258,1.7272,1.7316,1.7386,1.7417,1.7432,1.7444,1.7388,1.7403,1.7446,1.7417,1.749,1.7374,1.7287,1.7258,1.6851,1.63,1.6256,1.5879,1.5472,1.5385,1.5399,1.5312,1.5283,1.524,1.5124,1.4631,1.437,1.4326,1.3759,1.3438,1.3438,1.3278,1.3047,1.2555,1.2456,1.2233,1.1864,1.1733,1.1748,1.1767,1.1833,1.195,1.2138,1.2292,1.2406,1.2579,1.3036,1.3131,1.2657,1.2783,1.2899,1.3007,1.439,1.4808,1.3814,1.4003,1.3672,1.3275,1.3233,1.379,1.4878,1.4751,1.4576,1.5209,1.5408,1.5475,1.5707,1.6785,1.7634,1.7977,1.8184,1.8438,1.8752,1.8923,1.9045,1.9087,1.9095,1.9095,1.9132,1.9113,1.924,1.944,2.0028,2.0398,2.0957,2.2019,2.2479,2.2876,2.3395,2.4126,2.4238,2.4087,2.4211,2.4369,2.4408,2.4364,2.4197,2.3905,2.3848,2.3804,2.3842,2.39,2.3815,2.3515,2.3297,2.2997,2.2578,2.2369,2.2278,2.248,2.2919,2.3077,2.3153,2.3422,1.794,1.7966,1.8419,1.8608,1.8608,1.8589,1.8593,1.8608,1.8579,1.8521,1.8579,1.8608,1.8303,1.7966,1.7908,1.7313,1.6574,1.6735,1.6284,1.5516,1.5791,1.569,1.537,1.5283,1.5283,1.5254,1.508,1.5052,1.4979,1.4384,1.4065,1.4036,1.3685,1.3378,1.3149,1.3134,1.3074,1.2941,1.2883,1.2854,1.2879,1.2962,1.2939,1.2678,1.2838,1.279,1.2563,1.2662,1.2962,1.3273,1.3779,1.4047,1.4123,1.5702,1.6414,1.5978,1.4814,1.3871,1.3374,1.3589,1.4327,1.5193,1.5591,1.5895,1.6072,1.6603,1.6851,1.6984,1.7377,1.7657,1.7986,1.8128,1.8383,1.8807,1.8993,1.908,1.9105,1.9095,1.9095,1.915,1.9594,2.0119,2.0771,2.1034,2.1425,2.2027,2.263,2.3215,2.3553,2.3997,2.4602,2.4791,2.4802,2.4939,2.5057,2.5096,2.5096,2.5,2.4847,2.4746,2.4727,2.4727,2.4784,2.4809,2.4165,2.3823,2.3549,2.3182,2.3161,2.3248,2.3226,2.341,2.3408,2.35,2.3983,1.8579,1.8622,1.8956,1.9116,1.9116,1.9116,1.9116,1.9116,1.9116,1.9116,1.9116,1.9116,1.8898,1.8575,1.8546,1.7853,1.682,1.7316,1.6719,1.5501,1.5631,1.5573,1.5341,1.5283,1.5283,1.5283,1.5283,1.5283,1.5225,1.4892,1.4747,1.466,1.4369,1.405,1.3773,1.3773,1.3656,1.3438,1.3407,1.3407,1.342,1.3471,1.3422,1.3253,1.3408,1.3427,1.3377,1.3399,1.3463,1.3526,1.3652,1.3952,1.4635,1.5702,1.6456,1.6481,1.5019,1.3842,1.3407,1.3814,1.4824,1.5873,1.6442,1.6542,1.6823,1.7271,1.7486,1.7453,1.7486,1.7669,1.7921,1.8146,1.845,1.878,1.8949,1.9036,1.9097,1.9095,1.9095,1.9286,1.9829,2.0934,2.2184,2.2184,2.2305,2.2719,2.3142,2.3621,2.4062,2.4503,2.4794,2.4888,2.5063,2.513,2.5191,2.5249,2.5478,2.544,2.5554,2.5491,2.5421,2.5382,2.5172,2.5038,2.4662,2.4378,2.4139,2.4043,2.4223,2.4212,2.3993,2.401,2.4159,2.4092,2.4559,1.9116,1.9101,1.9116,1.9116,1.9116,1.9116,1.9116,1.9116,1.9116,1.9116,1.9116,1.9116,1.9072,1.9116,1.897,1.8419,1.7359,1.7853,1.6953,1.595,1.5544,1.5501,1.5501,1.5341,1.5298,1.5283,1.5283,1.5283,1.5269,1.5254,1.5254,1.5167,1.5182,1.495,1.4515,1.4399,1.4108,1.3831,1.3816,1.383,1.383,1.3843,1.3847,1.3831,1.3922,1.4178,1.4357,1.4426,1.4253,1.3636,1.2899,1.3226,1.4255,1.462,1.5098,1.5384,1.4926,1.4265,1.3655,1.4261,1.5321,1.6856,1.6802,1.6785,1.7283,1.7453,1.7486,1.7486,1.7486,1.7627,1.7878,1.8243,1.863,1.8929,1.9039,1.9102,1.9261,1.9259,1.9214,1.934,2.0029,2.1568,2.2809,2.3288,2.2835,2.3095,2.3484,2.3763,2.41,2.4379,2.4604,2.473,2.4961,2.5205,2.5268,2.5325,2.5612,2.5822,2.6007,2.6045,2.5892,2.574,2.5382,2.5077,2.4872,2.4856,2.4919,2.497,2.5072,2.5031,2.4725,2.503,2.5376,2.5085,2.5247,1.9116,1.9116,1.9116,1.9116,1.9116,1.9116,1.9116,1.9116,1.9116,1.9116,1.9116,1.9116,1.9116,1.9116,1.9072,1.8666,1.7969,1.798,1.7374,1.6182,1.5994,1.5994,1.5907,1.5617,1.5341,1.5341,1.5298,1.5283,1.5283,1.5283,1.5283,1.5283,1.5283,1.5225,1.508,1.4979,1.5037,1.4892,1.4848,1.4776,1.4761,1.4776,1.4742,1.4652,1.4566,1.4546,1.4565,1.4584,1.4517,1.4122,1.3384,1.3057,1.341,1.4336,1.506,1.5353,1.567,1.5487,1.5083,1.5398,1.6326,1.7238,1.7332,1.7304,1.742,1.7486,1.7486,1.7486,1.7498,1.7656,1.8154,1.8384,1.8929,1.9446,1.9713,2.0051,2.0532,2.0354,2.0156,2.0527,2.1359,2.2582,2.3625,2.3668,2.3506,2.3588,2.3702,2.3891,2.4161,2.4422,2.4791,2.5102,2.5385,2.573,2.5892,2.6007,2.6294,2.6447,2.6599,2.6504,2.637,2.6256,2.5931,2.5554,2.5178,2.5321,2.5726,2.537,2.5374,2.5394,2.5507,2.5697,2.5858,2.5765,2.597,1.9116,1.9116,1.9116,1.9116,1.9116,1.9116,1.9116,1.9116,1.9116,1.9116,1.9116,1.9116,1.9116,1.9116,1.9087,1.8767,1.8111,1.7505,1.7098,1.659,1.64,1.6356,1.6632,1.6343,1.6082,1.5762,1.5399,1.5298,1.5283,1.5298,1.5283,1.5283,1.5283,1.5283,1.5283,1.5283,1.5269,1.524,1.5283,1.5283,1.5298,1.5388,1.5549,1.5552,1.5472,1.5424,1.5571,1.5564,1.5564,1.5331,1.4794,1.4068,1.3679,1.4438,1.5299,1.6143,1.5786,1.5758,1.5503,1.5989,1.6685,1.7437,1.7486,1.7486,1.7486,1.7486,1.7486,1.7486,1.7584,1.7881,1.9101,1.936,1.9822,2.0142,2.0405,2.0838,2.1478,2.1245,2.0997,2.145,2.2119,2.2898,2.3487,2.3741,2.3831,2.3751,2.3788,2.3985,2.4697,2.501,2.5541,2.5881,2.6129,2.6369,2.6587,2.6803,2.7128,2.7243,2.73,2.7052,2.6765,2.667,2.6536,2.6313,2.6223,2.6427,2.668,2.6205,2.6009,2.6422,2.6593,2.6414,2.6474,2.6814,2.7043,1.9116,1.9116,1.9116,1.9116,1.9116,1.9116,1.9116,1.9116,1.9116,1.9116,1.9116,1.9116,1.9116,1.9116,1.9116,1.8767,1.8071,1.733,1.7011,1.7009,1.688,1.6965,1.7241,1.7241,1.7055,1.6443,1.5834,1.553,1.5472,1.5341,1.5298,1.5283,1.5283,1.5283,1.5283,1.5283,1.5313,1.5358,1.5373,1.5418,1.5477,1.561,1.5839,1.6099,1.6213,1.626,1.6362,1.642,1.6515,1.6594,1.6594,1.6003,1.5384,1.5289,1.5889,1.7358,1.6397,1.5978,1.6028,1.6337,1.6918,1.747,1.7486,1.7486,1.7486,1.7486,1.7486,1.7629,1.7861,1.8915,2.0777,2.0613,2.0672,2.0976,2.1127,2.1612,2.2196,2.2078,2.2161,2.2427,2.2799,2.3306,2.3596,2.3813,2.3868,2.3969,2.4013,2.4233,2.4964,2.5706,2.6282,2.6523,2.6734,2.7234,2.7491,2.7682,2.7962,2.8255,2.8236,2.7988,2.7682,2.7931,2.8007,2.7625,2.7555,2.7587,2.7414,2.6991,2.7039,2.7566,2.7489,2.7128,2.7383,2.7902,2.7981,1.9116,1.9116,1.9116,1.9116,1.9116,1.9116,1.9116,1.9116,1.9116,1.9116,1.9116,1.9116,1.9116,1.9116,1.9116,1.8749,1.8198,1.7751,1.7534,1.7429,1.749,1.785,1.7966,1.8009,1.794,1.7577,1.6779,1.6155,1.5921,1.5603,1.5544,1.537,1.5341,1.5356,1.5356,1.5298,1.5373,1.5492,1.5536,1.5595,1.5783,1.5897,1.6038,1.6313,1.6448,1.6541,1.6583,1.6594,1.6594,1.6594,1.6594,1.6597,1.6527,1.6745,1.7096,1.7264,1.716,1.6828,1.6923,1.7122,1.7349,1.747,1.7486,1.7519,1.7519,1.7576,1.7728,1.8279,1.9022,2.0275,2.2422,2.1663,2.1282,2.1596,2.198,2.2327,2.3015,2.3279,2.328,2.3495,2.3596,2.3668,2.394,2.4248,2.452,2.4737,2.49,2.5027,2.5488,2.6351,2.7155,2.727,2.7273,2.7892,2.8483,2.8637,2.8879,2.9363,2.9459,2.944,2.9325,2.965,2.9574,2.8867,2.8313,2.8033,2.7854,2.7713,2.7877,2.8232,2.8016,2.7747,2.8207,2.8632,2.8444,1.9116,1.9116,1.9116,1.9116,1.9116,1.9116,1.9116,1.9116,1.9116,1.9116,1.9116,1.9116,1.9116,1.9116,1.9116,1.8782,1.8346,1.8187,1.7998,1.7821,1.8056,1.8419,1.8608,1.8651,1.8666,1.8404,1.7708,1.6996,1.6704,1.6472,1.6226,1.6197,1.5965,1.5763,1.5676,1.5472,1.5491,1.5581,1.5654,1.577,1.6011,1.6109,1.626,1.6436,1.6528,1.6594,1.6594,1.6594,1.6594,1.6594,1.6594,1.6751,1.7009,1.7273,1.7486,1.7486,1.7486,1.7486,1.7486,1.7486,1.747,1.7486,1.7503,1.769,1.7789,1.7875,1.8373,2.0023,2.0763,2.1848,2.2932,2.2329,2.2312,2.2541,2.2728,2.3003,2.3531,2.4037,2.4234,2.4346,2.4429,2.4465,2.4538,2.4864,2.5226,2.5497,2.5733,2.5939,2.6156,2.6922,2.7833,2.8211,2.8275,2.8726,2.9234,2.9331,2.9433,2.9917,3.0204,3.0204,3.0204,3.0147,3.0032,2.9631,2.9134,2.8701,2.8817,2.8862,2.89,2.8859,2.8727,2.8698,2.9055,2.9252,2.91,1.9116,1.9116,1.9116,1.9116,1.9116,1.9116,1.9116,1.9116,1.9116,1.9116,1.9116,1.9116,1.9116,1.9116,1.9058,1.8825,1.839,1.8404,1.8404,1.8404,1.8433,1.8695,1.897,1.9116,1.9043,1.8912,1.8593,1.8042,1.7461,1.7125,1.7171,1.6967,1.6576,1.6401,1.6298,1.6082,1.5857,1.601,1.6084,1.6187,1.6324,1.6365,1.6423,1.6583,1.6594,1.6594,1.6594,1.6594,1.662,1.662,1.6649,1.6727,1.6993,1.7326,1.7474,1.7486,1.7486,1.7486,1.7486,1.7486,1.7569,1.7785,1.7723,1.8075,1.8502,1.8788,1.9469,2.229,2.2989,2.289,2.3054,2.3054,2.308,2.3182,2.3271,2.3519,2.3977,2.4424,2.4786,2.4939,2.5124,2.5244,2.5262,2.5461,2.5794,2.6204,2.6439,2.6862,2.7133,2.7593,2.8375,2.9031,2.9389,2.9699,2.9947,2.9911,2.9937,3.0051,3.0204,3.0204,3.0204,3.0204,3.007,2.9975,2.9975,2.9638,2.983,2.9838,2.9673,2.9537,2.9496,2.9558,2.9737,2.9913,2.9871,1.9116,1.9116,1.9116,1.9116,1.9116,1.9116,1.9116,1.9116,1.9116,1.9116,1.9116,1.9116,1.9116,1.9116,1.9116,1.9058,1.8985,1.8912,1.8898,1.8883,1.8912,1.8956,1.9087,1.9101,1.9116,1.9087,1.8999,1.8651,1.8114,1.7577,1.7316,1.7284,1.7241,1.7067,1.7069,1.6843,1.7246,1.7588,1.7652,1.7577,1.7343,1.6905,1.668,1.6596,1.6623,1.662,1.662,1.6633,1.6672,1.6763,1.6675,1.6751,1.7005,1.7309,1.7462,1.7486,1.7486,1.7486,1.7569,1.7619,1.7901,1.8269,1.8389,1.8774,1.9284,1.9921,2.0798,2.2695,2.3107,2.3107,2.3107,2.3107,2.3156,2.3253,2.3378,2.3844,2.4369,2.471,2.5073,2.5301,2.5432,2.5751,2.5932,2.6138,2.6373,2.6801,2.72,2.7598,2.8015,2.8421,2.8735,2.9324,2.9707,3.0019,3.0157,3.0197,3.0204,3.0204,3.0204,3.0204,3.0204,3.0204,3.0204,3.0166,3.0211,3.0225,3.0118,3.0094,3.0165,3.0119,2.9963,3.0071,3.0288,3.0408,3.0425,1.9116,1.9116,1.9116,1.9116,1.9116,1.9116,1.9116,1.9116,1.9116,1.9116,1.9116,1.9116,1.9116,1.9116,1.9116,1.9101,1.9116,1.9116,1.9116,1.9116,1.9116,1.9116,1.9101,1.9116,1.9116,1.9116,1.9101,1.8999,1.8608,1.8462,1.8274,1.8187,1.7925,1.7766,1.7809,1.7543,1.7663,1.7926,1.8161,1.8109,1.7737,1.7383,1.7036,1.6657,1.6723,1.6778,1.6791,1.6789,1.6841,1.6917,1.6841,1.6866,1.7059,1.7367,1.7768,1.8704,1.8704,1.8522,1.817,1.8087,1.8456,1.8919,1.918,1.9478,2.023,2.1053,2.182,2.2965,2.3089,2.3107,2.3107,2.3107,2.3193,2.3307,2.3401,2.377,2.4325,2.4956,2.5305,2.5522,2.5703,2.5884,2.612,2.6355,2.6681,2.7296,2.7616,2.7936,2.8419,2.8949,2.9233,2.9514,2.9805,3.0046,3.0121,3.0164,3.0204,3.0204,3.0204,3.0204,3.0204,3.0204,3.0204,3.0237,3.0251,3.0252,3.0241,3.0241,3.0248,3.0298,3.0367,3.0373,3.0404,3.0404,3.0425,1.9116,1.9116,1.9116,1.9116,1.9116,1.9116,1.9116,1.9116,1.9116,1.9116,1.9116,1.9116,1.9116,1.9116,1.9116,1.9116,1.9116,1.9116,1.9116,1.9116,1.9116,1.9116,1.9116,1.9116,1.9116,1.9116,1.9116,1.9058,1.9087,1.9029,1.8993,1.9184,1.8738,1.8631,1.8588,1.8508,1.8539,1.8803,1.8936,1.8759,1.8378,1.8078,1.7683,1.7393,1.7266,1.7343,1.7372,1.7526,1.762,1.7672,1.7138,1.7022,1.7216,1.8347,1.923,1.9942,1.9942,1.9545,1.918,1.9018,1.9217,1.9647,2.0141,2.0492,2.0995,2.1987,2.2672,2.3052,2.3089,2.3107,2.3107,2.3107,2.3151,2.3265,2.3389,2.3674,2.4013,2.4646,2.5179,2.5414,2.5559,2.5667,2.5957,2.6355,2.6916,2.7695,2.8087,2.8208,2.8551,2.895,2.9349,2.9486,2.9796,3.0007,3.0117,3.0142,3.0183,3.0319,3.0319,3.0261,3.03,3.0261,3.0204,3.0244,3.036,3.0266,3.0266,3.0286,3.0311,3.0349,3.0373,3.0379,3.0404,3.0404,3.0435,1.9116,1.9116,1.9116,1.9116,1.9116,1.9116,1.9116,1.9116,1.9116,1.9116,1.9116,1.9116,1.9116,1.9116,1.9116,1.9116,1.9116,1.9116,1.9116,1.9116,1.9116,1.9116,1.9116,1.9116,1.9116,1.9116,1.9116,1.9116,1.912,1.9157,1.9273,1.9394,1.9258,1.9549,1.9647,1.9526,1.9657,1.9817,1.983,1.9657,1.9325,1.8977,1.8552,1.8517,1.8661,1.8856,1.884,1.8818,1.883,1.8892,1.7981,1.7485,1.8041,1.9717,2.0917,2.1036,2.0752,2.0453,2.0274,1.9896,1.9962,2.0555,2.1083,2.141,2.1635,2.2101,2.2659,2.2995,2.307,2.3107,2.3107,2.3119,2.3175,2.3235,2.3466,2.3921,2.4181,2.4386,2.4871,2.5197,2.545,2.5631,2.5468,2.5794,2.6246,2.6971,2.7055,2.7157,2.7769,2.8226,2.8924,2.9326,2.9687,2.9913,3.0087,3.0235,3.0534,3.072,3.0796,3.0605,3.0452,3.0376,3.0223,3.0612,3.076,3.0508,3.0445,3.0842,3.0983,3.0559,3.0404,3.0404,3.0404,3.0404,3.0481,1.9116,1.9116,1.9116,1.9116,1.9116,1.9116,1.9116,1.9116,1.9116,1.9116,1.9116,1.9116,1.9116,1.9116,1.9116,1.9116,1.9116,1.9116,1.9116,1.9116,1.9116,1.9116,1.9116,1.9116,1.9116,1.9116,1.9116,1.9116,1.9116,1.925,1.9545,1.9672,1.9636,1.9726,1.9904,2.02,2.0409,2.0531,2.0445,2.0273,1.9783,1.9578,1.9183,1.8739,1.9001,1.9117,1.9141,1.9323,1.9435,1.9391,1.889,1.8779,1.891,2.087,2.1632,2.1781,2.1332,2.1265,2.1166,2.0754,2.0638,2.1201,2.1647,2.1857,2.1928,2.2073,2.2357,2.2681,2.3033,2.3107,2.3137,2.318,2.3247,2.3271,2.3584,2.4112,2.4603,2.487,2.507,2.5631,2.5685,2.574,2.5432,2.5153,2.5631,2.612,2.6113,2.6268,2.6958,2.7728,2.8521,2.9247,2.9644,2.9998,3.0178,3.0537,3.0961,3.114,3.1312,3.1236,3.1064,3.0383,3.0345,3.0796,3.1434,3.1623,3.1741,3.1846,3.1616,3.1065,3.0654,3.0404,3.0404,3.0558,3.075,1.9116,1.9116,1.9116,1.9116,1.9116,1.9116,1.9116,1.9116,1.9116,1.9116,1.9116,1.9116,1.9116,1.9116,1.9116,1.9116,1.9116,1.9116,1.9116,1.9116,1.9116,1.9116,1.9116,1.9116,1.9116,1.9116,1.9116,1.9116,1.9116,1.9365,1.9654,1.9815,1.9871,2.0013,2.0237,2.0426,2.0662,2.0827,2.0829,2.0734,2.0289,2.0257,2.013,1.9666,1.9921,2.0007,2.0098,2.0275,2.0367,2.0395,2.0279,2.0262,2.0607,2.1118,2.1681,2.1781,2.1781,2.1781,2.1632,2.1464,2.1265,2.1632,2.1731,2.1869,2.1926,2.1899,2.213,2.2579,2.2924,2.3219,2.342,2.3872,2.4158,2.4384,2.4159,2.4587,2.5368,2.5778,2.5891,2.612,2.6059,2.5968,2.586,2.5497,2.5208,2.5667,2.595,2.6107,2.6568,2.7405,2.8342,2.9041,2.9645,2.998,3.0313,3.1077,3.1763,3.1878,3.2031,3.2126,3.1859,3.1197,3.088,3.135,3.2034,3.2725,3.2838,3.2619,3.2084,3.1475,3.1288,3.125,3.1442,3.1654,3.1538,1.9101,1.9116,1.9116,1.9116,1.9116,1.9116,1.9116,1.9116,1.9116,1.9116,1.9116,1.9116,1.9116,1.9116,1.9116,1.9116,1.9116,1.9116,1.9116,1.9116,1.9261,1.9188,1.9232,1.929,1.9435,1.9159,1.9217,1.929,1.9203,1.9634,1.9864,2.0271,2.0606,2.0694,2.0808,2.0793,2.0924,2.1103,2.1215,2.1279,2.1343,2.1295,2.1086,2.1053,2.1029,2.1023,2.102,2.1169,2.1269,2.1301,2.135,2.135,2.1499,2.1582,2.1781,2.1781,2.1781,2.1781,2.1764,2.1763,2.1829,2.1831,2.188,2.1975,2.186,2.1842,2.2095,2.2663,2.2929,2.3701,2.4314,2.4988,2.5264,2.5272,2.5058,2.5315,2.6117,2.679,2.6922,2.6989,2.6584,2.6258,2.624,2.5986,2.5244,2.5262,2.5679,2.6034,2.6401,2.7098,2.8084,2.8693,2.9351,2.9907,3.0461,3.1808,3.2539,3.2634,3.2795,3.2947,3.3005,3.2707,3.2439,3.2267,3.255,3.3177,3.3252,3.3199,3.3005,3.2897,3.2558,3.2506,3.2679,3.266,3.2429,1.9191,1.9116,1.9116,1.9116,1.9116,1.9116,1.9116,1.9116,1.9116,1.9116,1.9116,1.9116,1.9116,1.9116,1.9116,1.9116,1.9116,1.9116,1.9116,1.9174,1.9594,1.974,1.9861,2.0055,2.0113,1.9841,1.9754,1.9812,1.9817,2.0296,2.085,2.1286,2.1721,2.1933,2.168,2.1601,2.1798,2.2383,2.2513,2.2565,2.2669,2.2297,2.2021,2.2005,2.1822,2.1655,2.1608,2.1789,2.1781,2.1781,2.1781,2.1781,2.1781,2.1781,2.1781,2.1797,2.1797,2.1781,2.1963,2.2096,2.2261,2.2178,2.2276,2.231,2.193,2.1797,2.2215,2.2853,2.3271,2.4082,2.4783,2.5821,2.621,2.6015,2.5985,2.6441,2.7085,2.77,2.8057,2.8057,2.7803,2.7314,2.7115,2.6862,2.6174,2.5884,2.6349,2.624,2.6451,2.701,2.7798,2.8301,2.8897,2.9626,3.0503,3.1841,3.2397,3.2279,3.3043,3.391,3.3929,3.3681,3.3375,3.284,3.3192,3.3578,3.3784,3.4045,3.4517,3.4513,3.3865,3.3333,3.3237,3.3179,3.3045,1.9384,1.9232,1.9479,1.9482,1.935,1.918,1.9116,1.9116,1.9116,1.9116,1.9116,1.9116,1.9116,1.9116,1.9116,1.9116,1.9149,1.9593,1.954,1.9651,2.0463,2.068,2.0818,2.0953,2.0881,2.0665,2.0671,2.071,2.0774,2.1427,2.1996,2.2517,2.3024,2.304,2.2781,2.2764,2.2688,2.3133,2.3235,2.3318,2.3356,2.3227,2.2965,2.2785,2.2505,2.2075,2.2008,2.1906,2.1814,2.1814,2.1814,2.1797,2.1781,2.1781,2.1781,2.1797,2.2094,2.2129,2.2377,2.2907,2.3007,2.2807,2.3089,2.3105,2.2807,2.2841,2.334,2.3818,2.4024,2.4757,2.5737,2.68,2.7142,2.6976,2.7127,2.7574,2.7749,2.8364,2.8473,2.8545,2.8527,2.8147,2.7894,2.764,2.7206,2.7115,2.7079,2.6844,2.6693,2.7319,2.788,2.8368,2.9043,2.9927,3.0822,3.183,3.2145,3.1954,3.2821,3.391,3.4101,3.3738,3.3586,3.3597,3.3995,3.4351,3.4599,3.488,3.5095,3.5058,3.4673,3.4199,3.3853,3.3814,3.3853,1.9717,1.9563,2.0191,2.0227,1.9864,1.9372,1.9157,1.9134,1.9134,1.9134,1.9101,1.9134,1.912,1.912,1.9101,1.9174,1.9361,2.0236,2.034,2.0597,2.135,2.155,2.166,2.1694,2.1804,2.1759,2.1753,2.189,2.1948,2.2736,2.3297,2.3585,2.385,2.4082,2.4112,2.3963,2.3821,2.4022,2.4088,2.4225,2.4313,2.41,2.3935,2.3704,2.3307,2.2928,2.268,2.2364,2.2129,2.1996,2.1912,2.1831,2.1781,2.1781,2.1797,2.2079,2.2674,2.2824,2.304,2.3636,2.3951,2.3851,2.4116,2.4348,2.4315,2.4116,2.4611,2.5222,2.5658,2.6243,2.6957,2.7651,2.8308,2.8267,2.8279,2.8419,2.8419,2.8582,2.8582,2.86,2.86,2.8437,2.8401,2.8201,2.7894,2.7948,2.7821,2.7713,2.7665,2.7979,2.8492,2.878,2.9518,3.0453,3.1254,3.167,3.1714,3.1446,3.226,3.3203,3.3433,3.3681,3.3528,3.37,3.4644,3.5066,3.5013,3.5156,3.5378,3.525,3.5058,3.5,3.4622,3.4834,3.4949,2.0102,2.0174,2.0091,2.0176,2.0246,1.9861,1.9536,1.9321,1.9302,1.9302,1.9246,1.9302,1.9306,1.912,1.9195,1.9501,1.9846,2.0226,2.0622,2.1188,2.2069,2.2355,2.2642,2.2919,2.3031,2.3036,2.3034,2.3092,2.3309,2.4014,2.4726,2.5149,2.4992,2.5307,2.5376,2.5342,2.5193,2.5111,2.5044,2.5168,2.5174,2.4994,2.4861,2.4563,2.4067,2.3719,2.3471,2.2941,2.2791,2.3156,2.2278,2.1847,2.1781,2.1862,2.2044,2.3272,2.3603,2.3702,2.3802,2.4381,2.4812,2.4996,2.533,2.5196,2.5145,2.5246,2.5732,2.6267,2.6852,2.7302,2.7538,2.808,2.8536,2.86,2.86,2.86,2.86,2.86,2.86,2.86,2.86,2.86,2.86,2.8545,2.831,2.8491,2.8545,2.8382,2.8371,2.8615,2.8867,2.9115,2.9473,3.0236,3.054,3.0945,3.0971,3.1083,3.1916,3.2527,3.2745,3.2993,3.3184,3.3773,3.4611,3.5025,3.5205,3.536,3.5481,3.55,3.5346,3.5423,3.55,3.55,3.55,2.058,2.063,2.0665,2.0633,2.0564,2.0362,2.0067,1.9747,1.9624,1.957,1.957,1.9767,1.9696,1.9538,1.9812,2.0093,2.025,2.1203,2.164,2.1819,2.2797,2.3346,2.38,2.4055,2.42,2.4233,2.4258,2.4296,2.4503,2.5043,2.5756,2.589,2.6007,2.6078,2.6048,2.5947,2.5979,2.5926,2.5941,2.6061,2.5917,2.5773,2.564,2.5375,2.4778,2.4514,2.4348,2.3719,2.3669,2.3951,2.2891,2.2344,2.2477,2.2774,2.3719,2.4795,2.4547,2.4414,2.4414,2.5076,2.5494,2.5814,2.6252,2.6152,2.6,2.5982,2.6421,2.6888,2.7545,2.8051,2.8183,2.8309,2.8471,2.86,2.86,2.86,2.86,2.86,2.86,2.86,2.86,2.86,2.86,2.86,2.86,2.86,2.86,2.8545,2.8516,2.8615,2.8913,2.9191,2.9397,2.9785,3.0067,3.0481,3.078,3.1064,3.1541,3.2031,3.2191,3.2821,3.3509,3.4018,3.4515,3.4902,3.527,3.5393,3.55,3.55,3.55,3.55,3.55,3.55,3.55,2.1135,2.0926,2.154,2.1339,2.0844,2.0795,2.0613,2.026,2.0124,1.9987,2.0054,2.033,2.0323,2.0274,2.0621,2.0914,2.1385,2.2276,2.2647,2.2509,2.3915,2.4535,2.4487,2.4863,2.4999,2.5198,2.5297,2.5252,2.551,2.5826,2.6025,2.6185,2.6151,2.6185,2.6168,2.6168,2.615,2.6132,2.6079,2.6097,2.6151,2.6152,2.6169,2.6036,2.559,2.5176,2.5011,2.4613,2.4133,2.4166,2.3802,2.3189,2.3388,2.4332,2.5556,2.5838,2.5407,2.5193,2.5177,2.5692,2.6183,2.6454,2.6657,2.674,2.6673,2.6472,2.6758,2.7166,2.773,2.8045,2.8187,2.8375,2.8549,2.86,2.86,2.86,2.86,2.86,2.86,2.86,2.86,2.86,2.86,2.86,2.86,2.86,2.86,2.86,2.8656,2.8687,2.8938,2.9243,2.9437,2.9672,3.0037,3.0457,3.0867,3.1178,3.1675,3.2306,3.3012,3.3547,3.4006,3.4458,3.4852,3.5063,3.5323,3.542,3.5481,3.55,3.55,3.55,3.55,3.55,3.55,2.1386,2.157,2.1721,2.1417,2.086,2.1071,2.0974,2.0696,2.0877,2.0747,2.0547,2.0662,2.0928,2.1196,2.1432,2.182,2.2809,2.3196,2.3557,2.3769,2.4697,2.5024,2.4906,2.5234,2.557,2.5862,2.5989,2.5936,2.5972,2.6097,2.6185,2.6185,2.6185,2.6185,2.6185,2.6185,2.6185,2.6185,2.6168,2.6133,2.6185,2.6185,2.6169,2.6136,2.5871,2.5838,2.564,2.5243,2.5309,2.5475,2.4448,2.3884,2.3635,2.5309,2.6054,2.6154,2.6023,2.5823,2.5876,2.6164,2.6573,2.6808,2.6956,2.7151,2.7151,2.6924,2.6972,2.7386,2.7689,2.7947,2.8214,2.8427,2.86,2.86,2.86,2.86,2.86,2.86,2.86,2.86,2.86,2.86,2.86,2.86,2.86,2.86,2.86,2.8612,2.8686,2.8748,2.8959,2.9246,2.9446,2.9718,3.0059,3.0609,3.1118,3.1847,3.2477,3.3146,3.3834,3.4235,3.4617,3.489,3.5208,3.5285,3.535,3.542,3.5467,3.5481,3.55,3.55,3.55,3.55,3.55,2.1632,2.1783,2.1631,2.1387,2.1103,2.1214,2.1183,2.1119,2.1387,2.1386,2.1166,2.1247,2.1536,2.2025,2.2281,2.281,2.3774,2.4115,2.4276,2.457,2.4883,2.5121,2.5332,2.5572,2.5846,2.6168,2.6185,2.6151,2.6185,2.6185,2.6185,2.6185,2.6185,2.6185,2.6185,2.6185,2.6185,2.6185,2.6185,2.6185,2.6185,2.6185,2.6185,2.6185,2.6185,2.6185,2.6086,2.5773,2.5905,2.6003,2.5358,2.516,2.511,2.5755,2.6279,2.6451,2.6435,2.6328,2.6363,2.6555,2.6892,2.7133,2.7258,2.7446,2.7615,2.7415,2.7322,2.7642,2.7657,2.7876,2.821,2.8453,2.8562,2.86,2.86,2.86,2.86,2.86,2.86,2.86,2.86,2.86,2.86,2.86,2.86,2.86,2.86,2.86,2.8674,2.9132,2.9272,2.9505,2.9868,2.9911,3.0106,3.0798,3.1546,3.2344,3.323,3.3853,3.4426,3.4827,3.519,3.5226,3.5258,3.5293,3.5357,3.5439,3.5467,3.5481,3.55,3.55,3.55,3.5538,3.5596,2.1797,2.1753,2.1479,2.1356,2.1356,2.1388,2.1371,2.1418,2.1678,2.1797,2.1771,2.1868,2.2175,2.2704,2.3302,2.377,2.4287,2.4887,2.5073,2.5067,2.5406,2.5427,2.561,2.5919,2.6097,2.6168,2.6185,2.6185,2.6185,2.6185,2.6185,2.6185,2.6185,2.6185,2.6185,2.6185,2.6185,2.6185,2.6185,2.6185,2.6185,2.6185,2.6185,2.6185,2.6185,2.6185,2.6185,2.6185,2.6185,2.6136,2.6036,2.5937,2.5887,2.6071,2.6437,2.6674,2.6623,2.6503,2.6503,2.6792,2.7244,2.7582,2.7624,2.773,2.7879,2.7893,2.7789,2.7789,2.7803,2.7933,2.8264,2.8453,2.8549,2.86,2.86,2.86,2.86,2.86,2.86,2.86,2.86,2.86,2.86,2.86,2.8618,2.8618,2.8618,2.86,2.8814,2.9599,3.008,3.0381,3.0753,3.0694,3.0517,3.1381,3.2363,3.2917,3.3777,3.4426,3.4923,3.5095,3.519,3.5218,3.5239,3.5293,3.5357,3.5432,3.546,3.55,3.55,3.55,3.5615,3.5654,3.5769,2.1781,2.1781,2.1738,2.1691,2.1691,2.1691,2.1723,2.1691,2.1751,2.1781,2.1996,2.251,2.3059,2.3737,2.4463,2.4966,2.5366,2.5758,2.5594,2.5519,2.5793,2.574,2.5758,2.6008,2.6133,2.6185,2.6185,2.6185,2.6185,2.6185,2.6185,2.6185,2.6185,2.6185,2.6185,2.6185,2.6219,2.6286,2.6352,2.6352,2.6334,2.6301,2.6185,2.6185,2.6185,2.6185,2.6185,2.6185,2.6185,2.6185,2.6185,2.6185,2.6185,2.6221,2.652,2.6808,2.6775,2.6809,2.6891,2.7119,2.7554,2.795,2.7979,2.7965,2.8095,2.8146,2.8087,2.8115,2.8156,2.8224,2.8453,2.8536,2.86,2.86,2.86,2.86,2.86,2.86,2.86,2.86,2.86,2.86,2.86,2.8618,2.8672,2.869,2.8763,2.8775,2.8759,2.9726,3.0913,3.1454,3.1855,3.1541,3.1416,3.2527,3.3452,3.3891,3.4254,3.4751,3.5057,3.5125,3.519,3.5226,3.5266,3.53,3.5357,3.5439,3.546,3.55,3.55,3.5519,3.5673,3.5923,3.6173]}]]